GFSGL_925_spd_003.txt.gz
Wind_Speed
8 7 5 6 6 6 8 8 9 10 11 12 13 14 15 14 15 14 14 14 14 19 20 20 23 25 29 31 32 30 30 28 17 26 27 36 34 32 35 24 23 23 25
10 7 7 7 7 7 8 9 10 11 12 13 15 17 16 15 17 14 16 16 16 17 18 18 21 25 28 30 35 30 29 29 28 23 25 28 33 27 26 27 18 19 24
11 9 8 8 8 8 9 9 10 11 13 15 16 17 17 17 15 15 16 15 15 15 15 16 19 21 25 28 37 27 25 28 29 28 26 28 31 23 26 29 27 26 28
9 9 8 8 9 10 10 9 10 12 14 16 16 17 16 17 18 17 15 13 14 15 14 13 16 17 21 28 32 31 25 23 27 28 27 27 29 30 27 29 25 28 27
10 10 9 9 10 10 10 11 12 13 15 16 16 17 17 18 18 5 11 15 16 16 14 13 13 19 24 24 26 31 30 25 26 23 24 25 27 29 27 27 25 22 26
12 10 9 9 10 11 11 11 12 14 14 15 15 17 18 18 14 16 17 16 17 16 15 15 16 20 22 27 32 36 31 27 26 23 24 24 28 29 29 25 25 21 10
14 12 12 11 11 11 11 11 12 13 15 14 15 15 16 17 15 15 18 17 19 18 17 17 19 20 21 22 35 33 32 30 29 32 29 29 33 32 30 25 21 23 23
15 15 14 12 12 11 12 13 12 13 14 13 15 16 15 16 17 15 18 19 20 20 20 22 21 23 25 27 34 35 41 35 32 30 31 40 39 31 33 35 27 29 23
18 17 16 14 14 13 13 13 13 12 13 13 16 18 15 17 15 18 17 17 21 19 21 22 21 23 24 28 35 36 41 39 34 33 37 41 39 36 31 25 30 19 17
20 18 16 15 13 13 14 12 11 14 14 15 15 14 16 19 18 10 11 14 17 17 20 20 21 21 23 25 31 34 37 42 45 38 30 33 41 41 37 35 24 24 21
19 18 16 15 13 13 12 10 19 15 14 14 14 17 18 27 19 15 10 10 13 16 19 21 20 21 24 24 30 37 41 50 40 23 19 25 31 32 34 36 32 25 23
18 18 16 13 13 13 13 11 13 12 14 15 14 20 16 17 20 16 9 10 14 14 18 19 20 20 20 25 25 33 32 39 39 36 13 18 21 25 29 29 31 29 28
17 18 16 11 13 13 14 10 11 16 13 10 24 11 23 17 4 6 9 15 17 16 18 18 16 15 20 26 24 25 30 32 36 35 26 21 11 16 23 25 28 28 29
16 10 12 13 14 11 10 12 16 13 12 17 14 15 16 28 10 14 17 17 16 15 15 16 10 12 20 17 20 23 28 33 27 30 32 29 27 11 8 24 24 26 24
10 11 11 11 10 10 9 6 7 5 6 11 11 12 11 14 14 18 18 14 13 14 17 12 11 14 19 21 24 23 24 28 27 22 25 28 32 27 26 7 15 21 20
9 13 13 10 11 15 7 7 2 3 4 6 6 8 7 11 13 14 11 12 14 12 11 9 10 12 14 17 20 22 23 24 26 30 27 24 23 31 32 34 26 20 17
8 8 10 6 9 2 1 5 6 0 3 4 9 10 7 11 12 11 10 7 11 13 8 10 10 13 14 17 17 19 21 24 23 23 24 25 21 21 26 26 21 23 22
7 6 8 7 4 3 1 3 2 3 5 5 1 4 10 12 14 11 7 10 5 6 9 11 12 11 12 14 18 19 20 21 25 27 23 23 24 22 16 18 22 22 19
7 2 3 5 4 4 3 4 4 6 4 2 0 2 4 10 9 13 13 12 12 11 10 10 12 13 13 14 16 17 18 20 21 21 24 25 26 22 22 14 10 12 16
1 4 4 5 7 6 6 5 3 1 2 4 7 7 8 5 8 8 9 10 10 9 9 10 11 11 13 13 14 17 16 19 21 21 20 20 22 21 20 17 18 14 14
4 5 6 7 6 4 3 1 3 4 4 1 6 6 4 4 3 5 6 8 8 8 8 9 9 10 12 14 15 16 17 15 19 20 19 20 20 22 22 23 16 16 18
4 6 7 5 6 6 4 3 4 4 3 2 2 4 6 4 3 3 4 5 5 6 6 8 8 9 10 11 13 13 13 15 16 18 18 18 18 17 18 22 21 19 18
4 4 1 2 3 2 5 5 3 5 3 4 4 5 6 7 3 1 2 3 3 5 6 6 7 8 9 10 11 12 12 11 13 15 16 17 17 17 16 16 17 17 17
4 3 3 6 5 8 5 5 3 4 4 4 4 2 2 1 4 2 1 2 4 5 5 5 7 9 9 9 11 11 12 12 11 12 15 15 15 16 16 16 14 15 14
4 4 6 7 6 8 3 8 5 5 5 3 3 3 2 1 1 2 2 3 3 3 4 4 5 6 9 11 12 12 11 13 15 13 12 13 14 14 15 15 14 15 16
5 5 7 6 6 5 6 6 6 6 6 5 4 4 3 3 2 2 2 1 2 2 1 2 3 4 5 7 10 10 11 9 13 14 14 12 13 14 13 13 14 13 13

GFSGL_925_spd_006.txt.gz
Wind_Speed
18 16 10 7 8 9 7 7 8 9 9 11 12 13 16 18 18 15 15 16 15 11 12 12 10 12 16 17 19 22 24 24 20 33 31 29 29 32 34 29 32 37 32
18 15 12 9 8 8 8 8 8 9 10 11 13 15 17 18 18 16 15 15 15 14 12 12 9 10 14 15 20 23 25 28 31 25 29 29 30 32 36 35 34 37 40
19 17 13 11 11 10 9 8 9 10 12 13 14 15 17 17 18 19 18 16 14 14 14 13 10 11 14 17 19 20 23 28 27 29 28 29 28 28 30 29 35 35 30
25 20 17 16 13 11 11 10 10 12 13 14 15 16 18 19 19 23 19 16 15 15 16 15 15 13 13 15 17 20 23 26 26 26 27 28 26 30 30 25 25 33 31
21 15 14 14 13 13 13 11 12 14 14 14 16 17 17 17 21 6 7 12 14 18 18 17 17 16 20 20 23 25 25 24 25 24 25 25 25 27 24 24 26 30 32
18 19 15 15 16 16 14 13 14 13 13 14 15 16 15 17 20 20 18 18 17 18 21 19 18 19 21 22 28 25 28 27 29 27 27 25 25 26 30 27 24 22 9
17 16 16 16 15 15 15 15 13 10 13 14 15 18 17 19 18 17 16 16 21 20 20 21 24 21 22 27 26 28 29 36 31 36 32 32 30 32 29 31 30 25 27
23 20 19 18 17 18 18 16 12 12 14 17 17 18 20 22 21 19 18 23 22 23 23 25 23 22 24 26 25 27 29 36 34 37 37 40 38 35 35 30 31 32 31
23 23 21 19 19 19 19 16 14 15 15 16 17 21 21 20 17 15 12 15 22 25 23 22 18 21 24 17 22 23 33 37 41 46 46 47 48 44 39 27 29 27 19
26 24 22 21 20 20 19 16 14 14 17 19 20 19 14 12 22 21 15 16 25 30 23 20 19 17 18 21 20 25 25 35 43 50 46 41 33 40 43 44 35 23 23
22 21 22 22 20 19 16 13 13 18 19 16 18 19 19 19 23 14 14 15 21 21 21 19 14 17 20 20 21 20 28 36 41 42 41 36 16 25 33 44 39 27 25
17 17 17 20 20 17 16 11 15 13 16 18 16 18 22 16 17 13 16 12 16 21 20 17 15 18 15 22 18 15 26 34 37 36 36 36 32 8 26 30 35 35 29
5 10 14 12 12 13 11 8 13 16 21 13 12 16 14 6 13 6 12 16 19 20 17 15 14 9 18 22 15 13 23 32 33 33 33 33 36 30 10 24 25 34 35
7 10 10 10 8 13 16 11 16 13 3 4 7 6 9 9 1 10 13 12 12 12 15 14 8 10 19 22 22 20 19 24 25 27 33 35 37 37 29 9 21 25 24
7 6 10 12 15 20 1 5 2 2 3 3 4 7 7 8 8 14 15 16 15 14 16 12 6 13 17 20 23 24 25 26 27 30 28 31 35 38 34 31 22 11 19
8 10 12 11 14 8 10 8 7 3 4 4 6 6 5 8 11 11 11 12 10 14 12 12 16 17 15 17 19 20 21 24 27 25 27 31 25 29 31 33 30 26 19
8 9 8 8 9 3 3 3 4 1 2 3 4 7 10 9 10 11 10 10 9 14 14 17 16 13 12 13 17 18 19 21 22 29 28 29 29 23 26 28 30 26 28
6 6 7 8 1 4 4 1 2 3 2 1 0 3 6 8 13 14 15 11 8 14 15 16 13 14 15 16 17 19 21 21 22 23 24 24 26 28 21 18 19 21 23
4 4 3 3 5 5 3 2 2 2 2 0 3 3 2 7 10 12 13 12 8 10 12 11 10 11 12 14 14 16 19 24 25 21 22 23 25 24 25 22 23 22 20
1 3 2 3 9 5 4 3 1 1 2 3 3 5 5 6 8 9 9 8 8 7 6 6 7 11 14 17 17 15 18 18 23 24 22 22 22 25 21 22 22 21 21
5 7 1 9 8 5 3 3 4 5 7 5 5 4 5 5 6 5 4 4 4 5 6 6 7 6 9 12 14 17 17 17 19 20 22 21 24 21 22 23 22 19 21
4 9 6 5 8 8 8 11 5 6 4 4 6 3 4 3 2 1 3 2 2 3 6 7 8 9 11 12 13 13 14 14 19 21 19 21 23 21 20 18 20 20 21
6 4 5 8 7 1 5 8 9 3 5 5 5 10 9 6 2 2 3 3 1 5 5 6 7 9 10 10 12 11 11 9 12 15 19 18 20 19 22 19 20 19 20
6 6 5 3 5 5 10 10 2 1 5 5 5 4 3 8 6 2 3 0 4 4 5 5 7 9 9 9 9 10 14 14 15 16 19 17 18 21 19 20 20 22 19
9 10 6 7 8 8 9 7 10 6 5 8 4 4 4 3 2 2 3 3 3 4 5 4 6 5 7 9 11 11 9 11 14 16 16 17 17 17 20 20 19 19 22
6 6 9 8 8 6 6 7 8 5 6 6 6 5 4 5 3 3 3 2 2 4 2 3 3 4 4 7 10 9 8 7 10 14 16 15 15 18 19 18 17 18 17

GFSGL_925_spd_009.txt.gz
Wind_Speed
28 25 18 19 17 13 12 8 7 7 6 7 8 10 11 13 14 15 13 12 13 11 12 12 9 11 12 13 13 14 15 14 10 25 28 33 32 32 36 36 36 36 37
28 26 20 19 14 16 15 11 10 9 8 9 10 11 12 15 15 15 17 16 14 14 15 13 12 13 13 14 14 17 18 19 18 21 27 31 33 31 33 34 37 38 39
31 27 25 20 19 18 15 12 11 10 11 11 11 12 14 15 15 18 18 16 16 16 18 16 15 15 18 17 16 19 23 23 25 22 26 29 30 34 31 32 33 38 36
34 32 28 26 23 20 17 15 14 14 12 12 12 14 14 15 16 18 19 17 16 16 17 18 19 19 20 21 21 25 27 26 27 24 23 28 28 31 28 25 28 30 36
38 37 35 29 25 22 19 17 17 16 16 15 14 13 13 15 14 13 12 9 11 14 16 19 22 22 18 20 24 29 29 27 24 21 25 27 27 26 24 26 28 29 31
37 37 35 31 28 23 21 21 21 18 17 15 14 12 13 14 15 15 17 16 13 15 18 19 19 20 21 23 24 26 31 30 28 20 26 26 32 29 30 28 25 25 9
39 37 34 33 29 27 26 23 21 21 18 15 14 12 15 16 14 15 13 16 17 20 18 19 20 23 22 22 23 26 27 27 29 32 30 34 34 34 34 33 29 27 25
37 31 30 29 28 28 27 24 22 20 18 15 17 17 16 16 16 14 14 18 21 20 18 16 19 22 20 21 21 21 25 25 31 32 33 38 39 42 40 38 34 31 31
32 31 30 28 29 28 25 22 21 20 19 18 17 16 17 19 16 14 14 17 18 19 18 17 19 20 18 13 18 20 24 26 31 37 38 46 48 49 44 38 32 27 16
30 35 30 29 27 25 23 24 24 23 23 20 18 13 9 11 12 11 8 13 18 17 17 17 21 17 11 13 17 19 16 24 32 39 44 46 49 39 40 31 37 23 21
34 30 28 27 26 27 27 27 26 24 22 17 13 14 16 13 9 11 10 12 12 13 18 24 22 16 15 13 18 12 14 22 28 38 38 42 44 35 29 20 37 37 23
26 24 24 26 28 30 30 25 25 22 10 13 20 14 14 8 4 6 4 6 9 14 18 20 14 14 10 16 15 13 15 21 28 30 34 40 42 40 37 17 31 37 37
17 17 20 24 27 27 23 18 9 3 3 24 21 11 6 3 1 3 3 9 10 10 10 8 9 3 12 16 16 16 18 23 25 25 28 35 44 39 34 7 19 30 33
32 14 14 14 7 6 7 10 6 5 8 10 2 7 5 7 4 3 8 8 9 10 10 7 5 6 13 16 18 20 21 23 22 23 26 31 36 41 37 36 16 17 26
17 16 15 14 18 18 10 7 8 9 3 2 5 5 6 4 4 7 8 8 6 9 10 13 11 12 17 19 20 22 23 26 28 29 28 31 33 34 37 38 32 25 14
21 23 18 8 10 8 11 8 7 6 5 4 5 3 5 5 5 6 8 8 3 7 12 12 11 12 15 16 16 17 20 24 26 27 28 28 28 26 30 34 31 28 21
14 9 3 6 8 15 17 18 19 11 8 7 9 10 9 9 8 9 9 3 5 12 14 12 11 10 10 11 14 14 18 21 23 24 27 29 28 29 32 31 27 28 31
4 4 8 3 12 17 18 15 15 16 12 9 7 7 8 7 7 8 12 13 17 14 12 10 10 9 9 10 11 15 17 20 24 26 22 23 29 26 25 25 26 22 20
5 3 8 13 17 16 15 14 12 13 11 14 9 5 4 3 7 8 7 14 13 11 10 10 10 11 12 13 13 14 16 19 21 21 21 24 25 25 25 23 26 29 23
4 2 6 11 16 15 12 12 9 6 6 13 10 4 2 2 6 9 10 9 9 6 6 8 8 8 11 13 14 14 15 18 21 22 22 25 27 22 22 22 21 20 23
13 9 14 17 18 13 10 7 5 8 9 16 10 5 7 6 5 4 5 4 3 4 7 5 7 7 8 9 12 10 10 14 18 21 24 26 26 25 22 21 20 21 24
12 7 11 14 12 10 8 8 10 8 18 17 13 10 8 5 2 2 0 2 2 8 8 7 10 11 9 9 12 11 10 13 18 21 23 25 24 25 24 25 22 22 23
8 8 7 7 11 9 6 5 10 9 9 13 17 13 12 8 4 4 5 0 6 7 5 4 3 4 5 6 10 13 14 15 17 18 20 22 24 24 26 22 26 24 23
11 9 9 8 6 6 4 4 2 8 7 5 17 14 14 11 11 5 6 5 8 7 4 2 4 5 3 6 8 11 13 14 16 15 16 19 20 22 25 25 24 27 23
10 11 13 13 14 14 9 7 3 3 8 6 9 9 13 15 14 9 9 7 4 6 7 5 4 6 7 8 8 8 9 10 14 15 16 15 17 21 22 23 24 24 27
12 11 9 6 6 10 8 6 2 3 9 10 8 9 10 8 9 10 8 6 9 8 8 5 3 1 4 10 9 8 5 6 10 12 14 14 16 19 19 18 22 22 24

GFSGL_925_spd_012.txt.gz
Wind_Speed
36 32 30 23 20 18 16 13 11 11 10 9 9 10 10 9 10 11 12 11 12 11 12 13 15 13 14 13 11 10 9 9 8 15 19 30 35 37 35 34 30 29 34
39 37 31 25 24 23 21 15 12 12 11 11 12 12 11 12 12 12 13 13 15 13 14 15 17 16 18 19 18 16 16 15 15 19 21 25 32 37 32 33 31 30 31
41 39 34 29 27 26 22 18 16 14 15 15 14 13 14 14 13 12 14 15 17 17 17 18 17 17 21 23 22 21 22 22 23 20 23 24 31 36 33 30 31 31 30
41 41 38 31 31 25 21 21 20 19 19 19 17 16 16 14 14 14 16 16 13 18 16 16 18 19 22 23 23 24 25 25 27 19 21 26 26 32 29 26 27 28 32
39 39 40 36 34 26 24 25 24 23 22 19 17 16 15 13 13 14 12 11 12 13 14 16 17 18 19 20 21 24 25 26 23 21 22 24 26 28 28 29 27 29 34
39 35 38 37 35 31 28 27 26 24 21 19 18 18 16 14 14 13 12 13 12 12 16 18 17 15 15 17 20 22 23 25 26 22 21 22 30 31 32 31 30 26 12
37 35 40 41 36 35 32 31 27 25 22 23 20 18 18 15 14 14 13 14 15 18 20 20 17 15 16 17 17 17 19 19 21 22 23 26 28 34 34 36 34 29 27
35 33 38 40 39 39 37 32 27 24 24 24 23 20 17 16 13 14 14 12 15 16 15 14 14 14 14 16 16 14 19 22 22 19 24 30 34 38 39 41 43 40 35
31 38 40 41 40 39 36 31 26 25 26 25 24 17 16 16 16 13 11 13 14 14 12 11 11 13 13 10 12 17 21 25 18 22 28 31 39 45 44 45 38 29 16
35 40 40 38 37 33 35 26 27 29 28 24 17 8 12 18 19 12 12 11 13 15 12 10 12 12 8 11 14 17 20 20 23 29 34 37 43 43 44 43 38 27 22
31 35 33 32 34 35 28 27 29 28 23 14 5 9 16 20 15 9 9 10 11 12 13 15 11 10 8 10 15 16 17 20 22 25 30 34 38 43 46 38 32 30 27
17 7 7 14 30 33 26 27 23 22 14 11 7 17 17 14 10 7 7 6 7 11 11 9 7 5 5 10 14 13 14 15 17 21 24 28 34 48 51 46 34 19 30
12 13 12 6 19 23 14 17 14 13 11 10 16 17 11 11 8 6 7 7 9 9 9 11 7 0 6 10 11 12 14 17 18 19 21 26 32 47 52 37 22 15 23
18 11 13 10 10 8 23 16 18 14 12 12 11 9 11 10 7 5 6 9 9 7 8 6 8 1 8 10 10 12 14 16 15 18 20 26 30 41 46 39 25 8 10
8 8 21 22 16 16 18 16 13 11 8 8 10 9 11 9 5 6 8 9 7 5 5 11 5 5 9 11 12 13 14 16 20 21 20 26 29 30 36 40 30 27 19
8 16 21 19 15 18 15 11 8 11 11 9 7 4 5 3 1 6 9 9 6 3 9 5 3 6 9 11 14 14 15 17 21 21 21 23 24 26 29 32 34 27 24
17 21 21 11 9 12 13 16 19 12 12 12 11 8 6 3 4 8 7 5 8 11 8 5 3 6 7 8 11 14 17 17 17 20 23 24 24 22 25 26 32 31 27
3 4 8 8 6 11 13 12 12 13 13 11 10 9 5 2 3 3 5 11 11 7 5 5 6 7 8 10 11 13 15 17 18 19 20 21 24 24 26 25 26 25 25
4 2 3 7 12 15 13 12 12 12 13 14 12 9 5 4 2 1 2 5 6 7 8 7 7 7 9 10 10 11 13 15 17 20 21 22 23 22 21 22 24 28 25
6 8 7 16 18 18 20 20 21 20 20 19 16 12 10 9 6 4 4 5 5 7 6 5 5 5 6 9 11 9 9 13 17 20 21 23 23 23 22 22 23 21 21
11 12 17 22 22 21 19 18 17 18 20 18 14 11 10 8 7 6 4 4 3 5 4 3 3 2 4 9 9 7 8 12 16 19 21 22 23 24 24 22 21 21 21
15 17 20 23 19 15 12 12 14 15 16 21 17 14 12 9 8 8 5 3 2 11 8 4 3 3 5 7 9 10 11 14 16 18 21 22 23 24 25 25 23 23 23
16 17 20 21 18 14 12 10 9 12 19 24 22 19 17 11 8 10 9 3 12 10 5 2 2 2 3 5 7 10 12 14 14 16 18 19 20 22 23 25 25 24 24
12 15 15 14 15 14 11 9 3 8 19 22 21 21 19 14 11 10 10 11 12 9 6 3 5 5 4 5 6 8 11 13 12 12 14 16 17 19 21 23 25 25 24
13 15 14 14 14 14 13 9 8 11 12 17 20 21 20 17 15 14 14 16 11 9 6 3 3 5 6 5 5 4 6 9 9 10 11 12 15 17 19 21 23 25 26
2 10 8 16 17 18 16 13 12 9 14 12 20 20 22 21 19 16 17 15 13 10 10 6 4 5 6 8 8 5 1 4 6 9 10 11 14 15 18 18 20 23 24

GFSGL_925_spd_015.txt.gz
Wind_Speed
44 40 33 27 23 22 21 19 19 18 17 16 14 13 12 11 10 12 13 13 12 14 15 15 16 17 16 18 17 16 16 15 8 13 21 27 30 30 33 34 34 35 35
46 42 36 30 26 25 23 21 20 20 18 17 15 14 13 12 11 13 13 13 14 16 17 16 18 18 20 20 22 22 22 22 19 17 23 24 30 32 34 35 38 37 38
45 47 40 35 33 31 26 23 23 21 20 19 17 14 12 12 13 13 14 15 16 17 20 22 22 19 19 21 24 26 26 26 26 21 20 22 23 31 32 36 35 37 38
43 49 47 42 40 35 30 29 28 24 21 19 16 14 13 15 16 15 14 16 17 14 15 15 19 21 21 22 24 26 27 28 28 24 21 24 23 29 28 31 28 28 32
44 43 46 45 40 36 32 32 31 26 22 18 18 17 16 18 18 14 13 14 14 16 17 18 20 20 21 20 21 24 24 26 26 20 19 22 24 23 21 24 30 32 33
39 33 13 17 25 20 26 31 32 27 22 19 24 23 19 18 16 13 13 14 16 17 19 20 22 21 20 17 19 22 23 24 25 22 21 21 25 26 26 23 28 29 16
25 24 25 29 27 47 40 40 33 32 28 24 25 25 20 18 16 14 14 15 18 19 18 20 21 18 16 18 19 18 19 20 21 23 24 27 24 30 29 31 30 32 36
27 30 38 40 42 40 38 41 35 32 28 25 29 23 20 19 16 15 16 15 18 17 17 15 15 17 16 17 17 16 16 19 23 23 25 26 28 35 35 35 37 41 40
32 38 42 43 47 35 30 34 36 28 24 29 24 22 21 17 12 17 15 14 15 17 15 13 14 14 16 15 12 14 20 23 25 27 24 27 30 34 39 36 36 34 21
22 27 32 32 28 31 32 33 34 27 30 28 21 21 19 13 19 17 16 15 15 16 14 10 11 13 14 12 12 13 18 24 25 29 28 27 28 31 39 33 40 33 29
18 19 21 11 13 10 5 9 16 24 26 26 23 20 19 14 17 15 14 12 14 14 14 13 13 11 8 9 11 12 16 19 24 25 25 27 27 33 37 39 45 45 36
20 18 13 10 10 8 4 2 9 29 34 17 12 15 17 16 16 13 13 10 10 10 12 12 9 7 4 7 11 12 13 16 20 21 20 22 24 31 40 47 53 47 31
19 16 13 12 9 7 7 12 18 18 31 21 19 20 14 11 9 10 9 8 9 9 11 11 10 5 4 8 9 12 13 15 18 21 19 23 26 30 40 43 53 43 17
18 14 11 12 8 4 9 15 17 21 27 23 17 15 12 10 11 8 6 7 9 9 11 10 5 3 6 8 11 11 12 13 16 20 23 26 28 30 32 40 42 37 23
20 12 9 12 7 5 4 8 12 18 22 14 13 12 13 12 7 5 7 9 9 7 6 4 6 4 8 10 11 10 11 13 17 20 24 26 28 27 29 35 36 34 23
13 10 9 7 3 6 8 6 7 10 9 7 8 7 8 6 3 5 9 10 9 5 6 5 2 4 7 9 10 12 13 16 18 20 22 22 26 26 26 30 31 31 29
8 7 11 9 8 10 11 11 10 9 8 10 8 8 6 6 3 3 5 3 4 7 6 4 1 3 4 5 8 10 13 16 17 18 20 22 24 27 24 24 25 26 29
10 11 13 13 13 16 18 20 19 20 18 14 11 8 7 5 4 2 4 3 5 4 3 2 2 2 3 6 8 10 12 14 16 17 19 21 23 23 22 22 21 18 19
17 16 14 11 13 17 20 21 18 17 16 16 14 9 5 2 1 2 3 5 4 3 4 5 3 1 3 7 9 9 9 11 13 16 18 20 21 22 23 22 23 22 20
12 8 8 11 15 17 17 17 18 17 16 14 12 8 6 3 3 3 2 2 3 4 4 2 1 1 4 8 9 6 6 9 13 16 18 19 21 21 21 22 22 22 20
7 13 14 19 18 17 17 17 17 18 16 13 11 9 8 7 6 5 4 4 4 5 4 3 4 3 4 7 6 3 5 8 12 15 18 19 20 22 22 21 21 21 21
9 10 14 15 15 17 16 14 16 16 16 17 16 14 11 9 7 7 8 5 4 5 6 4 3 3 3 3 4 5 7 8 11 14 16 18 18 20 21 22 24 23 22
10 11 13 16 17 17 15 16 18 18 18 19 20 18 18 13 9 10 10 6 6 9 7 3 2 2 0 3 4 6 7 8 10 12 14 15 16 17 20 21 23 23 23
11 13 14 15 17 17 16 15 14 13 18 18 19 21 19 16 13 11 14 10 12 10 6 2 1 0 2 3 4 4 7 8 9 9 10 12 13 14 17 19 21 21 20
10 11 14 16 18 16 16 15 13 11 14 16 19 23 23 21 17 14 16 14 15 11 8 4 1 2 2 2 2 2 3 5 7 7 8 9 10 12 15 17 19 22 22
5 2 11 14 15 18 18 19 20 19 18 18 20 22 25 25 22 19 19 18 17 14 11 7 4 4 4 3 3 1 1 1 2 5 6 9 10 11 14 16 18 21 23

GFSGL_925_spd_021.txt.gz
Wind_Speed
36 34 30 26 24 25 22 20 16 16 15 16 16 17 16 15 14 13 12 11 11 11 10 11 13 12 12 13 12 13 14 14 16 23 19 17 18 18 17 18 20 20 21
36 32 31 26 30 28 20 17 17 13 13 16 18 19 18 15 13 13 12 12 13 13 11 11 13 12 15 16 16 16 16 16 19 21 25 21 20 19 20 22 23 22 22
28 27 25 31 32 34 33 25 14 8 8 17 19 21 21 16 16 17 17 15 16 15 11 11 13 13 15 17 16 15 17 17 18 19 24 22 21 20 21 23 23 25 25
27 25 24 28 36 40 35 30 26 13 25 26 26 27 25 22 21 21 19 17 18 15 13 14 15 14 14 15 13 16 17 18 18 16 18 21 20 19 19 24 24 24 28
25 24 25 28 37 39 41 41 40 21 34 33 27 29 27 25 23 23 20 18 16 15 13 14 15 17 17 15 14 16 16 17 18 19 20 21 21 20 21 25 26 28 29
24 25 27 31 38 40 40 38 46 34 41 39 34 32 30 28 24 26 24 18 16 16 15 16 15 18 19 17 17 18 17 17 20 20 20 20 21 24 24 25 28 28 21
24 24 28 31 35 39 36 33 35 40 35 30 34 32 27 28 27 29 25 20 16 17 15 17 18 14 16 14 17 18 17 17 18 16 16 19 23 26 25 26 27 25 27
22 23 25 28 29 30 33 37 36 31 27 27 26 24 24 26 31 29 25 21 20 18 17 19 16 15 12 13 15 14 13 12 12 12 15 19 21 24 25 24 28 29 29
20 22 25 27 29 30 33 33 31 25 25 25 23 20 19 20 21 20 10 18 26 24 21 16 15 15 14 14 12 13 14 13 12 17 20 22 24 24 25 24 23 24 25
20 22 24 25 27 29 30 29 25 22 22 22 22 19 23 26 24 22 22 20 23 26 23 19 14 13 14 14 11 9 11 11 13 17 19 20 20 20 22 18 20 22 28
22 22 22 23 24 23 23 24 22 19 20 19 23 25 22 18 22 21 19 26 28 27 23 14 9 10 12 11 10 7 9 12 15 16 19 18 18 17 17 18 20 23 28
18 23 20 18 20 20 22 20 19 18 20 21 18 15 10 10 13 16 17 21 20 19 16 9 6 9 9 10 8 9 12 14 14 15 16 16 17 20 21 23 25 26 28
17 15 17 19 20 22 23 20 19 20 18 14 13 10 8 9 10 13 14 13 15 13 10 7 9 9 10 7 8 10 11 10 12 14 15 16 17 20 22 24 26 26 29
11 12 14 15 14 12 11 11 11 11 12 10 9 10 8 8 7 7 8 9 11 8 7 5 7 6 7 5 5 7 7 8 10 13 14 16 17 19 22 23 26 27 28
10 11 12 11 11 12 11 8 6 7 9 7 8 8 8 9 9 10 8 6 5 5 4 4 4 5 5 5 6 6 6 7 9 11 13 16 18 20 21 23 23 25 22
12 11 9 9 10 10 10 8 7 7 6 6 6 7 4 5 8 7 4 5 6 6 4 6 6 5 5 5 5 6 6 7 8 11 12 15 18 20 21 23 21 23 20
11 10 10 9 10 10 9 9 9 9 9 11 11 10 9 10 8 6 3 2 3 5 7 6 5 5 5 4 4 5 7 8 8 10 12 14 17 18 20 20 20 21 22
8 8 7 8 9 9 8 9 10 13 12 11 12 13 10 9 6 4 3 3 1 2 4 5 5 5 4 3 4 6 7 7 7 9 10 12 15 17 18 19 18 19 21
5 5 6 7 7 8 9 10 10 11 13 13 12 10 10 8 5 3 1 2 4 5 4 4 4 4 3 3 4 6 6 5 6 8 9 11 14 16 18 19 18 18 19
3 5 6 7 8 8 9 11 11 10 11 12 12 11 11 9 6 5 3 2 2 3 4 4 4 2 2 3 5 5 4 4 4 6 8 11 13 14 17 19 18 19 19
5 6 8 7 7 7 8 9 10 12 13 12 11 12 15 11 8 6 5 4 4 4 5 4 3 3 3 3 3 1 2 3 4 6 8 10 12 14 16 17 17 16 17
6 6 7 6 7 8 10 10 11 11 10 11 11 11 15 9 6 6 5 4 4 4 3 4 2 2 3 2 1 0 1 3 5 6 8 10 11 13 14 16 17 16 16
6 7 7 6 7 9 9 9 11 10 11 12 11 11 13 12 9 7 5 4 4 4 4 4 3 2 2 3 2 1 2 3 4 5 7 9 10 12 13 14 15 15 16
4 4 5 6 8 9 9 11 12 12 12 12 10 9 10 10 10 9 7 6 5 5 6 4 3 3 3 4 3 2 1 2 3 5 6 8 9 11 11 12 13 15 14
3 3 4 5 7 8 10 12 12 12 13 13 10 8 8 9 9 9 9 8 7 7 7 5 3 4 4 5 5 4 4 2 3 4 5 6 7 8 10 11 12 13 15
4 3 3 4 5 6 8 10 12 14 14 11 10 10 10 9 9 11 11 11 10 9 9 7 5 5 5 4 4 5 5 4 2 3 3 4 5 7 8 9 11 11 13

GFSGL_925_spd_024.txt.gz
Wind_Speed
34 34 30 28 26 25 25 23 22 17 18 20 17 11 13 14 14 14 13 12 12 10 11 11 12 13 13 13 10 13 14 14 16 18 18 18 15 17 18 18 19 20 22
35 33 32 30 29 30 28 27 22 21 19 21 18 16 21 18 16 16 15 13 13 12 11 12 13 14 14 13 15 15 16 16 19 20 23 23 21 19 19 20 22 24 24
29 31 31 31 31 31 33 26 27 24 23 24 21 22 20 18 20 21 17 15 14 16 14 14 14 14 15 15 12 15 16 14 17 18 22 24 24 23 22 19 20 24 24
30 30 29 30 32 35 32 31 31 28 30 32 25 22 26 23 23 21 18 17 17 17 16 16 15 15 16 15 14 14 16 17 19 21 20 20 22 25 21 18 22 24 26
27 27 28 28 28 29 32 33 37 35 36 29 20 19 20 22 22 21 19 18 18 17 17 16 16 16 17 17 15 17 16 19 21 22 24 22 23 19 19 24 26 25 28
25 27 25 26 26 31 33 34 33 35 39 25 18 17 22 22 23 24 21 19 18 18 16 17 16 16 18 18 19 20 19 18 19 20 22 21 20 22 23 22 24 26 22
26 24 24 26 26 28 30 31 31 33 28 21 17 18 21 22 23 25 24 22 19 17 13 13 17 19 18 15 15 18 18 17 18 16 19 21 21 22 23 21 23 26 29
24 25 24 24 25 25 28 31 33 33 32 26 21 18 20 22 25 27 27 21 21 17 15 13 17 24 24 19 13 16 17 16 16 17 18 19 20 21 22 24 25 27 28
22 22 23 22 21 22 25 27 28 28 28 25 23 21 20 24 24 26 27 23 20 24 22 20 19 21 18 19 14 15 16 17 17 17 16 20 24 23 21 19 20 20 22
22 21 19 18 17 18 19 21 23 25 25 25 24 20 19 21 23 25 22 20 20 23 22 21 19 20 21 22 15 14 15 16 15 17 19 21 20 20 20 20 19 21 24
18 16 16 17 19 19 19 19 19 20 19 19 20 18 18 21 22 20 22 19 17 17 18 18 17 19 18 21 17 13 13 12 14 18 21 20 18 17 17 15 17 23 26
18 17 15 12 10 13 13 15 17 17 17 18 18 17 17 17 20 20 19 16 17 13 11 10 8 13 15 15 12 13 14 14 15 18 18 18 17 18 19 20 22 23 25
17 15 14 14 12 8 11 12 14 16 15 15 12 10 12 12 12 15 11 13 14 12 8 10 11 11 13 12 12 12 11 12 14 15 16 16 16 19 22 23 22 22 24
14 12 13 13 14 9 8 11 10 10 12 12 9 9 9 10 8 6 9 12 13 12 9 8 9 11 11 10 7 10 10 11 11 13 14 16 17 19 22 22 23 23 22
15 15 14 15 15 13 10 6 3 4 5 9 8 8 11 10 10 10 11 10 9 9 10 9 9 10 11 11 10 10 9 9 10 11 13 15 17 19 20 20 21 20 19
16 14 14 14 13 12 12 8 7 5 9 6 6 6 7 6 11 13 12 9 8 7 7 11 12 11 11 10 9 9 9 8 9 11 13 14 16 18 18 20 18 19 20
13 14 13 11 11 11 10 10 10 7 6 6 7 9 9 12 11 9 6 4 5 6 9 12 10 10 9 8 8 9 9 9 9 11 12 13 14 15 17 18 18 18 21
13 11 9 8 10 10 10 9 7 8 9 9 9 12 11 10 9 7 5 2 4 6 9 9 8 7 7 7 8 8 8 9 9 10 11 11 12 13 15 17 17 18 21
11 10 10 11 12 11 12 11 11 11 11 13 13 11 11 10 8 5 3 5 6 7 6 7 7 7 6 6 7 8 8 8 8 9 9 9 11 13 14 16 17 15 17
7 11 10 11 11 11 11 12 11 12 13 13 14 14 14 11 8 7 4 2 4 5 4 6 4 4 5 6 8 8 7 6 6 6 6 8 10 12 14 16 17 17 17
12 12 9 10 11 10 10 11 11 11 12 12 11 11 13 10 7 6 5 3 3 3 3 5 4 5 6 6 7 6 4 4 4 5 7 8 10 12 13 14 16 16 15
9 11 11 9 8 8 9 9 11 11 12 11 11 11 15 11 6 6 6 5 3 3 4 5 6 5 5 6 5 4 2 2 3 5 7 8 9 11 12 13 14 15 15
8 7 6 5 6 5 9 10 10 11 12 12 10 13 14 13 10 8 8 6 5 4 4 5 5 6 5 5 4 3 2 2 3 5 7 8 9 10 11 12 13 15 15
4 5 6 6 8 9 10 9 10 9 11 13 13 10 13 14 12 9 9 9 8 6 6 6 6 6 5 5 5 4 2 2 3 5 6 7 9 10 10 10 11 12 13
3 4 6 7 8 10 8 10 12 13 14 14 13 16 13 9 9 9 9 10 10 8 7 7 7 6 7 7 6 5 7 5 3 4 6 7 7 8 8 9 10 10 12
1 3 5 5 6 7 8 9 9 15 15 15 18 15 11 10 10 9 9 10 11 10 8 8 8 7 7 7 7 8 7 5 4 3 3 6 6 7 8 8 8 9 9

GFSGL_925_spd_027.txt.gz
Wind_Speed
33 34 33 32 30 28 27 26 24 21 21 22 24 24 24 22 19 19 18 12 12 11 10 9 9 9 10 12 10 9 9 13 13 17 15 15 15 17 19 19 18 19 20
34 34 34 33 33 32 31 29 28 26 27 28 26 25 24 21 20 21 16 13 14 13 11 12 12 11 11 13 12 14 14 14 16 15 18 19 17 17 17 19 21 20 22
35 34 33 34 35 36 34 31 30 31 31 30 29 28 27 25 24 23 19 17 15 14 13 14 14 12 13 13 11 15 15 14 16 18 18 20 21 17 18 19 20 23 23
35 34 34 34 35 34 33 33 34 34 34 34 33 30 24 25 21 21 19 17 17 16 15 14 15 13 14 14 16 15 17 17 16 18 23 19 17 20 17 16 21 22 25
33 33 32 33 32 30 29 30 29 32 31 30 29 25 21 22 22 23 20 18 18 17 17 14 17 17 15 14 15 19 17 17 19 20 20 21 22 15 19 19 21 22 20
32 32 30 31 31 29 28 28 29 25 24 25 25 23 20 21 22 24 21 18 20 19 19 16 17 12 9 10 15 20 26 24 19 17 18 20 21 20 20 20 21 23 19
27 29 29 28 28 27 26 28 29 29 30 32 28 24 20 20 20 23 24 21 20 20 21 17 17 17 16 16 14 19 26 25 22 18 17 20 20 19 18 21 21 21 25
28 26 25 26 25 25 26 28 28 27 29 27 25 23 21 19 19 21 20 24 22 21 20 18 19 19 15 15 15 16 18 24 23 20 19 21 20 19 18 21 24 26 28
26 25 26 27 26 24 25 27 27 24 23 26 25 21 20 18 16 18 23 22 22 22 21 23 20 23 21 18 15 17 19 23 21 22 22 21 20 23 22 18 20 20 19
26 27 26 25 24 24 23 21 20 20 20 20 22 21 20 20 19 20 24 23 22 22 20 21 23 25 24 22 21 17 16 20 18 19 15 18 23 25 23 26 25 20 22
25 25 24 22 21 19 18 18 18 20 19 19 19 19 23 22 20 19 23 20 20 19 19 19 22 24 22 22 20 15 15 15 15 17 20 23 21 20 20 16 16 18 23
23 21 21 20 17 15 16 15 14 15 15 15 15 14 17 15 15 18 21 21 16 15 15 16 16 15 14 14 13 14 16 17 15 18 21 20 19 19 18 16 20 25 26
22 20 19 18 15 15 16 16 14 13 12 12 10 10 9 8 7 12 13 15 22 17 13 17 14 8 11 10 12 14 14 13 16 19 17 17 18 17 19 21 21 22 23
22 19 18 17 17 16 14 15 12 12 11 10 9 7 8 10 9 7 10 13 18 15 17 8 5 6 7 7 5 10 12 12 14 14 17 16 17 18 19 20 22 23 23
18 17 17 15 13 13 13 10 7 6 5 5 7 8 8 9 11 11 10 11 11 12 12 11 8 10 12 13 12 11 14 14 14 13 15 15 18 17 18 19 20 22 21
20 17 16 16 16 16 17 13 12 6 8 8 8 10 10 7 14 14 12 10 8 9 8 12 14 13 11 6 8 12 13 10 11 12 13 16 16 17 18 18 19 19 20
17 16 15 15 15 14 13 12 11 8 7 5 5 6 8 11 11 10 11 8 7 7 9 13 14 11 4 4 8 10 11 11 7 12 13 14 15 16 16 17 17 18 18
19 20 17 14 11 10 10 10 12 11 10 8 8 10 10 11 11 10 8 6 6 9 7 9 11 9 8 7 9 10 10 10 11 11 12 13 13 14 15 15 16 17 18
17 13 12 13 10 11 10 10 10 10 9 11 10 11 13 12 10 8 6 6 7 7 9 7 7 8 8 6 7 7 8 10 9 10 10 11 12 13 15 14 16 16 19
10 11 10 12 12 10 10 10 9 10 12 12 12 12 12 10 7 7 5 4 5 5 6 5 6 5 5 5 7 8 9 9 7 8 8 9 11 12 14 15 15 17 16
9 12 8 11 11 12 10 10 10 11 12 15 16 19 17 12 10 8 5 6 5 4 3 5 5 4 5 6 6 7 7 6 5 6 8 9 10 12 13 14 14 15 16
14 13 12 13 12 11 9 9 9 11 10 10 19 22 19 11 9 7 6 5 5 3 5 4 5 5 4 5 6 6 5 5 4 5 7 9 10 11 12 13 13 14 16
3 10 6 7 11 6 9 10 5 3 3 8 22 17 13 13 10 7 6 6 5 5 4 4 5 6 5 5 5 4 5 3 3 5 7 9 10 10 12 12 13 13 15
2 5 9 5 2 3 3 2 4 10 9 11 17 17 11 12 11 6 6 7 6 6 5 5 6 6 4 5 5 5 6 3 2 5 6 8 10 11 11 12 12 12 13
6 3 4 9 6 7 7 9 13 7 5 7 12 11 15 9 9 11 11 10 8 7 8 7 7 7 7 8 7 5 5 8 6 5 6 8 8 9 10 11 11 11 11
1 5 6 7 6 5 7 2 4 10 13 13 12 16 13 14 17 14 13 11 9 9 8 8 8 8 7 8 9 11 11 8 6 5 5 6 8 7 8 10 9 10 9

GFSGL_925_spd_030.txt.gz
Wind_Speed
38 38 36 35 34 34 30 32 31 31 26 27 27 26 26 24 23 25 20 18 19 16 15 12 8 8 9 9 8 5 7 10 7 17 17 16 19 19 16 17 18 21 22
39 37 38 35 35 34 36 31 32 33 27 28 29 28 30 26 26 26 24 19 21 20 17 14 11 10 12 12 10 9 10 14 12 14 18 16 19 16 19 17 18 17 19
37 37 35 36 36 36 36 37 32 32 30 33 34 33 31 30 29 29 27 23 22 21 18 17 14 13 13 14 10 10 11 13 12 13 16 17 23 22 23 16 16 16 22
38 38 37 37 37 38 35 34 34 34 34 36 34 33 31 31 29 27 25 24 23 20 20 18 18 17 16 15 13 14 13 13 14 19 21 21 18 16 8 12 18 19 20
39 39 37 37 37 34 33 32 33 32 33 32 30 29 30 30 28 29 27 27 26 23 21 21 19 19 18 16 15 13 13 13 14 13 19 21 20 19 19 21 19 20 16
40 39 38 35 35 34 32 31 33 31 29 29 29 29 28 26 25 28 28 25 25 24 22 20 20 14 19 20 16 15 16 15 16 16 13 17 22 22 18 20 19 19 15
35 38 36 36 36 35 32 32 30 29 27 27 25 25 26 25 24 26 29 27 26 24 24 22 20 18 16 20 17 17 15 18 20 18 17 21 23 25 20 21 18 18 21
31 34 35 34 34 33 32 29 27 27 27 25 25 26 24 23 24 21 29 31 26 24 25 24 23 21 23 25 22 18 18 18 18 18 21 23 22 26 21 20 24 25 25
30 28 31 33 31 31 29 27 25 22 25 24 24 23 24 21 22 21 25 29 29 29 25 22 22 23 25 25 21 19 19 20 19 21 22 25 28 21 22 25 26 17 19
27 27 26 28 28 26 24 19 18 20 19 22 22 23 24 22 19 22 25 26 29 27 24 23 25 26 25 25 22 18 14 16 14 15 16 13 18 25 25 27 32 23 21
24 25 26 25 24 21 20 17 14 15 14 17 21 22 20 21 24 23 24 24 25 21 21 20 18 18 21 25 22 18 15 13 14 15 16 18 20 23 25 22 19 19 19
25 25 25 23 20 18 23 23 26 23 17 15 15 15 19 22 23 21 22 23 21 15 11 12 15 15 16 17 18 16 15 13 14 14 17 18 20 14 12 16 21 23 23
26 25 25 24 18 23 21 15 13 20 22 21 19 17 18 16 13 18 17 18 18 15 14 13 12 11 12 10 12 12 11 11 11 15 16 15 16 17 19 20 18 19 20
26 24 25 24 24 23 21 19 15 15 14 16 15 12 10 9 11 11 13 15 16 19 18 12 9 7 7 7 11 12 12 11 12 12 15 15 15 14 17 16 18 19 23
25 24 23 25 21 21 16 12 12 12 10 12 13 11 13 15 16 14 11 9 9 11 8 10 13 11 11 16 14 14 14 13 15 15 10 11 13 17 15 17 18 23 21
23 22 22 22 23 24 23 19 15 13 10 9 12 12 11 9 11 9 8 7 8 9 10 12 14 16 20 18 16 15 13 16 16 10 4 9 14 14 17 17 19 16 19
25 25 23 23 23 25 20 16 16 14 10 8 11 12 8 9 10 11 10 9 7 7 5 8 11 15 8 6 6 8 9 8 2 3 7 9 12 15 14 15 18 16 15
20 20 23 24 24 20 22 21 19 17 14 8 10 11 10 12 12 10 8 7 4 7 9 11 10 4 3 5 2 3 5 6 8 9 9 10 14 12 13 16 15 16 17
18 16 14 17 18 17 20 22 23 20 19 13 12 12 13 14 12 10 8 5 7 5 8 6 6 5 5 7 5 4 4 5 7 10 10 11 10 12 14 16 16 17 19
8 12 17 14 14 14 13 13 14 19 24 19 14 13 13 13 9 7 5 4 2 3 4 6 6 4 4 4 4 4 5 7 9 7 7 8 9 11 14 15 17 17 18
9 7 6 19 11 12 12 9 10 15 17 21 19 22 20 17 12 14 15 11 5 1 3 1 4 3 2 3 4 4 6 7 5 3 6 9 10 13 13 14 18 15 17
15 15 12 11 17 12 6 7 5 7 11 13 18 26 18 16 11 6 8 7 6 6 3 1 2 5 1 2 2 4 5 3 3 4 6 8 10 13 11 16 15 14 15
11 8 13 15 14 9 4 3 3 12 12 16 21 23 24 14 9 8 8 7 7 6 4 3 2 3 1 2 3 4 4 5 4 4 5 7 10 11 12 15 14 15 14
11 11 9 9 5 5 6 13 11 8 17 17 21 20 19 15 11 8 9 6 7 7 6 5 3 3 1 3 3 4 6 6 4 2 5 4 12 11 12 14 11 16 11
8 9 7 14 14 15 10 12 6 11 7 9 18 19 16 13 13 9 7 7 9 10 9 8 6 6 6 6 5 6 6 6 6 8 5 6 6 12 8 12 12 17 10
14 14 14 10 10 7 4 5 5 7 8 8 13 13 15 16 17 14 12 14 13 12 12 10 10 9 7 6 8 10 7 8 9 7 6 4 6 11 7 11 10 13 12

GFSGL_925_spd_033.txt.gz
Wind_Speed
43 41 38 36 41 40 40 34 31 31 24 25 38 37 33 29 28 28 26 22 24 22 20 18 16 17 14 11 5 3 4 5 6 11 13 12 8 13 13 13 16 18 19
44 41 40 37 35 37 38 39 40 36 33 30 35 37 35 33 31 31 29 26 26 26 24 21 18 16 15 13 11 8 7 6 7 10 13 14 15 15 17 22 18 18 16
42 40 37 36 36 37 39 36 42 42 41 35 37 39 38 36 35 34 33 30 27 29 27 25 22 18 18 16 15 13 11 11 9 8 10 12 14 14 16 15 9 10 14
42 41 39 38 38 39 36 39 38 42 42 41 41 41 40 38 36 36 33 33 31 27 27 28 25 23 22 20 19 17 17 15 12 11 13 14 14 12 8 9 20 19 17
41 41 40 39 38 37 36 36 42 39 43 44 41 40 38 37 37 35 35 32 32 30 28 31 27 24 23 23 22 20 17 17 15 14 17 18 18 16 12 13 12 16 18
40 41 39 39 37 37 37 36 38 38 37 36 39 39 36 33 29 33 35 33 32 31 31 29 28 25 26 25 24 22 20 20 17 15 18 19 21 17 15 15 12 14 5
41 37 39 38 38 38 37 36 34 35 32 34 34 33 32 31 31 33 34 31 31 32 33 33 27 29 26 27 25 21 20 19 17 17 19 21 19 19 20 20 20 20 19
38 38 38 38 37 36 35 34 31 32 31 30 29 32 31 29 29 29 29 32 32 32 34 31 31 30 29 26 23 21 22 20 17 18 20 22 21 23 21 22 24 22 26
34 38 39 39 37 35 35 32 30 28 27 28 30 27 28 29 31 30 26 30 34 32 29 28 29 30 26 22 23 23 21 21 16 18 19 19 17 19 20 21 23 23 16
36 38 38 37 36 34 33 31 30 32 29 27 28 28 27 28 26 28 30 27 34 32 31 30 27 22 20 22 25 23 19 19 15 14 14 13 13 18 22 22 26 22 17
32 30 33 35 34 34 34 33 34 29 30 33 33 31 34 29 27 22 25 25 24 26 30 28 25 24 23 23 22 18 16 14 14 14 15 17 17 16 19 15 7 9 15
27 28 30 33 32 34 35 32 31 30 25 21 19 16 21 23 21 21 21 22 24 27 26 22 21 19 17 16 15 14 16 12 13 15 15 15 13 10 10 12 12 12 13
33 31 31 30 30 34 33 30 27 24 23 19 15 12 14 16 18 18 19 20 24 25 18 16 14 13 9 11 12 13 11 11 12 11 11 10 10 14 9 13 13 13 15
32 30 31 31 29 29 28 27 25 22 21 22 20 17 14 13 13 15 17 19 19 19 18 14 9 5 5 7 10 12 13 13 11 12 12 12 10 6 12 12 14 17 20
30 27 28 30 32 32 27 22 22 19 20 21 23 19 15 15 18 16 15 14 14 14 13 9 8 7 10 11 12 14 15 12 14 14 14 11 4 8 10 15 16 18 21
29 26 26 29 29 31 30 26 21 22 21 16 13 15 16 14 17 12 10 9 8 10 12 10 11 14 14 16 20 20 17 16 17 15 8 5 8 8 12 16 15 17 19
26 23 25 25 20 22 21 24 25 19 10 14 12 11 13 18 15 13 12 10 10 11 9 9 12 12 11 9 12 14 14 13 8 5 4 4 4 9 15 12 16 19 17
25 34 23 22 22 20 22 18 23 24 16 14 16 13 13 15 14 13 13 11 10 9 9 8 8 4 9 7 7 11 11 9 5 2 6 8 8 11 10 13 17 16 20
25 22 26 24 23 24 24 24 22 20 20 18 16 14 14 15 14 13 12 10 6 4 9 3 14 16 16 14 12 9 5 3 4 6 5 7 9 7 10 14 15 18 22
18 20 23 28 28 26 25 25 22 22 22 22 21 21 21 18 16 15 12 9 5 11 12 13 11 9 7 7 5 3 2 2 5 8 4 3 6 8 11 14 14 21 18
13 18 21 23 24 25 26 25 25 25 25 25 27 27 24 23 20 16 16 16 11 9 11 8 6 4 2 0 1 1 0 5 6 5 5 5 7 11 12 12 16 19 13
8 10 14 19 17 16 15 8 31 28 25 25 23 24 23 22 19 18 18 19 18 14 11 10 6 3 7 7 6 3 1 5 6 5 3 2 4 12 12 14 18 16 18
18 17 12 15 11 14 14 15 15 22 25 26 26 27 27 23 17 18 23 24 19 15 14 12 10 8 5 3 3 3 2 5 5 3 1 3 5 10 13 15 18 15 20
9 15 19 11 15 11 10 11 14 8 17 25 28 28 29 23 14 17 18 17 16 18 18 16 11 10 10 8 6 7 6 6 4 5 5 6 5 8 14 12 14 17 22
23 20 21 16 11 13 12 10 12 12 19 20 20 25 29 23 17 20 19 18 14 17 19 15 14 13 12 11 8 9 9 8 7 7 9 7 7 7 7 10 12 16 14
18 22 18 14 11 11 12 13 12 16 20 23 24 25 26 24 20 20 25 19 13 18 22 20 18 17 15 13 10 10 8 6 7 9 6 6 5 5 6 9 12 16 13

GFSGL_925_spd_036.txt.gz
Wind_Speed
41 40 39 40 43 46 43 39 36 34 36 35 37 38 36 35 32 28 26 22 21 20 20 19 16 14 13 10 8 7 8 8 6 6 7 6 6 9 13 12 13 16 18
44 42 41 39 41 43 44 45 41 38 36 37 37 42 40 39 36 33 30 27 25 25 22 22 21 18 20 18 15 13 12 11 9 9 11 11 10 10 13 15 17 14 14
42 43 39 38 40 42 44 43 46 45 39 39 36 39 43 42 39 36 34 32 30 28 27 27 24 22 21 20 19 19 15 12 12 11 9 13 15 16 17 13 10 6 11
41 41 41 41 42 43 43 43 44 46 45 42 41 39 39 42 42 39 36 34 32 31 30 30 29 28 26 23 22 21 17 15 14 15 14 15 15 17 14 13 16 17 16
40 41 43 42 42 41 39 41 42 43 42 46 43 39 39 40 41 40 38 37 36 34 31 29 30 31 28 25 25 24 21 20 18 17 15 15 17 19 17 13 13 15 17
40 43 41 40 39 40 39 38 38 40 39 36 40 41 41 38 40 41 38 37 37 37 36 32 29 29 28 26 25 26 25 24 23 20 18 15 18 19 15 15 15 15 6
43 40 40 40 40 40 38 36 38 37 35 36 38 39 40 40 39 38 37 37 35 35 33 31 31 29 28 27 26 26 27 25 22 19 19 19 19 22 17 16 17 17 21
39 38 38 39 39 37 36 36 33 35 35 36 37 38 39 40 38 37 33 32 37 32 30 29 30 30 29 26 27 27 28 25 23 19 19 20 23 20 18 20 22 22 23
34 38 40 40 38 36 36 35 34 33 33 34 38 38 39 38 40 35 32 32 29 28 27 27 27 28 28 25 26 24 23 19 22 18 18 18 15 14 16 18 20 20 17
39 42 41 40 37 37 37 36 33 35 34 34 37 38 38 36 33 30 27 28 29 29 30 30 26 23 19 16 21 20 21 25 23 16 14 13 11 12 16 18 18 21 21
42 39 36 37 39 38 36 33 34 32 32 35 36 34 28 27 26 25 27 27 28 27 27 27 26 23 20 22 23 23 25 21 13 11 13 13 13 14 11 6 5 10 13
32 32 35 39 38 36 35 31 33 34 30 26 23 20 21 22 20 21 25 27 25 22 19 22 21 17 17 18 18 18 15 13 12 13 13 12 9 7 8 8 8 8 10
36 35 34 33 34 35 37 34 32 32 29 26 27 31 24 23 24 25 23 23 21 18 16 16 14 13 10 14 13 12 12 13 13 13 12 10 9 7 5 9 11 11 14
32 30 33 34 32 34 35 37 33 28 26 26 25 25 25 23 19 16 20 22 20 18 15 10 9 7 6 7 11 12 13 15 15 13 11 10 9 11 8 8 12 15 17
27 24 26 28 28 25 23 25 29 25 27 24 26 29 29 29 27 20 23 17 15 14 12 11 11 11 11 10 10 11 13 15 16 14 12 11 10 8 7 9 13 15 15
28 27 27 27 22 27 21 24 23 24 21 17 22 27 22 19 19 18 14 10 10 12 14 13 13 13 12 11 12 14 15 16 16 14 12 11 8 7 7 10 11 13 16
23 23 22 26 26 27 24 33 13 19 22 18 17 16 18 22 23 19 15 14 12 13 11 12 11 11 12 13 17 17 18 16 15 10 8 6 4 5 7 6 9 13 15
26 23 21 25 26 25 31 34 15 19 20 20 19 20 21 20 20 19 17 16 17 13 10 8 7 8 9 9 8 9 10 11 11 7 3 5 5 5 5 6 11 12 16
25 21 23 19 24 24 30 32 18 22 23 26 26 25 25 19 18 18 17 16 14 11 9 6 9 12 13 14 14 12 10 8 6 4 5 0 2 1 4 9 11 14 18
23 24 23 23 24 23 24 22 23 22 21 23 27 26 24 22 20 18 16 14 10 13 19 18 15 14 12 11 10 7 6 6 5 3 4 4 3 3 7 9 12 15 16
20 22 15 21 22 22 24 25 29 28 25 23 24 26 27 25 23 22 20 17 20 20 18 15 14 10 9 10 9 6 6 4 3 6 9 6 2 3 5 9 11 15 12
22 15 13 16 22 24 24 24 26 22 21 23 25 25 24 23 23 22 22 23 21 21 18 16 13 9 9 10 11 10 8 7 10 10 7 3 2 2 6 8 13 14 13
25 26 22 17 20 18 22 21 22 25 24 22 23 24 27 24 25 25 26 25 22 24 20 17 13 12 10 9 9 8 10 9 12 8 4 3 4 3 6 9 9 15 16
5 9 8 6 7 4 4 6 14 19 22 20 25 28 30 30 26 23 22 23 25 25 23 20 16 12 11 10 9 9 9 9 9 7 5 4 5 4 6 8 9 12 13
5 6 9 6 4 4 13 17 20 25 25 28 27 24 28 29 25 20 22 25 30 27 25 22 17 14 10 8 11 11 12 11 10 8 7 8 7 5 3 6 7 12 11
14 9 9 12 19 18 18 22 21 19 23 26 25 27 29 27 26 22 26 27 28 29 29 26 21 17 14 13 12 10 13 14 12 10 9 8 8 6 3 5 6 9 9

GFSGL_925_spd_039.txt.gz
Wind_Speed
42 41 38 38 41 42 45 42 40 35 35 33 35 35 35 35 33 30 29 25 23 20 19 18 16 14 13 13 11 10 11 10 7 5 8 6 5 5 9 12 14 15 16
40 40 41 41 41 42 45 45 43 40 36 37 36 37 36 37 37 35 33 30 28 26 23 22 21 17 16 14 13 11 10 10 9 10 8 8 8 7 9 14 15 16 15
40 40 37 38 39 43 44 43 45 43 44 40 39 41 41 40 39 38 37 34 31 30 27 25 23 21 20 18 18 17 15 14 13 11 9 8 10 10 10 17 15 8 8
39 41 41 40 42 44 46 43 42 45 44 45 45 44 43 43 42 41 41 39 36 33 32 29 27 25 24 20 19 19 17 16 15 13 12 12 11 9 10 14 18 19 20
38 39 43 41 41 42 41 42 44 41 41 45 45 44 43 43 45 45 44 43 39 37 36 33 29 27 25 23 23 22 19 18 17 16 17 16 16 14 12 14 15 15 17
39 43 40 40 40 41 40 39 39 40 41 40 45 46 45 45 45 43 42 43 42 40 39 34 30 29 27 27 25 25 22 23 22 21 21 21 23 15 12 14 13 13 6
42 39 38 39 40 40 38 36 39 40 38 41 43 44 47 47 44 42 41 41 39 39 34 31 30 32 28 25 23 25 24 22 24 23 24 22 17 15 14 17 14 12 16
37 36 35 37 38 38 38 39 37 37 38 38 40 45 43 45 44 42 40 37 27 31 29 30 29 32 29 25 22 20 21 22 24 18 13 12 16 17 21 18 16 16 16
32 34 36 39 39 38 38 40 38 35 34 37 36 37 40 39 39 38 36 31 28 26 27 23 24 29 24 20 19 18 18 19 13 10 13 17 16 19 17 15 16 12 10
33 37 40 40 40 40 42 39 38 37 38 34 33 38 40 40 37 35 33 31 27 24 22 20 22 23 19 17 18 17 17 16 13 13 15 17 14 13 12 14 14 15 13
37 35 32 36 39 40 36 34 36 37 34 32 32 36 41 40 36 34 32 30 22 25 27 27 24 20 17 14 12 12 13 14 13 14 12 9 11 11 10 8 4 7 10
34 33 36 36 34 31 33 31 33 32 33 32 32 26 31 36 33 29 32 22 23 25 26 22 18 15 16 13 12 12 11 11 11 10 9 9 7 4 4 7 7 8 10
32 34 37 38 38 38 38 39 37 39 33 28 26 25 25 30 30 26 31 27 27 29 23 15 10 9 9 10 12 12 12 12 12 11 10 7 5 5 7 7 9 9 12
22 23 22 25 27 26 27 32 30 31 29 25 26 22 20 21 16 21 26 27 24 21 17 12 10 9 9 8 12 13 13 13 13 11 7 6 6 6 10 8 10 12 13
19 19 21 22 21 19 16 3 9 11 21 23 26 29 31 26 27 30 23 20 22 23 18 15 15 12 12 11 9 10 12 13 13 10 8 8 8 8 10 9 10 11 10
11 11 11 17 19 24 28 32 36 17 26 16 13 25 35 24 33 36 27 27 25 21 23 19 14 15 15 13 13 11 11 12 12 11 10 10 11 10 10 10 10 9 10
20 20 19 16 15 14 20 26 20 17 10 17 14 16 18 29 26 23 23 23 23 27 22 19 21 18 14 13 11 10 11 11 10 10 11 10 9 9 8 9 6 8 10
20 22 21 17 16 18 21 7 19 23 23 24 28 27 21 23 25 24 28 27 28 20 22 22 17 15 13 11 10 10 11 11 10 9 9 9 7 7 7 5 5 7 11
19 19 22 16 22 19 24 12 15 17 19 27 27 31 32 29 26 27 31 31 28 22 19 16 14 13 11 11 11 11 11 11 12 11 8 7 5 5 4 3 5 8 11
26 25 25 14 23 19 22 25 23 24 25 25 27 34 34 34 33 28 22 23 22 19 16 14 14 13 14 16 15 14 13 12 10 9 9 8 7 6 3 3 5 8 10
26 25 27 19 19 17 21 18 20 18 17 19 27 33 34 34 30 25 22 20 19 21 23 21 19 17 16 15 14 13 11 11 11 11 11 12 9 5 3 3 4 7 8
22 24 24 24 22 21 18 21 22 23 23 25 28 30 29 22 26 25 23 22 22 21 20 16 18 16 11 12 14 13 12 13 12 14 15 12 8 5 3 3 5 6 9
16 17 15 16 18 21 13 15 19 20 23 25 27 27 26 23 26 26 23 23 23 20 18 19 17 13 11 12 12 12 13 12 12 15 14 10 6 6 4 3 4 7 10
22 23 19 13 12 14 16 14 15 16 16 17 19 21 26 23 23 22 20 22 21 20 20 19 15 10 9 9 10 11 10 9 15 14 10 6 5 7 5 4 4 5 7
11 13 14 12 11 9 8 12 14 18 20 20 21 24 25 24 21 20 20 21 21 20 23 21 16 12 10 8 8 9 9 11 12 12 9 7 6 7 7 5 3 4 5
7 9 12 15 12 5 2 2 3 4 13 17 20 20 24 25 25 25 24 23 24 25 25 24 21 18 14 12 10 8 6 11 13 12 10 9 9 10 10 6 4 2 3

GFSGL_925_spd_042.txt.gz
Wind_Speed
41 41 40 40 41 46 45 45 43 41 36 36 33 30 31 33 31 31 30 28 25 23 20 19 18 16 15 16 14 12 12 11 7 5 7 6 6 5 5 6 9 13 16
42 41 43 44 43 43 46 47 44 42 39 38 37 35 35 37 35 35 35 33 30 27 25 23 21 19 18 16 16 15 14 13 11 9 6 7 7 7 6 6 7 11 15
39 38 38 39 40 43 46 46 46 44 42 41 40 39 39 41 40 37 38 37 34 32 30 28 26 24 23 20 19 18 16 14 14 11 9 8 6 6 7 7 10 12 9
38 38 40 42 44 46 48 46 47 47 45 45 44 42 42 43 41 40 40 39 37 34 32 31 30 29 28 24 22 21 19 17 15 15 13 12 11 10 11 10 13 15 16
37 37 42 42 43 43 42 42 43 45 46 46 46 46 45 44 44 44 42 41 39 37 35 34 31 29 27 24 23 22 20 18 17 16 14 13 13 10 10 10 14 16 17
40 43 41 40 40 41 40 41 44 44 44 44 44 45 47 46 46 47 44 42 41 39 39 39 37 30 25 26 25 23 22 21 22 21 19 15 15 11 10 10 12 11 6
39 39 38 39 40 41 38 38 43 43 38 43 44 43 46 49 48 50 46 43 41 40 39 42 33 26 25 27 26 24 25 24 23 20 23 22 17 13 9 11 15 14 11
37 36 33 35 38 37 39 42 42 39 41 41 40 44 44 47 49 50 46 44 40 38 37 35 28 28 26 29 27 24 22 22 25 22 21 18 15 11 14 14 13 15 15
30 32 34 38 38 35 37 41 40 36 37 40 39 37 42 43 44 44 43 41 34 37 36 28 27 24 24 26 21 22 21 19 18 16 16 16 15 13 13 14 12 10 5
33 39 40 41 40 40 42 39 37 36 36 32 33 38 40 38 41 42 42 41 34 34 35 31 25 20 18 21 20 20 20 19 16 15 16 15 13 11 12 11 10 9 6
39 35 35 35 37 38 34 32 33 31 29 32 33 32 36 41 38 41 44 40 35 31 22 24 30 23 20 18 17 18 18 12 16 15 13 12 12 9 10 10 10 9 9
27 30 31 34 35 34 35 32 34 35 36 34 30 29 33 36 39 37 38 40 32 25 21 21 22 13 14 16 18 15 13 15 14 15 13 13 10 8 7 8 7 7 7
17 22 19 18 22 25 28 25 20 22 24 25 24 27 27 31 40 40 40 44 33 24 15 19 15 10 13 17 17 16 19 17 15 15 13 11 9 9 8 7 7 7 7
17 19 17 15 14 15 15 15 15 16 17 15 16 16 16 17 20 34 39 34 35 25 27 20 13 17 18 18 18 18 20 17 17 15 13 11 9 8 9 9 8 7 9
6 10 13 17 20 17 12 11 13 9 16 15 14 8 10 9 5 5 18 45 34 30 26 28 25 21 20 18 16 19 19 17 16 15 14 13 10 9 10 9 8 7 7
14 12 15 20 21 22 24 29 29 30 37 37 36 35 27 21 24 28 9 5 25 26 23 24 26 24 22 21 20 20 19 18 17 16 14 13 10 11 10 8 7 6 5
20 20 20 20 18 19 25 30 23 30 25 13 6 3 9 16 25 15 24 24 33 29 24 24 24 25 23 21 22 19 18 17 15 15 13 13 12 11 9 8 6 5 3
18 20 21 21 22 21 20 19 21 21 14 18 19 22 13 12 23 32 33 34 31 19 22 26 25 25 22 22 20 17 14 15 16 15 15 14 13 11 9 8 7 3 2
17 17 20 23 24 27 27 24 18 8 9 16 21 25 30 28 30 26 36 30 25 21 20 22 23 21 20 19 16 15 15 16 16 17 16 15 13 11 10 9 5 2 2
15 18 17 17 18 15 11 10 13 14 10 11 18 18 20 26 24 24 24 25 28 22 21 20 19 18 18 17 17 16 16 16 17 17 15 13 13 12 11 8 4 2 2
11 11 13 15 16 16 18 16 10 8 11 14 16 25 30 24 23 27 22 21 23 24 23 21 20 18 15 15 16 17 17 18 17 15 15 16 15 13 10 7 4 1 2
10 10 11 13 17 15 12 15 18 15 15 17 22 27 26 30 29 25 23 24 25 23 21 22 20 16 13 14 17 17 16 16 15 16 16 18 16 13 9 6 4 2 1
10 10 11 12 14 16 16 21 19 18 14 19 25 29 26 28 29 28 29 26 24 23 23 19 18 16 13 12 14 14 16 15 16 17 20 20 16 12 9 7 4 2 1
10 12 12 14 14 10 9 9 16 22 23 23 24 24 22 23 26 27 26 25 24 23 21 21 20 15 12 12 13 15 14 12 14 19 20 17 14 11 10 7 5 2 1
11 15 15 14 13 11 8 5 6 10 12 14 13 16 17 14 20 23 23 24 24 23 22 22 20 15 14 14 14 16 15 13 14 18 17 13 10 9 10 8 6 3 1
4 4 10 14 10 10 12 7 8 3 5 11 16 21 22 22 19 19 22 25 26 25 23 23 23 21 20 18 15 13 12 14 16 17 14 12 10 9 10 9 6 5 3

GFSGL_925_spd_045.txt.gz
Wind_Speed
39 40 39 39 39 37 35 36 37 38 38 35 32 28 26 24 25 27 26 22 25 22 20 18 17 15 13 12 12 11 10 9 9 5 7 7 8 7 6 6 6 7 10
41 39 40 38 38 38 39 39 40 39 41 41 39 33 28 26 25 28 28 23 26 24 22 20 18 16 18 15 14 14 13 12 10 9 7 8 10 9 9 8 6 6 8
39 39 38 39 38 40 41 41 38 40 40 40 36 35 32 29 30 28 29 27 27 26 24 24 22 21 20 18 18 16 15 13 13 12 11 10 9 9 8 10 11 9 8
38 39 39 40 43 43 42 40 40 41 41 41 41 40 39 35 32 29 29 29 28 28 27 26 25 25 25 23 22 18 16 15 14 14 13 12 11 9 9 10 11 9 8
36 37 43 43 42 40 39 40 41 39 40 44 42 41 42 39 35 33 33 32 30 31 28 28 28 29 29 29 27 22 18 17 16 15 15 13 13 10 11 10 11 11 12
39 41 41 38 39 42 39 38 38 40 39 38 39 40 39 40 38 42 41 34 31 34 31 28 25 32 33 30 25 25 24 22 21 18 16 16 14 12 14 12 11 10 6
37 38 35 36 37 39 38 37 40 40 37 39 39 39 41 43 43 49 47 39 34 35 34 30 24 28 34 31 29 29 31 29 26 19 18 17 14 16 13 13 10 10 12
34 33 32 33 36 33 33 38 39 38 40 39 41 41 40 43 46 49 51 49 38 35 35 31 27 27 31 32 31 32 27 26 28 25 22 18 17 15 14 9 9 8 10
33 34 36 36 35 33 36 40 39 35 36 40 39 38 41 42 45 52 51 46 42 36 32 30 30 32 32 28 25 20 19 21 22 25 23 19 18 16 12 8 7 6 7
35 40 37 35 34 37 42 37 34 36 37 33 33 36 38 38 40 46 51 41 40 36 31 32 37 35 29 24 26 22 21 22 18 18 19 17 14 14 12 11 8 10 10
31 27 29 32 33 30 25 25 25 25 22 26 32 33 33 34 37 43 48 46 36 33 35 36 38 35 29 26 26 24 23 18 18 14 13 11 11 10 9 10 10 10 8
19 21 23 23 24 25 27 26 25 23 18 14 25 29 30 30 32 34 41 50 38 34 41 44 42 37 32 26 23 20 18 19 14 16 13 13 12 12 11 9 9 8 7
16 18 19 20 21 22 23 24 23 23 28 34 35 28 25 24 31 41 42 41 50 42 33 32 37 35 33 27 26 20 20 20 16 16 16 14 13 11 11 10 9 9 7
17 20 20 19 19 21 20 21 22 26 27 25 18 25 23 23 28 34 36 33 36 19 8 18 16 31 25 24 24 22 23 20 17 16 14 14 13 12 11 9 8 6 5
9 10 12 13 16 16 16 17 20 22 23 23 23 21 21 17 17 22 24 26 25 22 20 23 11 16 18 18 22 27 26 24 16 14 16 16 14 13 10 8 7 5 5
14 12 12 15 17 17 15 11 11 19 25 25 25 23 15 19 18 20 26 27 35 26 35 15 23 20 18 19 22 23 25 23 17 16 16 16 15 12 10 8 6 5 6
18 17 18 19 19 20 19 21 19 22 25 25 23 26 24 29 33 36 37 35 30 29 33 38 24 22 19 20 22 25 21 19 16 16 16 15 14 11 11 8 6 5 6
17 19 17 18 21 21 20 20 22 20 14 12 17 20 12 15 27 22 27 29 30 19 20 25 35 25 24 21 19 19 17 18 18 17 16 15 13 10 9 8 6 5 6
11 11 12 13 14 15 18 19 16 13 7 9 13 16 15 15 20 18 28 21 22 19 20 20 25 26 22 19 18 16 17 18 17 17 16 14 11 10 9 7 6 6 6
15 14 15 15 13 12 10 10 7 5 3 5 12 18 15 17 12 16 9 12 18 20 18 17 18 18 19 19 18 16 15 16 18 16 15 13 12 10 8 9 8 7 8
13 10 10 9 8 6 5 5 7 8 6 7 10 15 19 17 17 16 19 16 18 18 17 17 18 18 17 16 16 17 17 17 16 14 13 12 11 10 9 9 7 7 8
11 10 9 6 8 5 5 4 6 8 9 11 12 14 17 22 20 15 13 14 15 15 15 15 15 14 15 17 17 17 17 15 13 12 11 11 12 12 12 8 6 8 9
10 8 7 7 7 6 2 2 3 5 6 8 15 18 13 11 12 13 14 16 17 16 16 16 17 16 13 12 12 12 13 12 12 12 12 13 14 14 11 8 8 9 11
10 8 9 10 11 9 5 5 5 6 6 10 11 9 10 11 10 11 13 14 14 15 16 17 17 16 13 11 10 10 10 10 10 11 12 14 15 13 9 8 9 10 12
12 10 8 8 10 10 9 9 8 4 5 8 8 5 5 7 8 10 11 13 15 17 17 17 16 13 12 11 10 11 12 11 9 12 14 15 14 11 10 9 10 11 12
11 12 12 11 11 9 12 17 14 9 8 6 5 3 3 4 6 8 10 13 16 16 16 16 16 15 15 14 13 13 12 13 13 15 16 14 11 10 10 11 12 13 13

GFSGL_925_spd_048.txt.gz
Wind_Speed
38 39 36 37 37 36 36 35 34 31 28 28 26 24 24 23 22 23 22 21 21 20 19 19 18 17 15 14 13 12 11 11 10 7 7 9 9 10 7 6 8 8 8
39 38 39 38 37 37 38 38 36 35 33 32 29 28 27 26 25 25 25 25 25 24 23 21 21 19 20 16 15 14 13 13 12 10 8 11 12 11 11 11 11 10 8
38 38 37 38 38 39 38 39 39 37 35 34 32 32 31 31 30 29 29 27 28 26 25 25 23 22 21 19 18 16 16 14 12 14 11 12 12 12 12 12 12 12 11
38 39 38 40 42 41 39 39 39 38 37 36 35 35 36 35 34 34 30 29 29 29 27 27 25 25 24 22 20 20 18 16 16 16 15 13 13 13 12 13 14 14 13
37 38 40 41 39 36 36 37 37 37 38 38 37 37 37 37 37 36 35 34 32 31 29 30 28 28 28 27 24 24 23 20 18 17 17 15 13 14 14 14 15 14 12
34 39 39 37 36 37 36 35 35 37 37 36 37 38 38 41 43 43 41 37 35 32 32 31 29 32 33 32 31 26 25 23 22 20 18 17 12 12 15 15 14 17 13
35 34 34 34 35 35 34 33 37 38 35 38 38 39 40 41 44 46 47 39 36 36 34 32 31 29 30 26 33 30 29 31 29 24 21 16 12 14 16 14 16 13 17
33 33 33 33 32 31 33 37 37 35 37 38 38 38 38 41 44 47 48 48 40 35 34 34 33 31 31 31 30 39 41 37 35 30 23 20 18 14 15 16 14 14 14
31 36 35 33 33 33 35 37 33 30 30 30 30 31 34 32 34 41 45 42 42 36 33 35 34 34 35 38 35 33 36 31 26 28 26 23 21 20 15 13 13 11 12
34 37 33 33 33 35 34 29 28 29 29 28 29 29 29 28 26 30 38 35 29 23 31 37 43 42 43 46 43 32 28 23 22 22 27 27 23 18 15 15 13 12 11
28 27 27 29 31 29 26 27 26 27 26 28 28 28 26 29 33 35 36 39 39 41 40 35 37 44 44 45 48 35 33 26 27 21 20 21 17 17 12 15 15 12 10
24 25 26 27 27 26 25 24 25 25 27 28 30 33 41 43 44 44 35 37 43 41 41 38 34 35 36 36 36 28 32 30 28 26 22 20 19 18 17 16 14 10 7
22 23 24 24 25 24 24 25 25 27 26 28 29 27 30 30 23 27 23 30 37 49 41 37 30 24 18 29 28 34 44 28 24 23 21 19 18 16 15 14 11 9 7
21 21 22 24 23 23 22 22 24 24 25 24 25 26 28 24 18 15 21 29 38 37 22 17 22 20 28 30 35 21 12 22 26 23 21 19 17 16 16 15 11 10 10
20 19 20 20 22 20 17 17 21 20 21 21 22 22 22 20 18 22 28 34 36 33 24 28 33 29 30 32 31 35 44 37 28 22 21 20 19 18 18 14 11 10 11
16 17 18 16 19 16 15 8 9 9 13 15 16 15 14 19 19 23 27 33 36 36 30 25 22 26 29 26 27 27 30 34 28 24 23 21 20 19 16 12 12 12 12
11 12 13 12 13 13 12 12 7 9 5 11 11 13 9 7 5 7 11 21 30 38 14 16 19 22 25 24 25 32 29 28 25 23 20 20 20 17 15 13 13 12 12
13 13 12 12 12 11 10 10 13 13 14 14 18 15 10 7 11 16 24 36 27 20 11 10 12 15 15 15 17 18 22 28 22 20 19 19 19 17 15 15 13 13 11
12 12 13 13 13 13 11 11 11 11 11 11 8 8 6 8 14 17 24 15 12 11 4 10 13 15 19 22 22 19 21 23 21 20 19 18 17 16 16 14 14 8 8
15 14 13 12 12 13 13 13 11 9 8 6 7 7 10 15 17 12 13 11 13 11 9 11 14 19 21 18 15 16 17 19 20 20 19 18 17 16 16 16 13 13 13
13 13 13 12 11 11 10 8 8 6 2 2 3 8 12 11 13 14 12 14 17 13 12 14 14 18 17 17 19 19 20 20 19 18 18 17 17 17 15 13 13 13 10
15 14 11 9 9 9 10 7 6 6 5 6 6 7 12 6 9 12 13 12 12 13 15 15 15 16 18 19 18 18 17 17 17 17 17 17 17 16 15 14 14 12 11
13 14 12 10 11 10 12 10 8 6 5 6 7 10 13 10 12 12 14 14 16 16 15 15 14 15 14 14 14 15 16 16 17 17 17 17 17 16 16 15 13 12 10
16 13 12 12 10 12 8 9 10 9 6 6 7 8 10 14 13 12 13 15 14 15 15 15 14 15 14 12 11 12 13 14 15 17 17 17 17 17 16 14 12 11 10
14 12 11 12 12 12 10 10 11 11 9 3 6 5 9 9 10 11 13 14 16 17 17 15 13 13 12 12 12 12 15 18 15 17 17 17 17 18 14 13 12 12 11
18 17 14 13 14 14 13 15 13 11 10 9 8 6 6 6 8 9 10 12 15 16 16 14 13 11 12 12 13 15 16 19 18 18 16 17 17 16 14 12 12 12 11

GFSGL_925_spd_051.txt.gz
Wind_Speed
40 40 39 39 38 35 35 33 33 28 26 28 20 24 24 25 25 25 24 20 22 20 19 18 18 17 14 13 12 11 11 11 9 8 4 8 9 8 6 6 9 10 13
40 39 39 37 37 37 36 36 34 34 31 29 31 26 28 28 28 27 26 25 23 24 23 21 21 18 20 16 15 15 15 13 12 9 7 8 10 13 13 11 11 12 12
39 38 38 38 38 39 38 36 36 34 34 33 32 32 31 30 30 30 30 29 26 27 25 24 23 22 21 21 21 18 18 16 15 15 13 15 13 14 15 14 13 12 14
39 40 39 39 41 39 38 38 37 36 35 35 35 35 35 34 34 34 31 30 28 26 26 27 26 27 27 27 24 27 19 19 18 17 18 16 18 17 16 16 16 17 13
38 39 40 39 38 37 37 38 36 35 36 36 35 35 36 37 37 36 35 31 30 30 30 29 30 32 34 32 29 27 27 24 21 21 19 18 17 15 17 17 16 13 13
32 37 35 35 35 36 36 37 36 37 38 36 37 37 38 39 39 39 37 33 32 31 31 32 33 36 37 35 35 30 32 30 28 23 20 18 22 16 14 13 13 14 11
33 30 34 34 34 34 34 34 36 37 35 38 36 36 37 39 39 41 41 35 31 32 33 31 31 34 38 38 42 42 36 36 35 30 22 19 15 18 16 13 16 13 12
28 32 33 35 34 33 33 35 34 33 35 35 37 37 35 36 37 40 41 45 39 36 34 36 34 34 36 43 38 40 46 44 42 35 27 23 21 16 16 15 14 14 12
31 34 35 34 34 33 35 33 32 31 32 33 33 33 36 34 34 38 37 35 37 37 36 36 40 44 49 48 41 41 40 39 33 36 30 22 18 20 22 15 14 16 13
33 35 32 32 33 35 34 32 31 31 31 31 32 35 34 34 34 33 30 31 32 35 41 42 45 48 44 44 47 36 29 30 28 23 28 25 27 27 29 23 17 15 13
25 28 30 32 33 32 30 30 30 30 29 31 31 30 34 38 38 45 49 54 50 46 38 38 40 41 47 44 44 37 30 16 22 23 25 26 35 30 28 25 21 18 13
24 26 28 31 31 30 29 27 28 28 28 27 27 28 30 31 36 38 46 48 29 27 29 33 32 32 39 45 43 42 35 25 34 34 28 30 26 26 24 21 19 18 13
22 24 25 26 28 26 29 27 26 27 27 26 26 26 27 25 30 32 37 43 40 30 28 32 38 35 41 38 44 45 39 30 29 26 32 33 47 37 27 23 19 16 9
20 22 22 24 24 26 24 26 26 25 24 24 23 23 22 23 24 24 25 26 25 33 38 40 40 27 28 32 31 39 39 31 24 23 25 25 30 27 26 25 17 16 14
20 20 21 23 25 22 17 11 23 18 20 22 21 19 19 19 18 23 19 17 20 26 26 30 23 20 22 19 24 29 25 17 25 22 21 26 29 25 26 22 19 19 15
17 19 21 21 22 22 20 8 9 6 4 12 8 2 3 4 4 2 3 13 24 26 24 19 17 18 17 18 20 21 23 23 21 24 29 28 27 24 21 22 17 16 14
16 16 18 19 20 22 20 18 13 11 5 2 4 3 2 3 4 3 5 7 12 21 12 13 13 13 11 11 12 16 21 26 27 28 24 27 23 21 23 20 18 16 13
4 8 12 9 11 12 14 13 9 10 7 10 15 13 14 11 7 5 5 6 18 14 14 13 13 16 17 19 20 21 21 20 22 24 23 23 23 21 21 20 17 14 13
12 10 11 11 9 13 13 12 11 11 11 12 11 9 8 7 5 6 7 11 15 11 4 8 13 15 16 18 20 20 21 19 23 27 21 21 21 21 20 18 15 13 12
17 16 16 16 12 12 12 12 12 11 9 8 7 6 7 7 6 10 12 10 10 9 6 6 9 12 16 17 17 16 20 26 24 21 19 19 19 19 18 16 14 13 11
16 16 17 15 14 13 12 10 8 7 6 6 5 5 6 7 8 8 7 7 8 8 9 8 11 11 14 17 18 24 22 21 20 19 18 19 19 17 14 14 14 12 13
15 15 15 16 14 11 12 10 7 8 7 7 5 5 10 3 11 10 11 9 7 8 9 9 8 11 15 16 16 19 18 18 19 20 20 19 17 15 15 14 13 13 14
14 14 16 15 14 12 12 10 9 6 8 8 8 11 10 8 8 8 11 9 10 12 10 10 12 17 16 16 18 19 19 20 21 19 18 17 17 17 16 15 15 15 16
18 17 16 16 13 11 14 14 11 7 5 7 10 8 8 8 8 8 8 11 11 11 13 13 12 13 15 14 13 15 16 16 17 18 17 18 17 16 16 16 16 16 16
20 19 19 21 18 18 17 16 13 11 10 7 3 3 7 11 10 9 12 9 10 11 12 13 13 12 12 12 12 11 13 16 16 16 17 15 16 16 18 17 17 17 16
25 22 16 17 19 19 15 14 14 18 15 16 16 15 14 15 4 10 9 9 10 10 10 10 10 11 12 11 12 10 10 15 17 16 14 16 17 18 18 17 17 16 17

GFSGL_925_spd_054.txt.gz
Wind_Speed
40 39 39 39 37 37 36 32 35 32 32 26 17 27 27 25 26 26 25 23 25 23 20 20 23 19 18 15 16 15 14 13 9 14 15 16 16 16 9 14 15 16 17
41 38 37 35 36 36 37 34 33 32 29 33 29 23 27 28 29 30 29 27 22 26 29 23 23 24 25 22 16 20 18 16 15 14 6 14 16 17 17 13 12 14 19
37 37 35 37 38 37 36 37 33 34 36 30 31 34 31 32 32 32 31 28 27 26 29 30 31 26 26 29 26 18 21 21 16 20 15 15 16 18 17 17 17 19 21
38 38 38 38 38 36 36 37 38 38 36 37 36 35 37 35 34 33 33 32 32 30 29 30 32 33 32 30 30 31 26 23 27 21 21 21 15 18 20 21 20 21 22
40 40 40 38 36 36 36 37 37 37 39 38 37 36 35 36 35 35 34 33 33 33 34 35 36 37 38 36 32 35 35 33 22 23 19 18 20 15 24 22 21 15 20
36 39 39 38 37 37 37 37 35 36 37 36 36 36 37 36 37 40 37 35 36 36 36 37 36 37 38 39 40 39 41 38 30 23 21 19 20 20 17 23 20 17 11
33 33 37 38 38 38 37 36 35 36 35 37 38 37 37 39 40 41 43 39 36 36 38 36 37 38 43 46 45 44 44 38 39 37 27 25 21 22 19 14 12 9 12
28 29 33 35 37 36 36 36 36 35 37 36 35 36 37 39 42 44 44 46 39 38 41 41 42 41 41 43 41 48 48 45 40 38 34 26 17 11 7 7 12 18 21
26 29 31 32 31 34 35 35 35 34 34 37 35 36 39 39 40 43 43 42 39 43 48 46 45 46 44 44 44 39 36 40 39 42 27 20 16 22 31 33 23 22 14
30 30 28 32 34 35 34 34 34 35 35 32 34 36 37 38 37 40 43 40 41 50 41 46 48 46 45 45 46 38 37 34 35 33 35 42 47 42 37 36 34 23 15
28 27 30 33 33 32 31 31 31 32 31 33 33 33 35 37 37 39 42 43 41 31 32 32 34 38 44 40 45 39 41 32 36 44 45 46 46 38 39 38 29 27 22
23 27 29 29 31 28 31 30 30 30 30 29 29 30 30 32 35 37 40 45 39 32 25 21 26 28 35 40 45 47 46 41 38 38 36 31 32 35 34 34 32 33 29
23 24 26 27 27 30 29 28 26 27 27 26 25 23 25 25 28 35 38 41 44 49 34 25 24 25 22 27 34 43 48 38 35 30 29 28 30 31 29 27 30 24 17
17 20 21 22 25 26 23 25 24 25 25 24 22 22 22 23 27 25 33 38 35 35 36 41 39 34 30 26 23 26 33 36 34 33 29 27 26 25 28 25 23 19 22
15 16 19 20 24 21 19 13 24 23 23 24 24 18 21 20 22 26 24 28 32 34 28 21 25 25 26 27 28 25 28 28 27 21 20 21 26 24 22 27 22 25 19
15 16 17 18 19 21 20 10 8 11 8 14 12 19 6 10 7 5 16 12 13 15 18 17 19 18 18 19 20 21 21 18 19 15 16 21 21 22 24 24 26 24 20
14 16 17 20 19 22 20 16 13 16 10 8 9 9 7 6 3 7 9 12 13 14 11 11 11 11 11 13 11 10 9 12 10 13 16 17 21 25 25 24 24 24 20
15 14 18 21 17 22 20 21 19 15 12 11 18 19 16 14 12 10 10 12 12 6 6 7 10 11 12 11 12 12 10 10 10 9 13 18 19 25 25 23 23 20 17
9 9 9 12 10 12 14 15 13 15 18 14 13 13 12 11 10 12 9 8 11 8 9 8 9 11 11 13 13 12 10 11 13 15 18 15 22 23 25 23 22 21 19
14 16 15 13 12 16 17 14 15 14 13 12 12 11 9 8 6 6 7 9 12 10 7 5 4 6 9 10 9 10 13 15 17 15 17 23 22 25 25 23 23 24 22
12 12 15 15 13 14 15 16 12 12 9 7 12 9 7 4 7 8 8 8 9 12 8 5 6 6 8 8 9 10 10 15 17 13 24 25 25 22 25 25 21 23 21
18 18 17 16 15 14 13 13 10 10 8 9 7 4 8 6 7 8 9 6 7 6 6 7 6 6 7 7 8 9 10 9 14 21 19 25 24 22 21 25 21 23 25
18 20 21 19 17 18 15 13 11 16 14 10 10 10 8 8 8 10 9 8 7 7 7 8 7 6 9 10 9 11 13 13 16 17 19 21 22 20 18 15 20 17 20
29 30 27 24 24 20 16 13 14 15 14 10 9 9 8 9 7 6 9 8 7 8 7 7 8 11 10 9 10 12 13 14 17 19 18 19 17 16 14 16 16 17 18
29 30 29 26 25 24 24 21 17 17 16 13 13 11 7 8 8 6 6 9 10 9 10 8 7 10 10 11 12 13 17 15 20 19 14 16 15 16 17 15 15 17 16
27 26 26 27 26 22 20 20 18 16 15 16 17 19 22 19 12 9 4 7 9 10 10 9 11 10 7 5 4 5 5 8 14 14 14 11 11 11 17 14 16 16 17

GFSGL_925_spd_057.txt.gz
Wind_Speed
39 41 37 36 38 40 35 34 38 36 29 18 19 29 36 36 33 28 26 26 24 24 23 22 21 20 23 21 15 17 17 17 12 13 12 18 23 23 21 19 17 18 16
43 36 37 33 32 34 36 36 33 37 39 34 22 25 32 35 32 33 29 29 28 28 28 27 27 25 26 25 22 24 25 23 22 21 13 20 26 26 23 20 20 20 19
38 38 34 37 36 33 35 39 39 36 39 40 38 30 35 37 35 33 34 33 33 29 33 34 34 32 31 32 32 28 29 28 26 24 23 19 28 26 23 22 22 21 19
40 39 38 37 37 36 35 38 41 40 40 41 39 39 35 37 39 37 35 37 38 38 38 36 39 39 38 37 36 38 35 30 32 29 25 20 25 25 28 27 25 24 23
39 40 40 39 37 37 38 36 37 41 40 42 41 39 38 38 40 41 40 41 40 41 42 43 41 43 44 43 41 41 39 37 32 27 26 24 24 17 27 30 29 27 27
40 40 40 38 39 40 38 38 36 37 42 38 39 41 39 41 39 43 45 39 41 40 41 42 43 43 46 46 46 44 41 42 35 27 25 20 29 33 27 31 31 24 11
40 40 38 39 39 39 39 37 38 38 36 38 38 37 39 42 42 45 45 42 38 40 42 39 40 42 43 45 48 47 48 46 43 36 29 32 33 38 33 29 31 24 23
36 35 39 37 38 38 37 38 39 38 38 37 38 40 40 42 44 46 45 47 40 40 43 43 42 40 41 40 40 45 51 50 50 44 41 42 41 38 37 30 22 17 19
33 33 36 38 38 37 39 38 38 36 35 37 36 37 40 41 41 43 44 46 44 44 45 41 41 41 40 38 39 38 39 45 41 47 50 48 44 36 33 30 24 15 17
34 36 38 40 39 39 38 38 37 37 36 32 34 36 37 40 37 39 41 42 40 40 38 39 41 44 35 34 39 36 36 37 36 42 44 50 43 41 41 38 34 24 22
26 37 36 35 38 37 36 35 35 33 31 32 31 32 35 36 37 38 40 45 41 35 36 35 31 30 35 39 37 42 43 40 37 41 47 46 44 47 50 46 41 29 26
9 21 27 34 34 34 36 32 32 30 29 28 28 30 31 33 35 37 40 42 40 38 35 30 27 27 31 30 36 44 48 48 39 33 33 34 36 39 37 39 38 36 34
12 23 32 33 33 32 31 29 27 28 28 26 26 26 28 28 29 33 37 37 39 45 37 33 31 29 23 24 22 30 41 42 32 28 30 32 37 40 33 31 34 28 28
13 16 25 30 31 32 30 28 27 26 25 25 24 24 23 23 27 28 28 34 37 39 42 39 35 32 31 32 35 32 28 26 32 32 35 36 29 28 27 17 16 25 24
12 13 21 27 29 26 25 21 25 26 29 25 25 22 21 21 28 28 30 27 30 35 37 33 30 29 28 30 27 26 25 25 25 25 26 21 24 22 19 14 26 26 20
18 18 19 23 25 25 27 14 13 21 23 28 25 27 27 19 23 22 24 28 25 26 20 20 19 20 18 17 18 18 17 17 17 15 2 2 11 20 21 26 28 26 24
20 21 21 22 23 24 23 23 17 11 10 16 18 20 24 17 11 9 13 15 14 14 13 14 10 8 9 10 9 9 7 6 5 7 7 11 14 21 27 21 26 27 21
27 22 20 25 26 23 25 25 25 23 18 12 15 16 16 15 13 11 12 12 11 11 9 7 5 4 4 4 4 4 3 4 4 5 14 18 20 23 22 25 28 24 23
22 23 24 21 28 24 27 25 23 18 21 21 19 17 15 15 15 14 13 10 12 10 10 9 8 7 7 7 7 7 6 6 8 11 15 17 21 21 21 29 26 26 25
6 5 8 17 18 22 22 24 22 20 21 19 15 18 18 13 11 10 10 13 13 14 12 11 9 6 7 8 8 7 6 8 9 15 17 18 17 19 21 21 24 25 21
7 9 14 18 24 27 25 23 24 23 18 18 17 15 11 10 11 11 12 13 14 13 9 7 5 4 6 7 7 9 11 11 11 13 13 16 22 23 25 27 28 25 22
13 5 19 24 26 25 25 26 23 24 24 20 13 12 9 13 11 10 9 6 6 5 6 7 7 9 8 10 9 11 11 12 14 16 13 18 24 22 26 25 26 25 23
17 13 14 17 21 23 22 21 24 26 23 14 11 13 10 8 7 8 7 6 7 8 7 8 9 9 9 7 9 9 11 11 10 15 18 23 21 23 23 26 22 26 28
28 26 25 26 24 24 26 24 25 24 20 13 12 12 9 9 9 9 10 11 8 8 9 7 8 7 9 7 5 6 9 9 12 14 16 22 20 20 15 19 27 28 30
28 29 26 29 26 25 27 26 24 24 26 22 22 25 27 20 13 6 6 7 5 9 7 8 6 8 8 6 6 7 9 10 11 14 14 18 18 20 21 17 20 22 26
30 28 29 27 29 25 25 25 23 25 25 24 26 27 27 27 24 21 20 14 8 6 6 5 7 10 10 9 7 6 4 7 11 16 16 15 15 18 17 16 17 18 18

GFSGL_925_spd_060.txt.gz
Wind_Speed
40 39 38 38 42 43 41 39 40 36 31 27 31 28 31 35 35 33 32 29 28 27 26 25 25 23 24 26 22 20 22 20 16 20 16 16 20 33 32 32 30 29 28
43 40 38 37 36 37 40 43 38 39 38 37 28 24 31 32 36 37 35 33 32 32 32 31 31 28 27 28 29 29 25 25 23 22 22 19 21 27 33 32 30 31 31
39 38 37 35 35 37 41 41 43 42 40 39 38 33 25 28 31 38 38 35 36 37 37 36 36 33 33 32 31 32 32 27 26 26 29 22 22 26 30 33 32 31 30
38 38 39 40 38 37 41 42 42 44 42 40 40 42 37 31 32 36 39 39 38 38 39 38 39 39 38 37 36 36 36 35 32 30 30 30 25 27 30 34 31 31 31
39 39 40 39 39 39 37 40 41 41 42 44 42 40 41 41 39 39 41 42 41 40 40 41 42 42 42 42 40 40 38 37 31 31 27 29 30 25 27 32 32 32 36
40 41 39 36 37 38 38 36 38 39 40 38 38 40 41 42 41 44 45 45 45 43 42 43 45 44 44 46 46 45 42 39 32 26 27 26 32 32 33 32 32 24 13
37 37 35 36 35 36 37 36 35 36 38 37 37 39 40 42 41 42 44 45 41 41 41 41 41 41 44 46 47 48 48 49 47 37 34 35 35 36 35 32 31 28 26
34 34 35 35 35 35 34 34 35 34 34 35 38 39 39 41 43 43 42 44 42 41 42 41 39 38 37 39 41 42 46 49 52 51 48 47 42 43 39 42 43 38 21
32 34 36 37 36 35 34 35 36 33 32 33 34 36 38 37 38 41 40 43 44 42 40 40 38 36 36 36 38 38 38 37 42 47 51 56 56 52 48 38 32 26 12
34 36 38 36 38 37 38 37 37 36 34 32 32 35 38 37 38 38 37 41 38 36 37 38 38 40 38 33 37 38 36 34 35 41 46 50 50 53 49 45 39 30 25
20 25 31 36 38 38 36 34 33 32 31 30 32 33 34 35 37 36 37 40 38 31 32 32 32 33 34 34 38 40 42 41 38 39 37 38 37 41 49 50 43 39 28
15 22 27 31 33 31 33 31 31 30 29 29 28 29 31 31 34 36 38 40 41 37 34 31 31 30 31 32 31 35 38 42 39 32 27 27 28 33 41 44 43 45 38
4 7 17 25 32 33 33 29 27 28 28 26 26 26 26 25 29 31 33 35 39 46 38 36 34 32 30 27 25 25 21 23 29 27 25 27 31 35 33 34 32 30 32
7 7 7 14 24 29 29 29 28 26 26 25 24 24 22 22 25 24 27 30 34 38 42 43 38 33 29 27 27 27 24 22 20 22 21 23 26 23 19 12 16 27 26
17 15 12 11 17 23 26 26 26 27 29 27 26 23 21 21 24 27 28 29 30 31 35 35 31 30 27 24 24 23 20 17 17 18 16 15 12 6 18 19 17 21 16
19 21 21 20 18 22 27 23 24 27 27 30 25 26 26 27 26 24 25 26 26 27 21 23 20 20 19 17 14 13 13 12 11 10 4 4 8 24 19 14 18 23 23
21 21 22 21 18 24 26 23 16 10 16 22 27 28 27 28 26 21 20 22 25 24 18 20 17 14 12 10 8 7 5 4 3 4 4 7 19 14 11 18 21 22 21
25 25 23 23 19 24 27 27 24 22 16 13 18 22 22 24 17 12 13 12 17 16 15 14 13 11 10 8 6 6 5 4 4 3 6 10 12 13 20 19 21 18 20
28 25 24 23 23 24 26 23 24 23 18 15 12 12 14 16 16 16 16 12 15 14 12 11 11 11 9 8 7 6 5 5 5 6 9 12 12 15 16 18 21 22 25
28 26 22 23 24 23 22 22 20 21 21 18 16 20 17 15 13 11 10 10 12 13 13 12 11 9 8 8 8 6 6 6 7 9 11 13 15 17 19 22 23 23 23
26 24 15 13 18 21 23 23 21 20 19 16 18 18 14 12 12 11 12 12 14 15 14 12 10 8 7 8 8 6 6 6 7 11 12 13 14 16 17 19 19 22 23
25 20 6 7 15 16 18 18 22 22 22 23 21 18 13 12 13 13 13 14 15 13 10 11 9 8 7 7 6 9 11 11 11 12 15 15 14 15 17 20 23 23 22
23 14 9 9 18 29 23 22 23 20 20 21 20 17 17 13 13 15 13 11 12 11 10 10 8 7 5 4 6 8 12 13 14 17 19 15 16 20 20 23 25 25 23
18 21 24 21 16 20 32 25 25 27 21 19 16 10 9 9 8 9 10 9 11 10 9 8 5 4 5 6 5 6 7 7 6 10 14 16 21 21 20 23 24 25 25
21 23 19 31 25 22 25 25 26 21 23 24 21 19 17 15 12 10 7 7 7 8 7 5 5 5 7 7 7 8 9 8 8 9 8 15 20 19 21 23 26 27 27
24 23 22 24 25 31 24 23 23 24 25 27 25 23 21 20 17 15 14 12 12 11 10 9 9 10 10 7 6 5 6 9 10 12 13 13 18 20 22 23 24 25 26

GFSGL_925_spd_063.txt.gz
Wind_Speed
40 41 38 39 41 41 40 40 38 36 34 33 28 27 27 29 33 31 32 30 28 29 28 27 27 24 26 25 23 22 21 18 15 21 17 18 17 22 25 31 34 33 33
40 39 39 40 39 41 42 42 41 39 37 34 31 30 29 29 31 33 35 35 34 33 32 31 31 29 27 25 24 26 26 24 22 26 31 29 25 23 24 27 33 36 37
39 38 36 36 37 39 41 41 41 41 38 37 36 32 29 31 33 33 33 36 38 37 36 34 35 33 32 31 31 30 30 30 29 28 29 31 30 26 26 28 32 37 38
37 36 36 36 38 40 42 42 42 43 42 41 39 39 40 38 33 31 33 34 37 39 38 37 36 36 37 37 36 36 35 34 32 33 32 35 33 33 29 30 32 35 40
35 35 37 39 39 39 41 42 42 40 42 43 45 45 43 42 42 37 34 35 35 38 40 39 39 39 39 39 38 39 38 36 33 32 27 29 28 28 28 30 32 32 40
37 39 40 34 35 39 38 39 38 39 40 38 40 44 45 45 43 45 44 41 39 39 41 42 42 41 40 40 41 42 41 34 31 26 27 25 30 28 30 31 31 22 14
37 34 33 32 34 36 35 33 35 36 37 38 39 40 42 46 48 46 44 42 37 40 43 44 41 41 42 42 43 43 44 44 45 38 33 33 34 32 32 32 32 32 34
32 32 31 33 34 33 33 34 33 33 35 37 39 40 40 42 44 43 44 43 42 40 42 43 42 40 37 38 39 39 41 42 41 41 47 51 44 44 36 37 37 34 35
30 31 34 35 35 32 32 35 36 32 30 35 39 38 39 40 41 40 38 40 42 44 41 40 40 41 39 37 36 37 38 38 39 40 41 43 44 46 47 37 26 20 23
31 36 33 33 33 33 36 34 33 31 32 30 30 34 39 39 38 38 37 39 36 34 35 38 40 40 36 34 34 37 34 32 34 36 36 39 39 40 42 47 41 26 26
25 27 29 33 35 33 31 29 29 29 27 28 30 31 34 36 38 36 35 37 35 29 31 30 29 32 34 35 37 38 38 39 34 31 31 29 28 30 33 37 37 33 30
22 26 32 37 35 33 35 33 32 29 28 28 27 27 30 34 35 35 34 36 36 35 32 28 28 29 30 30 30 34 35 36 38 34 27 23 23 29 32 30 29 31 34
10 19 26 32 34 31 31 29 27 29 27 24 25 25 24 25 30 33 33 33 34 41 38 34 32 31 27 27 27 29 28 29 25 21 22 24 26 26 26 24 23 22 17
14 10 6 9 20 26 29 26 25 24 25 25 23 22 21 23 26 27 28 31 33 35 39 41 39 35 32 28 25 23 20 18 14 16 18 21 20 19 19 17 16 13 21
14 12 11 9 3 7 21 25 27 27 28 24 25 23 21 21 28 29 28 29 31 32 33 33 29 29 26 24 20 17 15 15 14 12 13 14 16 15 9 4 7 16 10
13 13 12 10 9 7 11 19 24 27 27 30 26 25 28 27 21 21 24 25 26 28 24 20 19 21 20 20 17 14 11 8 7 8 6 7 8 4 10 9 11 13 17
15 14 14 12 12 11 11 18 16 21 23 26 28 29 26 25 23 24 22 21 23 26 22 22 20 20 19 16 14 10 6 4 3 4 4 3 6 13 8 5 8 12 14
17 16 16 15 14 16 17 20 21 18 14 18 20 26 27 28 27 24 19 21 19 20 24 22 20 18 15 14 12 9 8 9 8 5 7 8 13 11 8 10 13 18 21
22 20 18 17 18 21 19 20 20 20 20 16 14 10 16 20 18 19 18 18 20 20 17 14 13 14 14 12 10 11 12 11 9 9 10 11 13 13 14 14 16 17 22
25 23 19 17 17 21 19 19 18 19 18 17 17 17 16 16 17 19 17 13 14 15 15 14 13 13 12 13 14 13 13 12 11 11 12 12 14 15 18 19 19 21 24
27 26 22 18 19 18 18 20 22 22 21 20 21 20 21 19 16 13 11 10 11 12 13 13 13 13 13 13 13 12 12 11 12 13 11 10 12 14 15 17 21 23 22
29 28 22 18 18 17 18 20 22 21 21 21 20 18 14 14 14 12 10 9 10 11 10 11 11 9 9 11 12 11 12 11 10 11 10 9 9 11 12 17 21 21 23
29 26 21 17 15 14 17 17 18 18 19 20 24 23 15 13 12 10 9 8 9 10 7 8 7 8 8 7 8 9 11 10 8 10 10 12 12 12 15 20 21 22 24
25 20 19 18 18 17 17 18 20 21 21 22 22 21 18 13 15 13 11 8 9 8 8 8 7 6 7 7 8 8 7 7 7 8 12 15 15 12 15 17 20 23 22
20 17 17 19 21 20 19 17 20 22 23 24 24 20 18 17 15 14 12 11 12 11 9 7 8 7 9 9 7 5 6 6 4 4 7 13 17 17 20 19 21 23 23
21 21 19 15 13 18 20 22 20 25 22 20 25 24 20 15 19 15 13 12 12 11 10 9 10 10 8 7 5 5 7 6 6 6 7 7 10 18 21 22 23 25 27

GFSGL_925_spd_069.txt.gz
Wind_Speed
36 36 36 35 34 33 32 33 32 32 28 24 23 23 21 19 19 17 17 16 15 16 15 14 14 14 13 12 11 11 12 12 16 21 17 16 21 21 20 22 24 25 25
38 37 35 36 34 32 33 31 31 32 31 28 27 27 25 23 21 20 17 15 15 17 17 16 17 15 16 15 15 15 15 14 15 21 22 20 22 21 24 26 24 22 25
38 37 35 35 33 34 34 33 31 32 34 31 30 29 29 24 23 22 20 18 17 17 17 17 18 17 19 18 16 16 17 17 17 20 27 24 23 22 22 23 22 26 26
39 38 36 35 36 37 35 33 32 34 34 33 34 34 33 29 26 25 22 21 20 19 18 19 19 19 21 19 18 18 17 18 19 21 24 24 24 23 21 23 25 24 25
38 37 37 36 37 34 31 32 31 31 34 35 34 34 33 29 29 28 25 23 22 21 20 21 21 22 24 23 19 20 18 19 20 20 24 25 24 22 21 22 26 29 28
38 37 36 34 34 33 34 33 31 32 31 32 33 33 31 30 32 34 33 26 25 24 25 24 23 25 28 29 29 29 27 23 23 25 28 27 26 24 25 25 26 25 23
38 36 35 35 34 35 33 31 32 32 28 30 30 28 30 32 38 39 38 34 30 28 28 28 28 27 28 27 27 31 33 34 35 36 33 31 30 27 29 29 25 24 23
35 34 34 34 33 31 31 30 30 28 29 30 29 29 29 33 38 39 38 36 31 33 32 32 31 31 30 29 26 25 26 26 28 29 32 35 30 27 24 26 26 29 26
33 33 34 34 31 30 30 30 29 28 28 30 31 30 33 34 36 37 35 27 28 32 32 33 32 32 33 33 30 29 30 29 27 30 32 32 29 27 27 30 31 22 17
36 36 33 32 31 31 32 32 33 32 30 27 26 28 31 32 36 37 34 26 26 27 28 30 34 36 33 33 32 28 30 27 24 24 24 23 23 25 23 25 28 20 15
28 28 29 32 33 33 30 28 27 27 25 26 27 26 26 28 30 34 32 29 28 27 27 26 26 28 31 33 34 32 31 25 24 24 23 24 24 27 26 23 21 19 18
27 28 29 29 28 26 27 26 27 26 25 25 24 23 23 25 29 29 31 32 33 28 26 24 23 26 28 24 25 30 28 26 27 25 23 21 22 19 20 14 14 13 13
24 26 27 27 28 26 26 24 22 23 23 23 23 22 21 21 22 27 32 30 31 35 27 25 24 24 24 23 23 24 23 27 24 22 22 22 20 15 11 10 10 10 6
21 21 21 22 23 24 22 22 22 22 23 23 21 21 20 19 19 19 20 29 31 31 35 32 28 25 25 27 25 25 26 27 25 24 22 18 11 9 7 7 6 2 7
9 10 15 16 20 19 21 20 21 21 22 21 21 20 19 19 20 20 18 16 17 21 23 20 20 26 24 27 28 29 30 30 28 27 24 15 12 7 4 3 6 11 6
13 13 10 4 8 13 15 15 21 20 22 27 24 20 18 21 17 18 17 18 18 18 16 15 16 20 21 21 22 23 24 24 25 23 19 14 9 7 6 6 10 10 10
13 11 11 10 4 9 9 7 8 13 25 25 25 27 28 24 18 21 18 17 19 21 22 18 18 20 23 22 21 21 21 21 19 19 16 11 10 9 11 10 11 11 10
12 12 5 10 10 4 4 5 7 7 8 9 15 22 28 29 28 25 23 22 20 21 24 22 21 20 20 20 21 21 21 19 21 17 12 11 12 12 13 12 12 12 11
9 3 3 10 10 6 5 5 7 7 9 11 11 15 19 21 23 27 28 26 21 20 22 26 23 21 17 18 20 20 20 21 17 14 13 12 13 14 15 12 12 14 14
14 14 12 11 9 7 6 7 7 7 8 9 11 12 11 14 14 19 27 31 23 21 19 18 19 20 20 18 17 17 16 17 14 14 14 14 14 16 15 13 14 15 17
15 16 16 13 11 11 11 10 8 6 7 8 10 13 17 15 15 15 16 22 23 22 18 15 13 13 14 15 14 13 13 13 15 14 14 14 15 17 16 14 16 16 16
15 16 16 15 15 15 15 14 12 11 9 9 10 11 17 19 16 15 15 16 17 18 15 16 16 16 16 16 15 14 13 14 14 14 14 14 15 16 16 15 16 17 18
15 15 17 18 18 19 19 18 17 15 13 12 11 11 16 18 16 16 15 14 12 12 15 18 17 16 16 16 14 13 13 14 14 14 14 14 14 15 15 15 16 17 19
15 16 16 18 20 20 19 19 18 18 16 12 10 10 13 13 12 11 9 10 7 6 6 8 11 12 12 11 11 11 11 11 12 13 14 14 16 18 16 17 17 20 20
11 11 15 18 19 20 20 18 16 12 8 4 5 7 12 16 17 14 12 8 9 9 9 8 8 9 9 10 10 10 15 17 14 13 14 13 15 16 18 17 18 20 22
19 15 16 13 7 2 3 4 4 3 3 5 6 8 11 11 13 13 14 15 9 12 11 11 11 11 9 8 11 12 12 13 13 13 11 12 15 17 17 17 17 19 21

GFSGL_925_spd_072.txt.gz
Wind_Speed
38 37 35 34 32 30 28 26 23 20 19 18 16 15 16 16 15 15 14 13 12 12 12 12 12 11 11 11 11 11 13 13 15 17 15 15 15 16 17 17 18 20 21
38 37 37 35 33 31 29 28 24 22 21 21 19 17 17 17 16 16 16 15 14 15 14 15 15 14 14 14 14 15 15 15 17 19 19 19 18 18 21 20 19 20 23
38 38 37 36 34 33 32 29 27 24 23 22 21 21 20 19 19 18 18 17 17 17 16 16 16 15 16 16 16 16 16 17 17 20 23 22 22 22 22 22 20 21 23
38 38 36 35 35 36 34 31 28 28 25 24 24 23 22 21 21 20 20 19 19 19 18 18 17 18 18 17 17 18 18 18 19 20 22 22 22 20 20 21 21 21 23
36 38 37 36 35 34 32 32 30 29 27 26 25 24 23 23 24 23 22 22 22 22 21 21 20 21 21 21 18 18 17 18 20 22 23 24 24 21 20 25 27 27 26
37 37 36 34 35 35 32 31 30 29 29 26 27 26 26 27 27 29 27 23 23 24 24 23 23 23 24 27 28 29 27 22 23 25 27 27 24 23 24 26 28 29 21
36 37 36 36 35 35 34 32 31 31 29 29 28 27 29 29 29 31 32 29 26 26 26 25 25 25 26 25 25 26 27 29 31 33 31 29 30 25 23 24 24 22 22
34 34 35 35 35 33 32 32 32 31 30 30 28 29 28 30 32 33 34 31 28 30 30 29 29 29 28 27 26 26 26 26 25 26 26 25 23 21 20 21 21 20 20
36 36 36 36 33 32 32 32 31 30 29 30 29 28 29 30 31 33 33 27 29 31 30 31 32 32 33 32 30 29 30 30 29 30 32 32 29 26 25 24 20 16 13
39 39 36 34 34 34 32 31 31 29 29 28 30 30 31 31 31 33 33 27 27 28 28 30 33 35 32 32 30 29 29 27 24 23 23 22 20 18 16 17 13 13 12
31 32 32 32 31 32 31 30 30 29 26 28 26 27 28 27 29 30 33 31 28 27 28 27 28 29 31 33 38 32 29 23 22 22 22 20 17 15 16 15 14 16 10
28 30 30 31 30 28 28 27 26 25 26 24 25 25 25 25 28 29 32 34 32 29 28 26 25 25 25 27 27 30 31 31 26 23 21 15 17 19 16 13 11 8 11
26 27 27 27 28 26 27 25 25 25 25 25 25 24 23 24 24 27 30 30 32 32 27 24 23 20 20 23 25 25 23 20 20 21 18 18 17 15 8 7 8 5 7
24 24 24 24 24 25 24 25 25 26 26 25 24 23 22 22 21 20 21 27 30 29 34 30 27 24 22 23 20 20 21 22 22 20 18 17 12 10 8 7 5 3 3
22 22 22 22 23 22 23 23 24 24 25 24 23 22 21 20 21 21 19 17 17 21 23 21 23 24 25 22 24 24 22 20 21 21 20 18 15 12 10 7 6 6 7
14 16 18 18 18 18 19 17 16 12 19 22 20 20 20 18 10 17 21 20 15 15 15 19 20 19 19 19 21 23 23 27 25 21 20 18 16 14 10 8 7 9 9
15 5 12 16 17 16 12 5 6 9 21 18 27 26 21 14 14 18 16 16 19 21 19 17 18 18 20 20 19 19 19 20 19 18 19 16 14 13 12 11 11 12 11
8 5 7 9 14 18 19 12 3 13 2 13 29 30 27 28 27 24 21 17 16 19 18 20 19 19 18 20 19 19 18 15 16 16 15 15 15 13 13 13 15 15 14
9 6 6 2 1 4 10 5 11 17 18 24 14 12 18 21 23 26 28 24 22 22 21 22 22 23 22 21 19 17 16 19 22 22 20 18 16 17 14 15 15 16 14
10 6 7 5 3 4 4 13 23 22 17 18 15 10 10 8 10 11 17 23 24 25 23 24 21 22 20 19 17 16 15 16 20 21 20 20 17 17 16 17 17 17 18
13 11 7 6 3 4 8 7 6 14 16 15 13 9 9 9 10 11 13 13 18 22 23 24 22 19 19 18 17 15 15 18 18 20 19 18 17 17 17 18 18 18 18
11 12 13 12 9 6 5 8 13 16 15 13 11 9 10 9 11 13 13 14 15 17 19 20 20 19 18 18 17 16 16 16 17 19 19 19 18 18 18 19 19 19 19
9 10 10 11 12 12 12 14 14 14 15 13 11 11 10 12 13 13 15 14 14 13 12 9 11 14 13 13 13 14 15 16 17 17 18 18 19 19 19 21 21 19 20
9 8 9 12 13 14 13 12 12 11 13 14 14 13 15 13 13 14 12 11 11 11 12 12 12 13 12 11 11 12 12 13 15 16 17 17 19 16 18 19 20 21 21
13 11 10 10 13 14 14 10 10 9 7 9 7 7 8 7 4 3 1 7 9 8 7 7 6 6 7 8 10 11 14 16 15 15 16 17 17 17 19 18 18 18 20
21 20 19 18 18 19 18 16 13 12 10 9 9 5 4 3 3 3 5 9 8 7 8 6 9 6 4 1 10 14 14 16 19 17 13 15 16 17 19 20 19 20 20

GFSGL_925_spd_075.txt.gz
Wind_Speed
38 37 36 34 34 34 28 25 25 19 17 18 15 14 16 17 16 17 17 12 16 14 13 10 11 12 12 11 11 11 12 12 13 15 14 14 13 14 20 20 16 18 21
39 38 38 36 36 34 33 31 26 24 22 21 20 19 18 19 19 19 18 17 16 15 14 15 15 15 17 16 14 15 15 14 15 15 18 19 19 19 18 17 17 20 21
38 39 37 37 36 35 33 32 30 28 26 24 23 23 21 20 20 20 20 20 18 17 17 17 17 17 17 18 15 16 16 17 17 18 19 19 20 20 20 19 18 22 21
38 39 39 38 38 37 34 34 33 31 29 27 26 25 24 23 22 22 22 22 21 20 19 18 18 19 19 18 18 18 19 20 20 20 21 21 20 19 19 18 17 22 24
36 36 38 39 38 36 37 35 33 32 30 29 27 26 26 25 25 26 25 23 23 22 20 20 20 21 21 20 19 19 18 19 20 20 19 20 20 19 20 23 23 24 25
35 37 36 37 37 38 37 35 33 32 31 30 29 28 28 28 28 28 28 25 24 23 22 22 23 22 23 25 28 30 29 24 19 22 24 22 22 22 22 24 23 23 19
31 34 33 34 35 36 36 35 35 33 31 31 30 29 29 31 29 29 31 28 23 24 24 23 23 23 25 27 25 26 27 27 29 31 28 27 26 23 21 20 19 19 20
33 32 35 35 35 35 34 34 34 33 34 32 31 31 30 30 31 32 30 31 29 28 25 24 26 27 27 24 22 24 25 24 24 25 28 27 22 19 16 22 23 20 20
33 36 37 36 35 34 35 34 33 31 30 31 31 31 31 30 31 34 32 27 28 29 28 29 30 30 31 30 30 30 30 31 29 29 31 33 32 30 25 23 17 16 17
38 37 34 35 35 35 35 35 34 32 32 32 31 30 31 30 31 34 34 28 27 28 28 31 34 35 33 33 32 29 29 27 24 23 22 21 18 16 16 18 14 13 12
32 32 32 34 34 34 32 31 32 33 31 30 28 28 29 30 30 32 35 33 29 27 28 27 28 30 31 31 35 33 29 24 22 21 21 20 17 17 15 12 11 11 8
27 30 32 32 33 32 31 29 28 27 26 25 26 24 28 28 30 31 33 35 34 31 29 27 25 28 28 28 28 29 28 29 26 24 22 21 18 17 18 17 13 8 7
24 26 28 30 31 29 31 29 28 27 28 28 26 27 28 27 27 31 34 35 37 36 31 27 27 26 17 17 21 23 22 19 20 21 20 18 17 18 13 14 11 10 10
22 23 26 28 29 30 30 29 28 28 28 26 26 25 25 25 26 25 30 35 34 34 37 36 30 23 19 19 17 19 22 20 22 21 20 19 17 16 11 11 11 10 5
20 24 25 27 29 29 27 29 29 27 28 27 25 24 23 23 25 25 22 20 22 27 24 22 23 25 26 26 24 23 21 19 20 21 22 20 19 13 12 15 14 12 10
15 18 24 26 27 29 29 18 23 19 23 20 16 16 11 15 13 18 23 18 12 21 21 22 23 23 23 22 19 20 22 23 23 22 21 19 17 19 19 19 18 15 13
19 6 20 25 26 27 26 26 21 16 14 13 19 17 12 8 5 3 8 15 15 14 16 18 20 21 17 16 19 19 20 23 22 20 20 18 18 19 21 19 18 15 14
23 21 20 15 18 25 25 25 23 23 19 20 20 19 19 23 19 18 12 12 15 18 20 22 22 16 16 19 20 21 22 18 16 17 18 18 19 19 20 18 18 17 16
20 22 17 17 10 3 12 16 14 13 19 19 15 16 19 19 22 23 24 22 23 24 22 22 23 22 22 22 23 22 20 16 15 16 18 18 19 19 19 18 19 18 17
18 14 17 14 12 6 7 10 10 11 12 14 12 8 16 13 10 12 16 20 25 29 26 24 23 22 23 22 18 17 13 14 16 17 20 20 23 23 19 21 19 16 18
7 9 11 9 7 6 2 10 11 12 9 4 4 3 6 8 9 6 16 17 20 24 26 24 23 22 15 12 15 16 16 17 18 17 17 22 22 21 23 23 20 18 18
4 4 5 8 10 12 10 14 6 9 6 6 8 6 15 8 8 13 17 19 16 16 15 18 20 22 15 16 18 17 18 18 18 17 17 19 21 22 22 22 19 20 19
13 13 10 4 3 6 9 19 7 10 12 12 18 20 14 12 13 17 16 16 14 14 15 14 16 17 19 15 13 14 16 17 16 14 16 18 20 23 20 20 20 20 19
16 14 12 9 9 8 7 13 8 5 8 10 8 11 8 6 2 1 3 6 10 14 14 11 13 14 15 13 13 13 14 13 13 15 17 17 18 18 18 19 20 21 16
17 12 10 13 14 13 13 14 17 19 18 18 17 16 15 13 11 9 10 8 6 3 2 5 6 6 5 2 5 5 11 17 19 15 11 16 17 16 19 17 16 18 19
22 21 21 20 19 18 19 18 18 17 17 15 14 13 12 12 11 11 11 9 7 6 5 2 3 3 4 7 10 12 11 12 14 17 14 12 14 16 17 16 17 19 21

GFSGL_925_spd_078.txt.gz
Wind_Speed
38 38 36 35 35 38 26 31 28 25 19 14 14 15 17 18 18 18 20 17 19 19 15 13 17 12 14 13 10 9 13 12 14 18 16 18 21 21 22 22 23 23 20
39 37 38 36 37 36 38 29 31 25 23 19 20 16 19 19 20 21 21 20 16 19 17 15 13 12 15 14 14 15 15 16 18 18 23 23 20 22 20 20 22 23 23
37 36 36 36 36 37 38 35 32 35 29 26 22 25 21 22 22 23 23 23 21 20 19 17 18 18 18 16 17 16 15 14 16 20 20 18 24 24 27 27 25 23 19
38 37 37 38 38 37 35 38 36 32 32 30 31 27 26 25 24 25 25 25 23 22 21 22 21 21 21 20 21 20 19 20 21 20 22 24 24 22 16 21 22 21 21
37 38 39 39 38 36 35 35 36 36 34 33 31 30 29 28 27 27 27 26 26 24 23 24 24 23 21 21 20 20 20 20 18 19 18 16 19 19 22 21 21 25 26
36 38 38 36 37 37 36 34 35 36 34 34 33 32 30 30 30 30 30 29 26 28 27 28 26 23 24 26 27 27 28 28 27 22 21 21 23 23 20 24 21 19 8
30 34 36 37 38 39 37 36 36 37 36 34 34 33 33 33 32 32 32 33 29 29 27 27 26 25 27 28 29 29 30 29 29 30 28 27 26 28 23 22 17 16 19
31 29 34 36 37 37 37 37 37 35 35 35 34 34 33 33 35 35 31 35 33 30 29 30 31 30 29 26 21 25 27 27 27 28 31 30 29 26 22 22 19 21 20
31 31 33 36 34 35 36 37 36 34 34 35 35 34 34 34 34 37 36 32 36 34 35 35 32 30 31 29 30 33 34 35 32 28 29 31 31 30 27 27 27 17 13
34 31 29 33 34 36 37 36 35 35 35 34 34 34 34 33 34 35 36 36 28 28 30 36 36 36 37 35 33 33 28 28 24 24 24 22 20 19 18 18 22 20 16
28 32 32 32 36 35 33 33 33 34 33 33 32 31 31 33 32 34 37 37 30 28 28 29 31 33 32 31 34 37 35 30 25 22 21 20 21 22 17 18 19 19 15
23 32 33 34 32 32 33 32 33 32 32 29 30 28 29 32 34 35 35 38 39 32 30 28 29 30 32 32 32 33 32 31 28 22 21 21 21 20 14 17 15 12 12
23 29 33 31 31 31 33 32 30 31 29 29 27 26 26 27 30 34 35 38 38 41 34 29 29 29 27 23 19 24 28 29 28 20 19 20 20 17 17 17 15 15 12
26 24 26 28 29 31 28 32 30 29 29 27 28 25 24 26 25 30 37 39 39 39 41 38 36 32 24 17 15 16 20 23 24 20 20 21 18 17 18 18 16 15 11
12 17 20 22 28 26 31 28 31 31 31 30 28 28 22 23 27 30 28 36 39 39 37 30 25 24 27 26 21 20 21 21 25 24 22 20 20 20 19 19 18 16 14
20 14 11 19 23 27 26 25 32 31 31 34 32 23 23 24 23 29 36 31 27 25 24 21 18 19 19 19 21 23 23 22 20 22 23 22 21 19 17 19 19 18 21
20 19 11 13 19 26 25 28 19 21 29 32 29 33 18 15 11 12 10 19 23 23 21 19 18 18 19 20 20 12 11 18 26 28 20 21 22 19 20 23 21 22 21
21 19 17 17 16 11 29 27 25 22 17 17 24 27 25 21 16 12 14 15 14 16 17 17 17 16 17 17 12 11 17 23 24 23 20 18 17 21 20 22 23 22 21
19 20 21 19 17 20 13 27 27 23 21 19 16 20 20 19 18 21 21 19 18 17 19 21 23 22 20 19 21 23 27 25 19 21 21 16 17 21 21 23 22 24 23
16 18 20 18 19 24 23 16 9 8 5 6 12 11 10 15 11 12 18 21 18 19 19 19 17 21 24 25 24 25 26 19 15 14 14 15 17 21 23 23 22 20 25
17 16 13 15 19 19 20 19 15 6 11 10 8 6 10 14 10 15 16 18 20 20 14 18 18 18 16 12 10 18 16 13 14 16 19 20 19 22 26 26 25 25 22
17 9 6 8 13 18 17 16 17 14 16 10 3 17 14 13 6 3 8 7 10 12 12 19 12 12 13 14 15 14 18 18 16 17 16 16 18 21 22 23 21 23 23
15 17 17 14 14 13 15 16 21 23 23 16 28 18 6 9 6 4 5 13 13 11 19 19 14 5 8 8 4 8 14 14 15 17 18 17 16 19 20 20 20 20 23
16 17 16 14 18 17 22 26 28 27 26 23 16 19 28 22 23 20 16 22 10 12 15 15 15 14 9 6 5 3 5 6 6 6 11 16 17 20 20 21 22 22 22
19 18 20 20 17 19 22 24 22 22 23 24 19 20 18 13 15 17 16 14 15 18 15 14 17 16 14 13 11 9 8 9 13 17 15 11 19 19 18 17 13 16 19
22 21 22 22 23 26 27 21 19 19 19 17 19 19 15 15 17 17 18 19 19 16 14 15 17 17 15 17 17 20 19 12 11 12 13 14 12 11 13 12 14 14 14

GFSGL_925_spd_081.txt.gz
Wind_Speed
42 38 38 39 40 37 29 30 26 23 13 16 29 29 25 22 18 17 17 15 16 16 14 15 13 16 12 12 11 7 8 11 10 17 16 16 21 23 17 18 24 26 27
42 39 39 41 41 42 36 34 31 28 25 18 25 26 27 24 22 21 21 21 21 16 20 19 18 13 17 15 13 13 12 12 14 17 19 22 21 20 26 29 26 20 21
40 40 37 38 41 39 39 36 32 31 32 26 25 27 26 25 22 23 24 23 22 19 19 22 18 17 17 18 17 16 16 15 15 18 22 23 25 24 26 15 21 16 15
41 40 38 39 38 40 39 44 33 34 32 32 28 27 27 26 25 24 25 25 24 22 22 22 22 22 22 21 21 21 21 21 21 21 22 23 25 25 12 23 25 24 29
40 40 40 39 37 34 37 38 43 34 39 39 33 32 30 30 29 28 28 28 28 26 25 26 23 24 24 24 25 25 24 24 24 23 20 17 22 25 28 25 24 28 23
42 40 38 36 37 36 34 35 40 43 34 40 40 41 38 34 33 32 31 31 30 30 30 28 28 24 26 28 29 25 23 21 23 25 28 25 28 30 27 25 24 20 5
38 39 39 39 37 39 36 35 35 39 40 36 37 38 38 39 35 33 33 32 33 33 32 32 31 30 31 31 30 28 29 31 32 33 32 33 31 31 27 26 23 20 19
30 35 39 38 39 37 37 37 35 33 35 34 35 36 36 37 38 36 34 35 36 36 35 35 33 32 31 29 28 29 30 31 33 33 34 35 35 30 26 27 27 23 21
27 34 36 39 36 36 38 37 36 34 32 35 34 33 36 36 37 38 36 37 37 40 39 38 36 36 36 33 32 33 35 36 34 32 32 31 30 26 24 26 25 21 15
25 22 37 40 39 39 39 38 36 36 36 31 32 36 37 38 36 37 37 39 38 37 37 40 40 39 37 33 30 30 33 39 36 34 30 26 24 24 21 22 24 25 16
28 22 28 38 41 40 38 36 36 34 32 33 32 32 33 37 37 39 39 39 36 32 35 34 41 43 41 40 38 39 41 36 34 28 25 23 21 22 22 24 23 23 21
29 26 20 36 36 33 36 34 34 33 32 31 31 30 32 34 37 39 40 41 42 36 34 35 36 36 34 31 31 34 34 36 36 32 28 26 25 27 26 22 19 19 17
31 29 23 33 36 32 34 33 31 32 29 30 28 29 29 30 34 38 40 41 41 44 39 35 33 28 24 26 25 22 22 30 35 32 31 33 30 26 20 20 18 16 16
30 34 24 29 30 29 31 32 31 31 31 29 29 29 29 31 29 32 39 42 41 42 45 40 38 34 30 29 25 21 19 21 24 27 29 28 22 18 20 20 18 18 16
29 31 20 18 29 31 31 32 32 33 34 31 30 29 28 27 33 35 35 40 42 42 41 40 30 32 32 33 33 36 32 26 23 24 23 22 19 19 20 20 20 20 18
24 24 28 16 12 24 29 26 28 33 34 37 34 31 29 33 28 35 41 39 37 35 32 25 26 26 25 26 28 29 28 28 26 25 25 24 20 21 21 18 21 24 23
23 27 28 26 16 12 16 24 22 25 35 35 36 36 36 31 39 36 34 40 41 37 24 27 25 25 27 27 27 25 24 25 27 25 22 21 20 21 20 19 21 23 23
21 20 23 22 20 16 13 12 22 22 20 28 34 37 40 41 29 29 31 26 28 34 28 27 26 26 26 26 26 27 24 22 23 23 22 21 21 23 20 21 21 23 22
19 18 20 26 26 20 13 10 17 23 25 25 27 28 28 30 24 18 16 17 25 25 25 23 23 23 24 24 22 22 24 23 22 20 23 24 23 24 21 19 20 23 22
16 15 13 15 21 21 17 10 5 12 21 19 22 30 28 25 21 20 19 18 16 19 21 24 24 27 26 27 26 26 27 25 23 21 22 23 24 24 20 20 21 20 24
23 23 12 10 12 17 19 16 17 15 1 12 10 12 19 24 19 17 14 16 16 16 14 15 17 17 14 16 17 28 27 28 26 24 20 19 18 19 19 18 22 24 24
16 17 19 11 9 12 16 21 23 24 21 20 17 21 16 21 23 24 23 22 20 15 13 12 14 13 13 10 8 3 9 14 16 16 18 17 15 15 15 15 19 22 23
15 15 15 16 17 16 20 18 24 28 23 26 21 24 25 27 25 23 21 18 17 17 18 14 16 16 13 16 14 12 11 7 4 3 9 16 16 17 16 16 18 21 21
16 16 13 14 19 19 18 18 15 25 22 22 25 22 28 25 26 23 20 18 18 18 18 20 19 15 17 15 14 14 15 14 8 7 4 4 14 17 18 18 20 21 24
20 19 19 20 20 19 20 22 21 21 20 21 24 18 20 23 20 25 20 21 20 19 19 22 19 17 19 15 17 18 17 15 14 14 11 9 10 9 18 23 25 27 25
23 22 21 23 22 22 23 23 21 20 24 23 22 22 20 22 23 25 20 26 21 18 26 19 17 20 16 17 19 22 22 22 19 18 15 16 17 15 16 10 13 16 16

GFSGL_925_spd_084.txt.gz
Wind_Speed
43 43 42 45 42 38 36 32 25 30 30 26 23 31 28 25 21 19 17 13 13 13 12 11 11 10 11 11 8 8 7 6 5 15 16 19 20 21 21 24 24 17 17
41 39 41 44 47 42 39 38 33 25 29 28 26 24 33 28 24 22 20 18 17 14 15 14 15 13 14 13 13 12 11 11 10 15 16 20 24 26 22 22 11 18 21
32 36 36 40 42 43 42 38 35 33 26 23 23 24 32 29 26 25 23 21 20 20 20 17 18 18 17 16 15 16 15 15 14 17 23 24 26 23 25 20 21 30 25
33 34 34 38 41 43 44 44 39 37 35 28 26 27 32 30 28 27 25 24 23 23 22 22 19 21 20 19 19 19 19 19 20 22 24 26 27 25 18 25 31 26 25
39 37 38 38 40 41 41 42 46 41 39 37 31 32 33 34 33 30 27 25 24 24 24 23 24 22 22 24 23 21 21 23 24 25 26 26 26 26 29 29 27 24 23
35 38 39 35 36 37 39 41 45 46 44 37 38 33 34 35 34 32 30 28 27 27 28 27 26 25 26 24 24 24 25 23 23 23 24 24 29 32 32 29 25 20 5
24 29 31 35 34 37 38 40 39 42 43 43 39 41 39 37 36 34 32 31 31 31 31 30 29 28 27 28 28 27 27 27 27 29 30 33 32 35 31 31 30 24 21
4 7 17 30 36 35 35 37 38 37 39 39 38 39 41 42 43 42 38 35 34 35 34 34 33 32 30 28 27 28 29 30 29 29 31 33 33 31 28 27 27 24 23
11 14 19 22 34 35 35 37 38 34 34 37 38 36 38 38 39 39 37 37 37 38 37 37 36 36 34 31 30 31 32 35 32 32 33 33 32 30 27 26 27 21 11
17 25 20 21 35 38 40 38 38 35 35 33 34 36 38 39 40 41 37 37 38 39 39 40 40 40 39 36 34 34 35 40 35 36 35 32 26 24 21 23 24 21 18
21 23 20 31 35 42 40 38 36 36 33 31 32 33 35 38 40 39 39 38 35 31 37 36 42 43 40 38 37 37 39 40 39 33 33 30 25 22 21 20 20 21 23
23 18 11 38 32 39 37 35 36 33 32 31 30 28 32 36 39 39 39 40 41 36 32 36 39 40 38 36 36 39 39 38 39 37 35 34 34 32 27 23 21 18 22
20 19 15 23 27 35 35 34 32 33 31 29 28 28 29 29 32 38 41 41 41 43 40 37 37 36 33 32 31 30 31 34 35 34 32 33 32 31 25 20 17 15 17
21 21 22 20 11 27 33 33 32 31 30 27 26 27 26 26 28 30 34 40 41 41 43 43 41 38 35 33 30 28 26 25 25 26 29 29 26 22 18 18 18 17 17
23 22 26 24 13 11 30 33 35 36 37 33 31 29 26 27 32 31 30 35 40 43 43 39 29 34 34 34 33 32 31 30 31 32 29 26 24 21 19 18 17 20 19
21 22 22 24 21 13 10 28 32 31 35 38 35 33 31 35 31 32 35 36 36 36 29 25 26 27 26 27 26 28 31 36 38 36 33 30 27 25 23 19 17 21 24
24 21 21 20 19 17 16 11 17 32 30 33 38 37 36 31 33 34 31 32 37 36 27 26 25 24 28 29 30 31 32 30 27 26 27 28 26 24 22 21 20 23 25
20 17 17 17 15 16 16 15 14 15 21 28 33 38 40 38 36 33 33 37 30 34 27 26 28 29 31 31 30 28 27 24 22 23 24 26 26 24 22 23 22 21 22
18 16 16 14 13 11 12 13 11 16 21 21 24 29 38 39 38 39 35 31 29 32 33 32 32 31 31 30 28 26 26 27 26 27 26 24 24 23 23 23 23 21 19
14 11 11 8 11 10 12 12 12 11 13 20 22 21 25 23 21 22 19 12 11 13 17 21 21 22 22 21 21 22 25 25 25 25 23 20 20 20 21 23 21 16 16
10 10 9 7 9 8 8 11 15 13 9 16 11 7 18 15 12 13 8 4 1 2 3 6 9 10 10 11 10 10 9 12 17 22 26 23 21 20 20 20 17 15 16
7 8 8 9 9 11 13 20 20 17 18 18 22 24 21 20 17 14 13 16 15 5 9 12 13 12 11 9 6 5 5 1 2 5 6 10 13 15 15 15 15 15 15
8 6 7 11 10 10 16 22 22 19 17 17 18 23 24 24 21 17 18 17 24 17 14 13 13 12 11 12 11 10 10 6 4 3 6 6 10 14 15 15 15 14 16
10 7 6 13 14 13 15 19 20 15 16 20 19 18 27 24 25 20 20 21 21 20 16 16 16 15 14 13 10 11 11 8 5 6 2 6 8 10 12 15 20 18 18
9 12 12 18 16 15 16 19 18 18 18 16 21 15 17 17 27 23 20 23 22 22 21 19 17 17 18 17 16 14 9 10 9 8 7 4 4 7 10 12 12 18 21
12 13 17 23 21 22 19 21 20 20 20 19 20 19 21 20 22 23 21 20 22 20 21 19 18 19 22 13 17 13 18 16 12 9 10 6 8 6 8 11 12 14 15

GFSGL_925_spd_087.txt.gz
Wind_Speed
40 42 39 41 38 34 34 32 30 20 25 30 29 27 26 25 22 20 18 16 16 14 14 13 12 11 10 7 7 6 7 6 5 11 15 17 20 23 24 22 21 18 32
42 39 40 41 40 39 37 36 33 31 23 26 28 26 27 28 27 25 22 20 19 17 16 15 14 11 11 10 9 11 10 9 10 14 18 21 23 22 22 22 18 27 28
28 35 39 39 39 42 42 39 36 33 31 26 28 30 29 29 29 28 25 23 21 20 18 16 15 15 16 14 13 13 13 13 13 15 20 23 24 23 24 22 27 27 23
28 30 31 36 44 43 43 44 41 37 34 33 29 27 30 29 25 30 27 25 24 23 22 21 20 20 18 17 16 17 17 17 17 18 21 24 25 25 24 26 30 28 25
36 30 34 37 39 40 40 42 44 42 39 37 35 30 27 27 27 30 29 27 26 25 24 24 23 22 23 20 20 21 21 20 20 21 23 25 26 27 28 28 27 26 30
33 36 32 30 32 36 39 40 40 45 44 42 39 37 35 32 30 32 32 31 30 28 27 26 25 24 24 23 23 23 22 23 24 24 25 23 26 28 31 30 26 24 6
29 35 33 36 30 33 36 36 37 39 42 42 45 43 41 41 38 36 35 35 34 32 31 29 29 28 27 26 25 25 25 25 25 25 28 30 31 31 29 28 26 19 21
7 18 18 29 33 29 30 34 38 37 37 37 39 43 44 45 42 37 36 36 36 36 34 33 33 33 31 28 26 26 26 26 26 26 27 29 29 28 28 27 24 22 23
5 5 2 4 3 21 30 32 35 33 34 36 37 37 38 41 44 42 39 37 37 39 39 38 36 35 33 30 29 30 31 32 29 27 28 28 27 27 25 24 24 18 10
16 12 11 10 9 9 19 34 34 31 34 32 33 37 40 41 41 43 43 41 35 38 39 40 39 38 36 33 32 33 34 38 33 31 30 28 27 24 20 19 19 19 17
22 17 11 12 13 18 17 20 32 35 34 30 31 32 34 39 39 40 41 42 36 31 34 36 39 38 37 36 35 36 38 35 34 33 33 33 32 29 25 23 21 20 20
29 27 24 20 14 21 21 21 30 34 31 31 30 28 30 34 37 39 40 39 39 36 31 33 37 37 35 33 30 32 32 32 34 35 36 37 33 31 29 25 20 22 22
25 23 25 23 22 23 27 23 25 29 30 30 27 26 26 27 33 37 38 38 38 42 39 34 36 35 32 29 29 28 27 28 29 31 31 34 33 28 24 22 17 16 18
24 24 22 26 30 18 20 18 17 27 31 31 27 28 26 24 27 30 33 36 37 39 41 40 38 35 33 33 32 31 29 29 30 33 32 30 27 24 24 19 17 16 15
24 22 21 23 28 31 25 22 26 35 37 34 33 31 27 27 32 34 33 34 35 37 37 38 31 32 35 37 38 37 35 31 31 33 33 32 30 28 26 21 18 17 18
18 23 23 17 20 26 28 23 21 32 32 36 34 31 30 35 30 30 33 33 31 29 27 25 24 25 27 28 28 31 32 34 36 37 36 36 35 32 30 24 19 19 21
13 19 22 20 19 18 20 21 16 12 33 33 39 42 37 32 31 32 29 29 31 29 25 24 24 25 27 28 29 29 30 32 29 27 28 29 28 26 23 21 21 21 23
13 16 19 15 20 22 20 18 16 13 12 18 33 40 42 38 35 29 30 28 28 28 29 26 26 29 29 31 30 30 31 29 27 25 23 22 21 21 21 21 23 24 20
12 15 17 15 16 18 21 21 15 13 13 15 20 23 32 36 38 37 31 30 31 29 30 31 32 31 32 32 31 30 28 27 25 23 22 22 22 21 23 23 23 22 21
11 9 13 14 13 13 15 16 17 13 11 14 16 21 22 21 25 31 35 35 33 31 25 23 22 26 27 26 25 26 26 25 24 23 24 24 24 24 25 24 23 20 21
11 8 10 10 9 8 10 10 12 10 7 6 7 12 16 18 17 17 17 17 14 13 10 13 15 14 13 13 15 18 20 24 23 22 21 21 22 24 24 21 16 15 14
9 7 5 5 7 4 5 6 6 4 3 5 5 7 8 16 19 19 18 15 13 9 8 8 7 4 5 5 4 5 5 6 8 9 14 20 20 20 19 17 15 15 14
5 4 3 1 3 2 5 5 5 4 6 10 10 11 11 15 15 15 17 15 15 16 13 14 14 10 7 8 7 9 6 4 4 4 5 6 7 14 15 14 14 13 15
2 1 2 1 4 9 6 7 6 9 11 15 16 17 18 17 18 19 20 22 21 20 18 18 18 16 14 14 16 14 13 11 9 7 5 8 8 2 7 11 9 11 14
7 6 7 8 8 8 8 11 12 11 12 18 19 20 18 20 19 22 24 23 23 23 23 22 18 17 17 19 17 20 16 10 9 10 11 10 11 10 3 2 5 6 7
14 12 14 13 14 12 15 15 13 14 15 20 22 23 21 22 21 21 20 22 24 21 22 21 17 19 17 12 12 17 16 17 14 14 13 13 13 12 10 7 9 7 3

GFSGL_925_spd_093.txt.gz
Wind_Speed
26 28 28 29 29 26 24 24 22 20 17 15 15 14 14 15 13 13 12 9 10 8 8 7 8 8 6 6 6 6 6 6 10 13 12 14 15 15 16 15 13 14 15
26 25 25 25 27 25 26 26 26 25 21 18 18 16 15 16 17 17 15 12 12 11 10 9 9 8 8 7 7 8 8 8 10 13 13 14 14 15 16 16 14 14 14
21 24 23 23 23 26 27 28 26 25 25 23 21 17 15 16 17 18 17 15 15 14 12 11 11 9 10 9 9 9 10 9 10 12 16 14 15 15 17 14 14 15 15
18 20 21 24 26 27 26 26 28 29 27 26 26 24 21 17 18 17 17 17 17 17 15 13 13 12 12 12 11 11 10 10 11 13 15 16 15 15 13 15 19 16 18
11 17 20 21 21 22 24 24 24 25 28 29 27 25 22 21 19 20 19 18 17 16 17 16 15 15 15 15 13 13 12 13 14 15 16 16 16 14 15 15 16 18 18
7 15 17 17 18 21 21 23 23 25 26 26 27 27 26 25 25 26 22 18 18 17 18 18 18 18 17 17 17 17 17 15 16 16 17 16 17 15 15 14 16 16 11
13 8 12 17 20 20 20 20 23 24 23 24 26 26 30 33 32 33 29 23 19 19 21 20 19 18 20 18 17 18 19 20 22 21 20 19 21 17 15 16 15 15 16
16 15 8 6 14 19 19 21 22 22 23 25 25 24 27 30 37 38 36 33 26 24 24 25 24 23 22 22 18 18 18 18 20 22 23 23 20 17 15 16 15 15 16
16 15 14 12 9 8 15 21 21 23 23 24 24 24 26 29 32 34 35 29 30 31 30 29 28 29 30 30 25 21 20 22 20 22 24 25 25 24 20 16 16 15 15
16 15 15 16 15 14 13 11 22 21 22 22 24 25 26 30 32 34 32 28 30 32 31 31 35 37 37 34 31 24 23 25 20 18 19 22 24 24 21 21 18 17 16
19 17 16 16 17 15 14 13 15 14 20 22 24 25 27 30 33 34 32 31 30 29 31 31 33 35 38 39 37 31 29 25 21 19 20 21 20 18 17 18 20 19 19
22 24 21 18 11 16 17 18 16 19 22 20 22 25 25 30 34 34 33 34 34 31 31 30 30 33 36 35 32 35 32 28 22 21 22 22 21 20 17 17 17 18 18
19 20 23 21 17 12 19 19 16 20 20 19 22 22 24 24 29 33 35 33 34 37 34 31 31 32 33 32 29 29 25 24 21 22 23 23 21 19 17 16 17 18 18
19 18 19 21 25 19 12 17 16 19 17 25 24 23 21 22 26 26 26 31 33 35 38 35 33 32 29 26 24 28 29 24 23 23 24 23 20 19 19 17 17 16 17
20 18 18 15 19 24 15 17 20 22 20 27 23 23 23 23 29 30 26 23 27 32 31 26 26 27 27 26 26 26 23 24 25 26 26 24 23 22 22 19 20 19 21
21 20 18 17 16 19 23 19 23 23 22 27 31 31 35 32 32 29 32 34 34 28 24 25 25 26 26 26 26 24 24 28 27 25 25 25 24 23 22 20 20 22 23
18 19 20 19 18 16 19 11 17 20 22 23 21 22 19 29 36 31 35 32 31 29 25 23 25 23 24 25 23 24 24 24 22 23 23 23 22 22 21 21 19 21 23
19 17 20 19 20 19 17 15 15 21 22 23 24 22 15 17 16 31 36 28 27 31 25 24 21 20 21 20 20 23 23 21 21 21 21 22 21 20 18 19 19 21 20
18 15 17 18 19 19 19 18 22 17 20 22 25 19 10 16 13 15 23 23 20 20 30 29 28 24 22 22 23 24 25 24 21 19 20 20 19 19 19 18 18 20 19
15 16 17 18 19 19 17 17 17 16 18 18 18 16 20 17 13 5 10 13 21 21 15 20 25 25 27 26 26 25 24 22 22 21 20 19 19 19 19 19 19 18 21
12 14 13 16 17 16 16 16 15 14 16 17 16 13 15 16 16 6 12 21 19 16 13 16 16 21 22 24 24 24 25 23 20 18 17 18 20 20 21 22 23 22 22
12 13 13 14 15 13 13 12 12 13 13 15 15 12 14 9 9 5 8 11 10 6 12 18 25 20 17 16 15 14 16 17 17 16 13 13 13 15 17 18 18 22 20
13 14 13 13 12 12 12 11 9 11 11 12 11 10 8 5 2 1 3 4 4 7 6 10 9 7 6 5 5 6 7 8 9 9 8 7 6 7 9 11 15 18 19
14 13 13 12 10 11 9 8 7 8 8 9 5 6 4 2 2 3 5 6 8 10 11 12 14 12 11 11 10 7 5 6 6 5 5 4 4 2 1 2 4 1 3
11 12 11 9 7 8 8 6 5 5 5 4 3 2 1 5 7 8 9 12 14 17 16 16 16 16 14 14 14 9 6 9 10 10 7 4 5 5 5 4 4 4 5
9 9 9 7 4 3 4 3 1 1 1 2 6 6 7 11 14 17 16 17 19 21 21 19 18 18 16 16 14 9 7 7 5 3 5 4 5 5 6 5 4 4 4

GFSGL_925_spd_096.txt.gz
Wind_Speed
20 21 20 22 20 18 19 18 18 16 13 13 12 12 12 12 12 11 8 6 9 8 8 8 9 9 10 9 8 9 9 9 12 14 13 12 15 14 15 14 14 13 14
16 18 20 20 19 19 19 19 17 19 16 15 14 15 14 13 13 14 12 10 10 9 9 10 10 10 10 10 11 9 11 10 12 14 14 15 14 14 14 15 13 14 15
14 15 17 19 21 22 20 19 18 18 19 18 16 16 16 15 16 16 16 14 13 12 12 12 12 11 12 12 10 10 11 10 11 15 15 15 14 14 13 13 11 14 13
8 11 14 17 19 20 20 20 19 19 18 19 20 19 18 16 15 17 17 16 16 15 14 15 14 14 14 13 13 12 12 13 14 15 15 14 14 12 12 13 15 14 15
7 9 12 13 16 17 17 19 21 20 20 20 20 21 21 20 20 19 19 19 17 16 15 16 16 15 16 16 15 14 13 14 15 16 16 15 14 12 13 14 15 15 15
9 6 8 10 10 13 15 17 18 22 22 21 22 23 24 25 26 25 23 21 20 19 18 18 18 18 19 20 20 19 18 15 16 16 17 16 14 15 14 14 15 16 14
14 10 9 6 6 12 14 16 18 20 20 23 23 24 26 26 27 28 30 26 23 22 21 20 20 21 21 19 18 20 22 23 24 21 20 20 20 16 15 15 15 16 17
17 15 14 11 7 7 10 16 18 18 20 21 23 24 26 27 29 31 33 30 28 27 25 24 23 23 21 21 20 20 20 20 20 20 22 24 23 18 15 15 15 16 18
16 17 17 15 14 7 9 13 13 16 18 21 23 24 25 26 27 31 33 30 32 32 31 30 29 28 28 27 27 25 23 24 23 24 26 27 28 26 24 19 19 19 19
17 18 20 19 19 19 12 14 14 14 19 21 22 25 26 27 26 29 32 28 30 32 33 34 37 36 34 33 32 28 27 28 25 23 19 22 24 25 25 28 23 21 21
16 17 16 18 18 13 12 14 16 15 17 13 21 23 24 25 26 28 31 32 31 31 33 33 35 37 40 42 41 34 33 28 26 24 24 25 25 24 22 21 21 23 23
17 18 17 16 15 14 14 17 15 12 15 16 17 18 19 20 27 31 32 36 36 33 33 32 32 34 36 38 38 40 39 35 29 30 28 27 26 24 23 22 22 23 22
19 18 18 17 16 15 14 18 16 11 12 14 17 18 22 20 18 27 32 38 40 41 36 34 33 30 27 31 33 34 34 28 29 30 30 29 27 26 22 20 19 19 22
22 21 19 19 18 18 15 14 16 15 10 13 15 20 21 19 22 25 25 28 35 39 42 38 35 31 29 28 25 27 30 29 28 28 29 29 27 25 24 22 22 22 22
22 22 21 21 20 19 19 17 17 20 18 18 15 20 19 21 24 23 18 23 23 27 30 25 27 29 30 29 28 29 27 24 28 29 28 27 27 26 26 24 23 23 23
24 23 22 20 19 19 20 22 19 22 20 21 21 21 25 31 36 36 42 37 28 32 19 25 27 29 29 28 27 26 27 28 28 26 27 28 29 28 27 25 25 24 24
26 25 23 20 22 20 19 20 22 20 21 21 21 19 20 28 29 30 37 35 41 38 29 29 26 29 29 28 22 23 24 25 26 27 28 28 27 27 26 25 25 25 24
26 26 26 23 23 22 20 19 20 20 21 20 18 17 22 27 23 24 29 29 28 33 32 28 27 26 25 17 20 21 22 23 25 26 26 26 26 26 25 26 24 23 23
26 26 25 23 23 23 21 20 21 21 21 22 19 20 18 21 26 25 25 27 24 23 24 25 25 25 23 23 24 24 24 24 24 25 26 25 25 25 26 24 23 27 24
24 26 25 22 23 24 22 21 19 20 20 21 20 18 15 22 20 18 20 19 16 17 19 19 21 23 26 26 25 23 24 24 24 26 26 25 26 24 24 23 24 24 22
20 21 19 22 24 23 22 20 17 16 18 19 19 16 16 15 21 20 19 17 15 15 13 9 12 12 17 21 22 24 24 22 25 24 22 28 24 23 22 22 23 22 23
18 20 22 24 22 21 20 16 16 16 17 17 18 17 19 13 16 18 16 16 13 12 18 18 16 13 11 15 19 19 18 19 20 19 18 18 19 19 19 21 21 19 18
19 19 21 22 21 19 15 15 15 14 15 15 15 13 13 11 13 15 10 12 10 10 10 12 15 12 15 16 16 16 15 15 16 17 16 15 14 13 11 12 11 13 18
19 19 19 19 19 18 15 12 14 13 14 14 13 10 10 10 10 12 7 9 9 7 7 8 10 13 11 12 10 6 7 8 10 7 8 7 6 5 5 6 7 6 8
14 15 16 15 16 15 16 14 14 13 10 10 9 8 8 8 7 6 3 4 5 6 7 7 9 8 6 4 5 5 4 2 3 4 1 2 3 2 2 2 2 2 5
12 11 11 11 10 10 11 12 12 9 8 7 6 6 5 3 3 2 3 5 5 8 10 13 15 15 12 9 10 9 8 7 5 4 5 7 5 3 2 2 4 3 5

GFSGL_925_spd_102.txt.gz
Wind_Speed
23 24 23 21 19 16 13 11 16 8 13 10 13 11 12 11 10 11 12 6 12 10 11 8 9 9 15 15 13 9 9 9 7 13 18 19 18 16 13 14 16 17 13
18 24 22 20 20 20 17 16 14 14 10 6 6 10 13 14 15 15 11 11 10 11 10 10 9 9 13 12 13 15 14 13 13 14 17 18 17 17 14 15 15 12 16
5 11 22 23 22 20 20 18 17 15 13 12 11 12 14 15 15 16 15 10 11 12 13 12 14 14 13 13 14 14 13 12 12 13 17 18 18 19 16 14 13 13 17
13 12 7 18 21 19 17 20 19 18 17 17 17 16 17 18 17 16 20 17 15 14 14 16 15 15 16 15 15 15 16 17 16 16 20 23 18 13 9 15 18 15 15
10 15 19 10 2 11 13 17 17 19 19 20 20 19 19 18 18 18 19 16 19 19 19 18 19 20 19 16 16 16 18 18 15 17 15 17 17 18 17 16 15 17 17
15 16 15 13 14 8 4 11 14 18 20 20 22 22 22 21 21 21 19 19 19 19 22 21 21 21 17 19 21 22 24 21 18 16 17 17 20 17 18 19 21 17 9
23 22 19 14 14 14 14 10 8 13 16 18 19 20 21 23 23 22 20 21 24 22 18 21 22 22 23 25 25 24 24 24 25 24 24 24 26 26 24 22 18 19 20
19 19 22 21 17 15 11 12 15 11 9 14 16 18 21 22 21 24 24 24 23 24 28 27 21 23 27 22 18 22 24 24 24 25 29 30 27 25 23 20 19 22 25
18 19 17 14 16 18 16 14 13 14 13 14 12 14 16 20 21 23 23 28 24 25 29 29 29 29 27 25 26 27 24 24 23 24 27 29 28 26 25 22 22 21 21
15 15 15 16 15 13 12 11 13 12 11 12 14 13 16 19 21 20 21 22 21 23 24 29 32 36 36 34 31 29 29 31 28 28 29 29 27 28 28 32 33 24 21
11 12 13 13 13 13 9 11 14 13 14 14 15 16 17 19 20 19 19 22 27 24 24 26 27 29 33 35 37 40 38 35 31 31 31 30 30 30 31 31 32 33 28
15 14 14 14 13 14 15 13 12 13 14 14 15 16 16 18 19 19 21 24 22 24 27 29 30 30 26 22 36 42 43 44 39 32 30 29 28 28 28 29 31 34 36
16 17 17 17 17 17 17 17 16 15 15 11 14 14 13 14 17 16 16 22 18 22 27 25 29 34 37 41 39 37 31 34 40 31 32 32 31 32 32 33 32 35 31
19 19 18 18 19 20 20 19 19 17 15 14 10 13 15 20 15 14 11 11 13 17 17 19 23 27 35 42 42 41 34 28 31 32 34 35 31 31 31 32 33 34 29
19 20 21 20 19 20 20 22 22 22 18 18 16 17 18 20 17 21 24 26 23 22 28 28 29 28 24 25 27 28 31 33 36 35 32 31 31 30 31 31 32 30 27
19 19 20 22 21 21 22 23 23 21 22 24 26 27 28 26 25 25 23 22 24 25 26 25 23 23 25 27 26 27 28 34 36 33 32 31 30 30 30 28 30 31 27
18 20 22 22 22 21 21 22 22 23 24 27 23 26 29 28 22 21 23 23 25 24 27 21 21 24 26 28 30 31 33 33 30 32 34 32 30 30 31 30 29 28 27
18 20 22 21 22 22 22 23 25 26 22 21 24 25 25 29 27 23 22 22 25 16 19 16 19 22 26 30 33 34 33 31 30 29 30 35 17 24 24 21 23 22 23
18 19 20 23 23 25 28 27 25 24 23 23 24 23 25 31 30 21 18 20 17 16 17 20 21 22 25 30 32 34 31 27 26 22 19 23 31 39 32 28 28 30 28
18 19 20 20 22 23 24 24 24 25 26 22 24 26 27 24 21 21 11 14 14 18 19 20 24 26 30 29 28 30 31 29 23 25 23 27 39 38 27 28 31 23 19
19 20 20 22 22 22 23 22 23 26 26 25 27 31 29 21 16 15 15 14 15 21 21 21 24 28 27 27 27 26 21 22 16 23 30 22 29 16 19 25 28 28 28
18 20 22 22 22 23 24 23 23 24 26 27 29 32 22 20 16 18 15 9 17 21 24 27 30 29 26 25 23 23 24 20 17 20 21 18 17 18 16 16 15 16 16
17 20 21 22 23 24 24 25 22 22 24 25 26 24 19 15 14 15 13 14 23 29 31 30 29 29 27 24 22 21 23 23 20 20 21 19 20 22 21 21 22 20 19
16 18 20 21 22 23 23 24 23 23 23 22 20 21 19 15 14 14 20 28 33 33 30 29 28 26 26 23 22 20 20 22 22 21 20 20 19 19 19 17 16 18 16
14 16 17 19 21 21 21 22 24 24 22 20 19 18 18 19 25 28 29 31 31 29 28 25 24 22 21 18 17 15 16 16 17 15 17 15 14 13 13 11 11 12 11
16 15 17 17 18 19 20 20 21 21 22 22 21 20 18 20 23 26 27 27 25 24 22 19 18 16 14 10 8 6 6 7 10 9 9 7 8 8 7 3 4 4 2

GFSGL_925_spd_105.txt.gz
Wind_Speed
13 10 23 21 19 20 15 11 12 12 9 13 17 16 16 13 11 10 10 8 8 11 11 8 8 6 9 11 11 12 10 9 7 14 16 17 16 17 17 17 16 16 16
15 19 21 22 21 21 23 17 15 14 11 10 17 20 17 15 13 12 11 12 8 12 11 10 9 7 10 10 11 12 11 12 12 13 17 18 21 24 23 25 15 13 14
10 15 19 24 22 23 24 24 17 16 16 15 15 17 14 14 14 14 13 11 13 11 13 11 11 10 12 12 12 15 16 17 16 16 17 18 22 25 14 13 13 13 16
4 8 7 12 17 20 21 20 18 18 17 19 18 16 17 17 15 15 15 15 15 14 12 13 15 15 16 16 17 15 15 16 17 17 19 19 15 10 16 15 16 16 18
6 5 8 10 5 8 15 16 18 14 18 18 19 20 19 19 19 19 18 17 20 19 17 17 16 16 18 18 18 19 17 16 17 14 15 16 19 20 16 16 21 22 20
13 11 8 10 7 11 8 6 14 15 17 16 18 19 20 19 20 20 21 22 22 23 20 19 20 19 19 17 20 23 23 21 22 22 23 21 24 22 22 24 23 21 6
25 24 18 11 8 7 9 8 4 5 9 12 15 17 20 20 21 21 21 21 23 23 21 21 21 22 21 21 18 25 27 25 25 25 26 27 27 28 27 26 23 21 21
18 16 16 18 17 14 12 10 9 8 4 4 4 9 16 20 20 22 23 24 23 22 21 21 22 22 22 23 25 23 23 23 25 26 27 29 27 22 24 25 24 24 27
19 18 18 18 14 15 18 16 14 10 9 7 7 7 5 10 15 19 23 24 24 27 26 25 25 26 26 26 27 31 29 29 30 28 27 27 26 25 26 27 26 23 24
17 15 14 14 12 17 11 14 14 13 12 11 10 9 11 13 10 11 14 21 25 24 21 24 26 27 28 29 32 33 34 34 33 33 33 33 31 31 30 29 30 28 23
12 13 13 14 14 14 13 12 14 16 15 14 12 12 12 12 13 13 13 17 20 24 25 26 24 21 23 26 29 36 36 34 29 30 33 34 34 35 34 32 32 32 30
13 14 15 15 16 16 16 15 15 17 17 17 13 14 14 13 12 15 14 15 16 18 20 20 18 24 29 32 32 28 27 26 30 32 31 31 28 29 31 33 32 32 35
15 15 16 16 15 15 17 18 20 18 19 20 16 13 12 13 13 13 11 11 10 11 13 17 21 27 29 31 32 33 33 30 25 25 28 30 33 32 31 33 35 35 38
18 18 16 16 17 18 17 17 17 19 20 19 16 12 12 15 21 21 18 20 19 20 21 23 25 26 28 28 28 31 31 31 33 37 35 35 34 29 31 35 33 33 30
17 17 20 19 20 20 19 21 21 22 22 25 27 24 22 23 25 21 20 22 23 22 22 23 25 25 28 31 29 27 26 29 28 31 32 31 32 29 30 30 30 30 27
17 18 19 19 20 20 22 22 20 22 21 22 23 24 26 31 30 28 23 21 20 21 23 25 28 26 23 23 23 23 23 27 30 31 31 31 31 28 27 26 27 26 26
16 18 21 21 20 21 21 21 22 22 22 25 25 24 22 25 27 30 28 25 23 22 24 26 22 19 19 20 22 23 24 25 29 32 31 32 30 27 23 25 25 25 25
14 16 18 19 21 21 21 23 24 23 24 24 24 25 25 26 25 24 27 30 26 22 22 16 16 16 20 21 22 23 25 27 28 30 30 28 25 25 27 23 18 22 23
14 15 17 19 20 21 22 23 24 24 24 25 27 26 24 26 30 32 32 27 24 21 16 13 12 17 21 23 26 29 28 31 27 27 28 29 29 27 27 30 34 31 40
12 13 15 18 20 21 21 23 22 23 24 24 24 25 23 26 30 30 36 26 22 17 13 14 17 19 22 25 27 25 29 27 26 24 22 27 28 26 23 24 30 28 30
13 14 15 18 18 19 20 20 22 23 24 24 25 26 25 27 28 28 25 21 10 5 8 14 18 23 26 28 29 27 27 29 27 22 20 21 20 22 29 25 26 35 33
13 15 16 18 19 19 19 20 23 24 25 26 27 26 25 25 23 14 11 12 10 10 15 21 23 25 26 28 30 31 32 31 32 29 28 24 24 24 23 21 21 22 20
9 11 14 17 18 20 21 20 21 22 24 24 24 25 25 23 20 16 14 17 20 25 28 27 26 28 28 29 30 32 33 35 35 35 34 31 28 25 23 21 22 19 18
8 11 14 16 19 20 21 22 22 24 24 24 23 20 20 22 20 17 19 22 26 29 28 29 29 28 29 30 31 30 31 32 34 35 32 32 31 27 23 23 24 23 21
9 11 13 17 19 21 22 23 22 23 23 23 24 25 26 26 25 21 21 25 31 30 29 27 28 28 28 28 27 28 29 29 30 30 30 29 31 27 24 22 21 20 21
12 13 14 17 18 20 21 24 25 24 24 24 23 24 24 25 25 25 24 25 28 28 26 25 25 25 24 23 22 22 23 24 26 26 26 26 25 21 21 20 17 12 9

GFSGL_925_spd_108.txt.gz
Wind_Speed
9 10 15 19 19 18 15 10 14 16 16 16 18 16 15 15 15 14 12 9 8 9 9 9 7 6 6 8 8 8 9 9 5 11 15 18 19 24 25 17 13 12 11
3 5 9 18 19 21 20 15 15 14 14 10 16 16 17 16 15 15 14 14 12 11 11 11 12 10 11 11 10 9 8 10 11 13 17 18 19 20 19 16 14 14 15
5 6 8 18 22 20 20 20 17 18 17 14 16 20 19 18 17 16 15 13 14 13 10 10 10 10 12 12 11 12 11 12 12 12 13 16 17 16 18 15 16 18 18
1 3 9 3 17 18 18 19 21 19 20 18 18 17 21 19 19 17 18 16 14 15 16 14 14 14 15 16 16 16 17 16 15 14 16 15 15 17 15 19 21 23 22
8 6 5 8 4 9 13 13 17 21 23 20 19 20 18 19 19 19 19 18 18 18 19 18 17 17 17 18 19 19 18 19 18 15 15 15 19 21 23 20 24 24 21
10 9 7 6 9 5 4 7 7 15 21 21 22 20 21 20 21 20 19 20 21 22 22 23 21 20 20 20 18 16 19 23 22 19 20 20 24 23 24 23 22 20 6
22 20 17 13 8 6 6 5 10 9 7 11 14 14 17 18 19 19 19 21 22 23 25 26 25 23 20 21 21 21 21 19 20 25 25 26 26 25 24 24 23 21 20
22 20 18 16 16 17 14 7 6 10 8 4 3 5 10 14 14 15 19 21 21 21 20 19 20 21 23 24 23 24 24 24 23 23 26 26 26 25 24 26 24 24 26
17 16 15 15 17 14 12 14 12 9 9 10 7 7 8 9 11 9 12 19 22 22 21 20 22 22 23 22 23 26 28 30 29 29 30 30 29 28 26 26 28 26 20
14 12 11 11 11 11 10 8 6 9 8 9 9 8 8 9 12 12 12 12 14 16 19 20 19 19 20 21 23 25 28 30 28 27 26 26 27 29 28 31 31 29 21
10 9 10 10 11 10 9 9 9 11 11 12 12 10 10 9 8 9 9 10 12 14 14 15 14 15 18 18 17 16 19 18 19 21 22 26 29 31 32 30 30 30 30
9 9 9 10 11 11 12 12 13 14 15 16 16 11 7 6 10 11 13 11 11 12 12 13 14 16 18 21 22 23 25 25 26 29 30 30 28 28 29 30 32 32 31
9 11 13 13 14 15 15 15 16 16 17 18 18 19 13 8 11 16 17 14 14 16 17 17 18 19 20 21 22 23 22 23 25 26 30 33 34 33 32 30 32 33 34
12 12 14 16 17 16 16 16 17 17 19 20 21 22 18 16 19 18 20 18 17 19 19 19 19 20 21 21 20 21 24 26 27 28 29 31 30 29 28 26 28 29 28
12 13 15 16 18 18 18 19 18 16 18 21 20 22 22 22 22 23 23 22 20 20 20 21 23 25 26 23 20 19 19 20 24 27 29 30 29 28 28 27 26 27 25
12 14 15 17 17 20 21 22 16 18 17 18 17 21 20 20 23 23 24 22 22 21 20 20 21 24 20 19 20 22 22 23 23 25 27 28 29 29 29 28 26 25 23
11 12 14 15 17 20 22 23 25 28 23 21 21 22 22 23 23 23 23 24 23 22 23 24 19 17 14 14 18 19 18 19 22 24 26 27 28 28 29 28 27 27 26
11 12 12 14 16 17 19 20 22 23 23 24 25 23 24 24 25 25 24 26 25 23 25 23 17 11 10 10 16 20 24 24 23 26 27 27 26 26 26 25 25 25 27
10 11 13 15 17 19 20 21 22 22 20 21 23 21 23 24 28 27 26 26 27 27 26 18 11 9 10 13 13 17 19 22 26 26 26 27 26 25 27 27 28 31 29
9 11 13 15 19 20 22 24 23 23 22 21 21 21 25 30 28 28 28 24 23 20 12 7 7 9 14 15 14 15 18 19 21 25 28 27 27 27 25 25 23 24 23
9 9 10 12 15 17 19 21 22 22 23 25 24 24 25 23 25 25 22 10 9 9 5 8 12 16 18 17 17 16 18 22 25 26 26 27 25 27 28 26 25 25 25
6 5 7 11 13 15 17 19 22 22 23 25 26 25 25 26 24 25 26 18 17 14 14 17 19 21 22 21 21 21 23 25 26 28 27 27 30 32 29 27 27 26 25
4 5 8 12 12 15 17 18 20 22 23 24 26 26 25 25 22 21 21 18 16 18 20 21 23 25 25 24 23 22 24 26 27 28 31 31 33 33 32 29 28 27 25
5 7 10 11 11 14 16 17 22 21 21 23 24 25 24 25 26 28 28 26 26 29 32 33 33 29 27 24 25 24 23 26 27 30 31 35 37 35 33 31 30 29 28
9 10 13 14 15 17 16 20 21 20 21 22 24 25 25 25 26 28 28 27 28 30 33 35 33 30 26 24 23 23 23 24 26 27 30 33 37 37 36 35 35 32 31
12 13 14 13 14 17 19 23 24 23 21 22 22 23 26 27 27 28 29 26 26 28 29 27 27 25 23 22 20 20 22 22 23 24 26 31 35 36 34 32 32 31 31

GFSGL_925_spd_111.txt.gz
Wind_Speed
18 14 14 16 15 12 13 14 16 14 14 18 15 19 17 14 12 11 10 9 9 7 8 8 7 5 3 4 6 6 5 4 2 6 12 15 17 17 16 17 16 16 16
11 11 11 15 17 17 15 13 11 13 15 16 16 16 17 16 14 13 13 11 11 11 9 10 10 8 7 7 7 6 7 8 6 8 13 15 15 13 12 15 17 18 18
6 2 6 7 15 18 19 17 16 14 13 13 12 17 17 16 15 14 14 12 11 12 12 9 9 8 8 8 8 9 9 10 10 10 12 15 16 13 14 15 18 18 18
3 6 7 8 9 15 17 15 15 15 15 15 15 15 18 17 16 15 16 15 13 12 12 13 13 12 12 12 13 14 14 13 14 14 14 13 13 17 18 18 20 19 18
9 5 2 5 5 5 10 10 11 12 13 15 17 17 17 16 18 17 18 18 17 16 15 16 16 15 15 16 17 17 17 14 16 17 16 16 18 18 19 15 18 16 17
9 6 5 6 7 10 9 6 1 6 6 8 12 17 17 17 17 18 18 19 19 19 20 19 19 19 20 20 20 19 18 16 15 16 18 19 22 22 21 19 18 16 6
18 16 15 13 10 10 11 10 9 8 7 5 6 8 15 16 18 19 18 18 19 20 20 19 19 20 20 21 21 20 19 17 18 18 19 20 23 23 22 22 22 20 19
22 21 20 17 15 18 17 16 11 9 8 8 7 7 7 4 9 17 18 17 18 18 18 19 18 18 17 17 19 21 22 22 22 22 24 26 26 25 25 24 23 23 24
20 20 18 16 17 17 18 17 14 13 13 9 9 9 9 9 7 7 9 10 14 18 18 16 16 15 16 17 19 21 22 24 22 22 22 23 22 21 21 22 24 24 19
19 17 17 16 15 16 14 11 11 11 9 10 11 10 9 9 7 8 8 7 8 8 7 6 8 10 12 13 14 17 20 21 18 18 19 20 19 21 21 24 25 25 20
12 12 13 14 15 15 14 14 13 13 12 11 10 8 4 6 6 8 12 10 9 11 9 6 7 7 9 11 12 15 18 20 21 23 24 25 27 28 28 27 25 26 28
11 12 13 14 16 16 15 14 14 14 13 13 11 10 9 3 6 11 13 11 11 12 12 12 12 13 12 12 14 15 16 18 21 22 24 26 26 27 26 26 27 28 29
11 12 13 12 13 14 16 16 16 15 16 16 16 16 17 14 11 13 15 16 14 12 13 14 14 15 16 15 13 13 15 17 20 23 27 29 28 27 25 24 24 26 29
12 12 13 13 13 12 13 15 17 18 20 19 19 20 19 17 16 16 16 16 13 14 15 17 16 14 15 17 16 12 11 12 14 18 22 24 25 27 28 27 26 26 26
10 11 12 13 13 13 13 13 13 13 15 16 17 17 20 21 22 18 17 16 16 15 17 17 18 19 20 20 15 13 13 14 14 16 19 22 22 24 25 25 25 24 23
8 9 10 10 11 13 15 15 13 15 14 11 11 14 14 17 17 18 18 17 16 15 15 17 20 21 19 16 15 17 16 15 17 20 22 22 24 24 24 24 24 24 23
8 8 9 11 13 14 16 18 21 21 17 16 17 15 15 18 18 19 19 20 19 18 16 18 20 22 20 14 13 12 19 21 21 19 18 24 25 25 25 22 23 22 22
4 5 7 9 13 15 15 16 16 18 21 23 21 21 20 20 22 22 20 20 21 21 22 22 22 20 15 12 12 16 19 22 22 19 24 20 22 23 25 23 22 22 23
4 5 6 8 10 12 14 16 17 18 18 18 20 22 24 23 23 21 21 22 23 22 21 20 16 11 11 13 15 17 17 20 21 21 21 22 21 21 23 23 24 27 27
4 4 5 8 10 13 15 17 18 18 16 16 18 20 23 26 22 24 22 23 20 17 13 13 10 9 10 12 15 16 18 18 18 18 22 23 23 21 23 23 26 26 27
2 3 5 8 10 13 16 18 20 23 22 19 18 18 19 24 24 22 23 22 23 23 20 16 13 14 16 17 18 19 21 22 22 21 22 23 22 23 25 25 26 26 26
2 0 2 6 9 12 16 18 20 23 25 24 25 26 26 23 21 21 23 23 21 20 18 17 18 19 20 22 23 25 26 27 27 26 25 25 25 24 23 26 28 27 27
5 2 3 5 7 10 14 17 19 23 26 24 25 26 25 25 24 24 24 26 26 30 28 26 27 31 33 33 33 32 32 32 31 29 29 28 28 31 28 29 28 28 27
8 5 5 6 7 9 12 16 18 20 24 23 23 25 26 26 26 26 26 26 27 29 27 27 27 32 34 36 39 38 36 34 31 32 32 34 36 34 31 28 29 29 30
12 10 9 10 10 10 12 14 16 18 21 22 22 23 24 26 27 28 28 27 28 30 32 28 27 28 31 33 34 33 33 33 32 30 31 33 36 36 35 34 34 34 32
16 14 13 12 12 13 14 16 17 19 21 24 23 24 26 26 27 29 30 30 29 30 32 31 29 31 31 29 30 30 29 30 30 31 31 33 36 37 35 36 36 33 32

GFSGL_925_spd_114.txt.gz
Wind_Speed
19 18 15 10 10 8 6 16 16 13 14 15 15 13 14 13 10 11 10 9 7 6 6 6 5 4 4 4 4 4 3 2 2 5 9 11 12 12 11 12 16 16 17
17 14 10 10 10 11 9 7 10 12 13 15 12 12 12 15 13 12 11 10 9 9 7 6 7 5 6 5 5 4 3 4 3 6 10 13 14 12 12 15 17 16 16
15 10 4 1 6 12 13 13 12 12 9 10 10 8 13 13 14 14 12 11 10 10 10 9 6 5 5 5 5 6 7 8 8 8 10 13 15 13 18 16 16 15 13
12 11 9 7 5 7 13 14 14 13 12 10 9 9 9 12 13 13 12 12 11 10 8 9 10 9 9 9 9 9 10 12 10 10 13 14 14 16 14 18 20 18 17
3 10 8 8 6 3 5 10 12 12 13 14 12 10 10 10 12 15 15 14 13 13 13 11 12 12 13 13 14 14 13 13 12 12 13 13 16 15 17 14 18 19 21
9 7 9 6 6 7 6 7 8 7 7 9 10 12 12 10 12 12 12 14 13 14 15 15 14 14 15 16 16 15 14 15 15 13 15 14 16 17 19 18 18 14 7
11 11 10 8 7 8 8 8 10 7 6 5 4 2 3 4 7 13 14 15 15 14 15 16 15 14 12 12 13 13 14 14 14 14 17 18 18 19 21 21 21 20 17
21 18 14 14 14 13 12 11 12 9 9 7 7 6 4 2 3 3 4 9 12 14 15 16 16 17 16 16 15 16 16 17 17 17 18 20 20 18 17 19 20 22 24
20 19 16 14 15 14 14 13 14 9 12 10 9 10 8 7 6 6 5 6 8 11 13 14 15 14 15 16 15 17 20 21 19 19 19 19 18 18 16 17 19 15 16
17 16 15 14 13 12 12 12 11 10 13 12 12 13 15 15 11 11 9 7 7 9 6 5 4 4 6 8 9 11 15 17 15 14 16 18 19 20 19 20 21 16 16
14 15 15 14 15 14 13 13 13 14 13 14 12 9 10 12 10 12 13 11 12 11 8 5 4 4 6 8 9 11 13 16 18 19 21 22 22 22 21 21 22 23 19
13 15 15 14 15 15 15 15 15 15 15 16 15 15 13 8 8 9 9 9 9 9 11 10 9 9 8 9 11 12 13 15 18 19 20 20 21 22 22 20 20 22 23
13 14 15 14 16 16 16 15 16 16 16 17 16 16 17 15 13 11 11 12 8 9 10 10 10 10 9 11 13 12 12 10 11 13 13 16 16 19 21 21 20 21 22
15 15 14 15 14 14 14 15 15 16 16 16 16 17 17 17 18 17 16 13 12 10 11 12 12 11 12 13 14 12 10 10 11 11 12 14 15 17 20 18 18 17 17
14 14 14 14 15 15 15 14 15 15 13 13 13 13 15 16 18 17 17 17 17 16 16 13 13 14 15 16 15 14 13 10 11 15 17 16 15 17 19 21 20 21 19
14 14 13 13 13 12 12 12 12 12 10 10 10 10 9 10 12 14 15 15 15 17 16 16 18 18 17 18 16 14 12 13 15 17 14 15 18 17 18 23 22 22 19
13 12 12 11 12 13 13 14 14 12 11 12 12 12 12 12 14 14 14 15 16 16 16 18 19 20 20 19 14 12 12 14 14 13 13 15 15 17 19 20 20 22 22
10 10 10 11 11 11 12 12 13 14 14 16 15 15 15 16 19 17 18 18 18 17 17 17 18 19 18 14 11 12 14 16 16 14 15 12 13 14 18 18 20 20 20
9 9 9 9 10 11 12 12 13 13 13 14 18 18 19 19 20 19 19 16 17 18 17 17 13 14 14 13 13 15 16 17 17 17 16 15 15 14 16 16 18 20 22
9 8 8 8 9 10 11 12 13 14 14 13 12 13 16 19 19 18 16 16 16 16 18 21 20 19 16 15 16 17 18 16 15 16 17 18 17 18 18 17 18 19 20
10 10 8 8 7 8 9 10 11 13 12 12 13 15 17 16 16 15 16 16 16 18 22 20 19 19 19 19 19 20 21 20 18 20 21 21 21 20 22 22 22 22 22
11 10 8 6 5 4 5 7 8 9 11 10 11 14 16 12 13 15 16 16 17 20 22 24 28 25 26 26 23 23 23 23 22 22 24 24 24 23 24 24 24 23 24
11 9 7 5 3 1 3 7 10 12 14 16 15 15 16 16 17 17 17 19 20 21 21 24 29 28 26 25 23 27 28 28 28 27 29 28 26 27 25 24 26 27 27
13 11 8 6 5 5 5 7 10 13 15 18 19 20 19 19 20 21 21 22 24 23 26 25 25 28 27 27 27 28 31 32 29 28 29 30 31 30 28 28 28 28 30
15 12 11 8 7 9 9 10 12 13 15 17 20 20 21 21 20 21 23 25 25 27 26 27 28 29 30 27 29 30 31 33 33 32 32 33 35 34 34 32 31 32 31
19 16 14 12 11 12 12 13 14 15 17 18 19 21 23 22 21 24 25 25 27 26 28 28 27 28 27 27 28 28 28 29 29 29 28 31 33 35 35 34 33 33 34

GFSGL_925_spd_117.txt.gz
Wind_Speed
22 18 16 12 9 8 7 8 14 12 12 12 12 11 12 12 12 12 11 9 8 7 7 6 6 6 5 4 3 3 3 4 8 8 8 10 10 11 10 12 11 11 11
18 18 14 13 11 9 7 4 12 13 11 12 12 12 12 12 13 12 11 10 10 8 7 7 8 7 7 6 5 4 4 4 5 7 8 10 9 11 12 12 13 10 9
16 13 12 9 8 7 9 9 8 8 8 8 12 12 10 10 13 12 12 10 10 11 9 9 8 7 6 6 5 6 5 5 6 8 9 9 10 9 13 12 12 12 10
16 15 11 8 6 7 8 9 12 12 11 9 8 8 6 8 10 10 11 10 11 11 9 8 8 10 9 7 6 7 8 9 9 8 9 10 9 9 8 11 14 13 15
15 15 11 7 4 2 6 8 9 12 12 12 10 8 7 7 6 9 10 10 10 10 10 10 8 9 10 10 9 10 9 10 11 11 12 10 12 12 11 10 11 15 17
13 12 11 9 7 5 4 5 7 8 11 10 9 7 7 6 10 10 10 8 10 12 12 11 11 10 10 12 12 12 12 11 11 11 12 11 13 12 12 13 14 14 15
16 14 10 11 6 8 6 9 9 7 7 7 6 6 7 8 8 11 11 11 11 10 11 11 11 11 10 8 10 12 14 14 15 15 15 15 14 14 14 15 15 15 16
16 15 13 10 8 11 9 9 8 6 6 7 6 5 5 3 1 1 3 6 7 8 10 11 12 11 10 15 13 13 14 14 15 15 15 17 16 15 14 15 15 16 17
19 15 13 14 12 12 13 10 10 8 8 9 8 6 7 6 4 3 2 2 1 2 4 8 10 8 13 15 13 13 14 15 14 16 18 19 20 19 16 16 16 17 20
15 14 11 12 13 12 11 10 10 12 12 11 13 11 12 13 11 9 8 7 7 6 6 3 2 3 6 9 9 9 11 11 10 12 14 15 16 18 20 20 19 20 21
13 12 12 14 14 12 11 11 10 11 12 14 12 10 9 8 8 7 7 6 6 6 4 6 6 8 9 9 10 10 11 15 15 14 14 15 14 13 13 13 14 16 20
13 12 11 11 14 14 12 12 13 13 15 14 13 11 10 9 9 9 7 5 4 5 6 6 7 9 10 10 10 12 13 14 11 11 13 13 14 14 13 13 14 16 19
15 14 13 12 13 11 12 11 9 9 9 9 8 8 8 8 9 10 10 11 10 5 6 8 11 12 9 11 12 12 10 9 9 10 11 11 12 13 14 15 13 14 17
14 13 11 11 11 10 10 9 9 8 8 8 7 7 6 8 12 13 14 13 13 13 13 12 10 9 10 11 11 10 9 9 9 9 9 12 13 13 14 14 16 17 15
12 10 9 9 9 11 11 10 10 14 10 8 7 7 7 8 12 13 14 15 15 16 16 10 12 11 10 11 12 11 8 8 7 8 10 10 11 12 12 13 15 16 17
10 8 8 8 7 8 9 11 12 11 10 11 10 8 6 6 7 9 11 13 14 16 12 12 12 12 13 13 13 14 12 10 9 10 9 10 11 12 13 14 14 15 16
11 10 9 8 7 8 8 8 8 8 10 10 9 6 6 8 10 11 11 12 12 11 9 10 12 13 14 15 15 14 12 11 11 11 11 12 12 13 14 15 14 14 16
10 12 9 9 7 8 8 8 7 7 6 6 9 10 11 12 12 13 14 12 10 10 10 11 12 12 12 12 12 12 12 13 12 12 14 14 13 14 16 15 15 15 17
10 9 8 8 8 9 8 8 7 7 6 6 7 9 14 16 16 15 14 11 11 11 11 12 13 15 16 15 15 13 13 13 13 13 14 13 13 14 16 17 19 18 18
11 12 11 10 9 7 6 6 6 6 6 6 7 10 13 14 14 13 12 11 11 12 13 13 14 15 14 15 15 16 16 15 15 15 16 16 15 15 17 18 19 21 21
13 12 11 10 8 7 6 5 5 5 5 5 5 6 13 8 10 11 12 12 12 13 15 16 17 18 18 20 21 18 18 19 18 19 19 19 19 18 18 20 21 22 23
14 14 12 11 10 8 6 5 4 3 3 4 4 6 11 8 10 11 11 12 12 13 15 16 18 19 20 21 22 20 18 18 20 21 24 24 25 25 25 25 24 24 24
11 12 12 10 9 9 7 6 4 2 1 2 4 5 7 9 10 11 12 13 14 15 15 15 18 18 19 20 21 22 23 25 24 22 26 26 26 26 26 27 28 28 26
12 12 11 10 10 9 8 7 6 5 3 3 4 5 7 8 10 11 11 13 14 14 15 16 18 20 23 24 25 24 23 23 26 27 27 28 27 26 24 26 27 28 28
13 13 12 11 9 9 8 9 8 6 6 6 7 7 9 10 13 14 14 15 15 16 16 19 22 21 22 23 24 25 26 28 29 30 31 30 29 27 27 27 28 29 29
18 14 12 11 11 10 9 10 9 8 8 9 9 9 10 11 12 13 14 14 15 15 18 20 21 22 22 23 24 23 25 26 25 25 25 26 27 27 25 27 28 29 30

GFSGL_925_spd_123.txt.gz
Wind_Speed
16 15 13 11 11 9 10 10 9 9 10 11 11 11 12 12 10 9 11 4 6 7 8 7 7 9 10 13 14 10 12 13 15 16 16 13 7 7 10 14 14 18 3
19 17 16 14 11 11 10 10 10 12 12 12 12 11 12 12 10 10 10 10 10 9 8 8 9 10 8 8 11 11 10 11 10 8 13 16 8 7 4 14 9 12 11
19 19 18 17 15 13 11 11 8 13 13 12 12 11 11 12 12 11 11 10 10 9 9 9 8 9 9 10 10 12 14 11 9 13 14 14 13 10 10 10 5 15 13
18 20 20 17 16 15 12 10 9 9 12 11 11 12 12 12 12 13 12 11 10 11 9 9 8 9 8 8 9 8 11 8 10 14 16 16 13 11 12 16 15 15 17
14 16 15 16 16 15 13 11 10 11 11 11 11 12 12 10 11 12 11 10 10 11 9 9 11 9 7 7 10 9 9 10 15 18 17 16 16 16 15 16 17 18 19
12 10 12 12 10 12 12 11 11 12 12 13 13 12 11 7 5 11 11 9 11 10 10 9 9 11 11 12 12 12 13 13 13 13 16 17 17 17 17 15 17 19 18
8 7 9 11 12 10 9 9 8 9 10 11 10 10 9 7 8 10 12 12 10 10 10 10 11 6 3 7 11 11 11 14 14 14 14 16 17 14 15 17 16 17 20
12 11 7 10 9 10 7 7 7 7 6 6 6 6 8 4 3 4 8 11 9 8 6 6 5 5 7 8 9 11 13 15 12 12 14 15 15 17 17 19 21 21 21
10 6 4 6 6 12 9 10 9 8 9 8 9 10 6 4 1 1 3 4 3 4 1 3 4 5 7 9 9 10 13 14 13 12 14 16 17 16 15 13 15 14 19
12 9 9 8 9 13 9 9 9 10 9 15 18 14 11 9 8 4 8 4 4 2 5 7 8 7 7 7 7 8 9 11 16 16 15 13 13 15 13 13 13 10 12
12 12 11 9 12 12 10 10 14 8 12 16 14 12 12 11 12 10 9 9 6 4 3 5 6 8 8 8 8 6 10 14 16 13 13 13 12 11 9 6 8 10 15
12 14 13 9 12 12 12 8 8 9 10 10 9 8 7 10 10 13 12 12 8 5 5 6 7 8 7 7 6 11 12 12 11 13 13 13 12 13 15 17 18 14 13
12 14 10 9 8 11 12 9 7 3 8 10 10 7 9 9 9 10 12 13 10 7 8 7 9 11 10 8 10 11 11 13 12 12 14 13 12 15 16 16 16 16 18
11 11 10 10 9 10 9 8 6 5 5 5 4 3 6 8 5 8 8 8 9 8 13 10 7 9 9 10 10 10 9 10 9 10 11 14 15 15 16 16 17 18 20
8 5 8 10 9 10 10 8 6 9 7 7 8 5 6 5 6 10 10 8 8 8 12 8 6 7 8 8 10 10 10 10 12 13 12 14 16 14 15 15 16 18 19
6 7 7 8 9 9 10 11 13 11 9 9 9 7 7 6 7 7 7 8 9 8 7 9 8 9 8 9 10 12 13 14 14 14 15 16 17 17 18 18 18 19 19
9 7 6 7 7 9 8 8 9 10 11 9 8 6 6 7 7 7 8 8 11 8 5 6 7 9 11 12 12 11 11 11 12 13 14 15 17 19 19 18 18 19 20
6 8 7 5 7 7 6 7 9 8 7 5 9 9 9 11 12 9 8 8 6 6 8 10 10 12 12 12 12 14 15 15 15 16 17 17 18 17 18 18 19 20 21
8 7 4 5 4 6 7 6 5 5 6 9 7 5 5 7 9 12 12 9 6 7 8 8 9 10 11 12 13 12 13 15 17 17 18 18 19 20 20 20 22 24 25
8 8 7 7 6 6 6 7 6 5 5 5 5 4 3 2 3 6 7 8 8 8 9 10 11 12 12 13 14 15 16 15 16 17 18 18 18 18 19 20 20 20 22
9 9 9 8 10 8 8 7 7 7 6 5 6 4 2 1 2 3 4 5 6 7 8 9 10 11 12 13 14 15 16 17 18 18 19 19 19 20 22 24 25 25 25
11 12 13 11 10 9 8 7 7 7 6 6 5 6 3 1 1 2 2 4 5 5 6 7 9 10 11 12 14 14 15 16 17 17 17 17 19 21 21 22 23 22 24
12 12 12 13 12 10 9 9 8 7 7 6 5 4 4 3 3 2 3 4 5 6 6 7 8 10 10 11 12 13 14 15 15 14 17 21 22 23 23 26 27 27 26
14 15 15 15 13 13 13 12 11 8 6 8 8 7 6 6 6 5 5 6 7 8 8 8 9 10 11 12 12 13 14 15 21 21 20 22 25 25 24 24 25 27 27
20 14 14 17 17 16 14 14 13 12 11 12 11 9 9 9 8 8 8 9 10 10 11 11 11 10 11 12 13 13 14 19 20 18 18 20 22 23 24 25 25 26 26
21 19 18 12 10 11 15 16 16 15 14 13 13 12 11 11 10 11 11 11 11 11 12 13 11 12 12 12 12 14 18 16 16 18 20 23 20 20 20 22 23 26 27

GFSGL_925_spd_129.txt.gz
Wind_Speed
24 23 19 19 18 15 14 14 11 6 11 16 12 13 13 11 10 6 4 3 1 3 2 4 4 5 6 9 10 11 14 8 4 6 15 18 20 13 10 10 10 14 7
25 25 22 20 19 16 14 14 12 12 10 12 13 12 10 11 9 9 6 4 3 6 6 3 3 4 3 3 5 8 6 8 6 10 16 18 23 13 8 14 8 17 20
18 27 24 23 23 22 17 15 13 13 14 12 14 12 11 9 9 9 8 7 6 6 5 9 5 4 2 2 1 4 8 8 11 11 13 14 19 18 16 16 16 17 17
18 27 29 24 20 21 17 14 15 13 14 16 15 14 11 10 7 8 7 11 10 8 4 9 3 3 4 4 2 3 6 9 10 13 13 12 14 15 14 18 21 21 22
30 29 24 25 27 23 18 17 15 13 13 14 13 11 10 12 11 12 11 8 10 5 6 4 2 4 5 5 5 4 5 6 9 12 14 13 13 20 18 17 19 21 23
29 26 14 20 23 22 15 16 16 15 12 13 15 12 11 12 11 10 7 6 1 7 5 2 6 6 4 7 5 4 4 6 10 11 11 12 14 17 16 18 19 18 8
14 13 12 18 20 19 18 16 15 15 13 12 11 12 10 9 9 9 4 4 6 3 1 2 4 4 4 3 2 3 6 6 6 8 8 10 13 15 14 17 17 16 15
15 13 11 8 7 5 10 15 14 14 13 11 9 11 11 8 9 9 4 4 7 8 6 5 2 2 6 5 3 5 4 4 6 7 8 12 15 16 15 13 12 12 13
15 15 12 11 11 6 2 2 3 8 10 14 15 14 11 9 5 1 2 9 12 11 8 6 7 8 9 7 7 10 9 10 9 10 10 12 12 10 8 7 10 12 9
13 12 10 10 11 12 11 13 16 14 19 21 21 17 15 14 11 9 9 14 18 20 18 15 12 11 10 10 12 13 14 17 17 19 23 28 25 22 20 14 11 10 10
11 12 11 11 11 10 12 14 15 20 25 23 24 22 20 18 16 16 18 18 17 18 13 12 12 11 10 11 12 13 13 13 15 14 14 17 19 20 19 17 17 15 14
12 13 14 14 14 12 15 16 19 20 21 21 20 20 16 16 16 16 18 18 17 15 11 8 9 9 9 10 11 11 10 13 11 15 19 22 22 23 22 18 18 16 16
15 13 14 16 17 15 14 12 15 15 20 19 17 18 15 11 8 6 7 9 9 7 5 4 6 10 9 10 11 14 14 17 17 20 21 21 20 18 17 19 15 17 16
15 14 13 15 13 14 14 12 13 13 11 11 14 13 9 11 10 7 6 6 3 2 2 4 4 5 10 16 17 19 20 20 20 20 19 18 17 19 22 25 24 23 18
14 15 13 11 10 12 12 12 14 13 12 13 15 12 8 5 7 8 7 7 7 11 16 18 20 21 21 20 21 20 19 18 20 19 19 19 21 22 22 21 22 22 21
15 9 10 11 8 10 10 11 12 14 11 11 10 7 7 6 7 10 9 12 13 12 17 20 21 20 20 19 18 18 19 17 18 17 18 19 20 21 21 20 20 21 20
11 12 11 10 8 9 11 7 9 10 9 9 9 9 9 10 10 9 10 15 16 14 22 22 21 20 19 18 19 18 19 16 16 18 17 17 17 18 20 23 22 21 20
10 10 11 7 8 9 8 5 6 7 9 10 10 11 12 11 10 10 8 12 19 18 18 19 18 16 15 15 16 16 16 16 19 18 17 17 17 18 19 19 20 22 20
10 9 7 8 9 12 17 14 12 11 9 10 10 11 13 11 9 7 12 16 18 18 15 15 13 13 12 12 11 11 12 14 15 15 15 16 18 19 20 22 21 21 21
11 14 8 12 7 3 6 3 14 22 18 15 12 10 8 6 8 10 11 11 11 10 9 10 10 10 10 10 10 10 11 13 14 14 15 16 16 17 17 19 19 20 19
10 8 8 8 9 11 9 7 7 9 5 19 17 8 5 1 8 12 11 10 9 8 8 9 9 7 8 9 10 11 11 10 12 14 14 15 16 17 17 16 19 20 19
13 13 11 10 9 10 12 13 12 8 13 19 16 10 7 8 9 11 8 9 8 5 5 5 4 5 5 7 7 8 9 8 11 14 16 17 17 17 15 17 18 18 19
16 16 15 15 15 11 15 14 10 17 12 22 17 14 10 12 11 14 12 10 7 6 4 5 4 2 4 6 7 6 7 9 11 13 14 15 16 16 18 18 18 19 19
16 8 21 14 17 10 10 12 9 4 6 5 19 19 15 14 14 16 14 10 10 9 9 8 5 4 4 6 8 9 11 11 12 15 15 15 16 18 18 19 18 19 21
18 10 3 9 15 9 13 14 13 14 10 10 9 9 10 15 16 14 12 11 14 14 13 10 8 8 8 10 12 13 12 14 16 16 14 14 16 15 15 19 20 22 22
19 22 13 7 8 9 5 6 12 10 7 10 11 12 10 10 13 14 15 15 16 16 13 12 11 13 13 14 16 16 13 16 17 15 13 14 14 14 15 18 22 22 23

GFSGL_925_spd_132.txt.gz
Wind_Speed
27 25 24 21 20 17 15 14 12 13 11 12 17 17 16 14 12 7 4 4 2 3 2 1 0 2 4 4 6 6 8 7 5 9 13 19 17 11 6 7 10 11 10
26 23 23 21 20 20 18 16 15 14 12 14 16 15 14 13 14 12 9 5 5 5 4 3 1 2 1 2 3 4 4 6 7 8 10 17 19 14 11 16 15 12 11
22 20 23 21 20 21 18 15 15 15 14 15 15 15 13 14 13 10 11 9 9 8 5 7 7 5 4 3 1 1 3 6 8 8 6 9 12 16 15 14 14 14 14
17 17 21 23 22 22 20 17 15 16 17 18 18 18 15 14 14 11 12 12 10 6 4 1 6 4 4 3 3 0 2 4 5 5 5 6 8 13 12 15 19 18 14
22 17 12 15 26 24 21 21 16 17 17 16 18 19 15 14 15 15 14 12 13 8 7 6 8 4 2 5 4 3 2 1 4 5 6 4 5 9 9 12 15 17 8
18 18 13 14 16 26 23 21 20 19 17 14 16 17 16 16 17 14 14 13 12 16 12 9 6 3 2 4 3 2 3 3 2 3 4 5 6 8 9 12 13 10 6
10 8 10 11 17 21 16 15 19 19 17 14 14 13 14 13 14 13 7 9 10 10 13 11 6 5 4 7 6 4 4 3 1 3 5 5 7 9 10 9 7 7 6
14 7 9 13 11 8 15 17 20 20 18 16 15 14 13 9 5 7 7 12 13 11 9 8 7 7 7 7 7 7 5 1 3 4 6 8 8 6 5 3 4 7 5
23 15 11 6 4 2 2 2 4 12 15 14 13 11 8 6 5 8 12 15 16 14 10 9 8 8 8 7 9 9 9 11 12 19 21 21 20 15 11 6 8 8 4
18 15 13 12 11 9 7 7 9 9 16 19 21 19 16 10 4 9 16 19 20 19 17 15 13 13 12 10 11 11 15 14 13 15 18 19 19 19 18 17 13 12 8
14 14 12 10 10 10 12 8 12 17 20 22 19 19 16 16 13 12 20 23 25 21 18 16 13 11 11 11 11 12 12 13 14 15 18 18 17 18 20 19 18 18 16
16 16 16 14 14 13 15 15 15 16 18 16 21 21 17 16 18 19 19 18 18 17 15 13 11 9 8 7 9 10 11 12 13 16 18 20 19 17 16 15 14 16 20
18 19 16 16 16 16 16 16 15 15 17 16 15 15 12 11 9 10 13 13 14 11 10 10 12 13 19 21 18 18 16 16 17 18 18 18 17 16 14 14 11 10 10
20 17 15 16 17 16 15 15 14 14 12 13 11 11 10 9 9 8 5 4 6 7 9 12 9 17 19 19 18 17 18 18 17 17 16 15 14 16 19 20 21 20 14
17 15 15 13 13 15 14 14 14 13 10 11 9 6 6 6 6 4 4 5 9 12 18 21 26 23 20 18 18 17 17 17 18 17 16 17 18 19 20 20 20 21 22
15 13 13 13 11 13 15 15 15 13 11 9 8 5 5 5 7 9 9 12 16 20 22 23 22 20 18 16 16 17 17 17 17 15 16 17 19 19 19 19 20 21 22
10 11 11 11 10 9 10 15 14 11 10 7 6 5 6 9 6 10 16 17 17 16 23 21 20 18 18 17 17 16 18 17 14 17 18 18 18 17 17 19 20 21 19
8 8 8 8 6 6 7 8 9 12 14 9 9 10 9 10 10 14 17 16 18 18 18 19 18 16 16 15 14 13 13 13 14 15 16 17 18 17 18 20 19 18 16
9 9 10 8 7 6 6 3 7 8 10 15 11 9 8 10 13 12 10 12 17 18 17 17 14 14 14 12 11 11 12 14 14 15 17 16 16 16 16 17 18 18 17
10 10 8 10 10 10 13 14 12 12 11 11 14 17 12 10 13 13 10 10 12 12 11 12 12 13 12 11 11 11 12 13 14 15 15 15 15 15 14 14 16 18 18
11 10 8 8 10 9 7 7 13 21 17 16 14 9 8 10 11 10 11 8 9 10 9 8 8 8 9 9 9 9 9 10 11 13 13 12 13 14 12 13 14 15 16
13 11 9 9 8 7 10 9 7 17 22 19 18 13 13 12 17 17 15 10 8 7 6 7 6 5 6 6 7 7 7 7 8 10 10 11 11 11 12 13 13 14 15
16 14 12 15 13 12 8 11 13 12 12 13 22 19 19 17 20 21 19 14 12 9 6 3 3 4 6 7 10 9 7 7 8 10 10 10 10 12 12 11 13 15 16
18 16 13 17 17 15 11 9 10 6 7 12 18 22 19 16 20 22 19 16 12 11 8 6 3 1 2 3 4 7 6 7 8 9 9 8 9 10 10 11 12 14 16
18 12 8 10 17 14 13 11 10 9 7 7 11 19 18 13 19 23 21 19 16 16 14 13 10 8 7 6 5 7 6 7 10 13 10 10 10 10 11 10 11 14 17
21 17 14 8 7 9 7 3 5 7 12 9 12 13 11 9 15 20 24 21 19 18 17 17 15 14 12 10 10 9 9 9 9 12 12 11 12 11 11 9 9 13 17

GFSGL_925_spd_135.txt.gz
Wind_Speed
26 28 25 25 22 20 19 18 17 18 15 13 13 19 19 16 13 13 10 9 8 8 7 5 5 3 3 3 1 2 2 3 2 5 13 14 16 11 12 13 12 11 12
28 26 26 23 23 20 20 18 17 16 17 14 11 15 18 17 16 15 15 10 12 9 7 5 5 4 5 4 2 1 1 2 3 2 4 9 11 10 9 13 11 8 7
27 25 23 23 22 21 20 19 17 16 16 15 16 18 17 18 16 17 15 14 11 12 8 11 10 8 6 5 3 1 1 2 3 2 2 5 3 8 8 3 10 10 6
27 24 24 23 23 21 20 18 15 16 18 17 17 17 17 16 16 17 16 15 13 11 10 10 11 11 9 8 6 3 1 1 2 3 2 3 3 7 8 12 13 11 9
23 21 16 15 18 19 19 19 17 16 17 19 19 19 19 17 18 18 17 15 15 13 12 11 6 7 6 6 7 5 4 2 1 2 1 1 2 5 7 8 9 8 5
19 16 11 6 10 11 14 17 18 19 17 17 16 19 22 21 20 19 18 17 17 15 15 13 9 8 6 8 7 5 4 3 2 1 3 4 2 2 4 6 6 6 4
11 13 13 3 4 1 4 9 15 16 19 18 17 16 14 19 21 21 19 17 17 18 16 16 12 7 5 7 7 6 5 2 1 3 3 4 5 4 7 4 4 5 5
12 12 12 6 1 5 8 9 9 15 16 14 12 12 13 15 12 14 13 15 14 15 19 15 9 9 7 7 7 6 3 0 2 3 4 5 6 4 1 1 3 4 3
7 6 8 5 8 10 13 14 14 19 21 20 15 11 9 7 6 8 12 14 14 14 12 11 8 8 8 9 9 7 10 14 17 17 16 16 15 12 9 6 7 5 4
14 8 6 4 6 6 6 7 10 10 11 13 15 13 11 10 4 2 10 11 15 15 13 11 9 8 8 8 11 14 19 17 18 18 19 20 21 20 18 15 11 10 6
13 12 12 9 8 7 8 10 11 12 13 13 12 8 7 10 11 10 8 8 12 16 15 14 12 11 9 10 11 12 14 15 15 17 18 19 19 21 21 19 16 14 13
13 14 13 13 12 10 10 10 11 14 15 14 13 12 11 12 13 16 15 17 16 15 14 12 9 11 11 11 13 15 16 15 15 15 17 18 18 18 18 17 15 15 16
14 12 13 14 14 14 15 15 16 16 18 16 14 11 9 11 11 13 19 20 16 14 13 12 13 15 17 18 17 17 15 14 15 18 19 17 15 14 12 12 12 9 12
14 13 12 13 13 14 14 14 14 15 14 13 12 11 10 9 8 8 8 9 12 11 14 16 20 21 19 19 17 16 17 15 16 16 16 14 12 12 14 14 14 12 9
13 12 11 13 12 12 11 11 10 10 10 9 9 9 8 6 5 7 6 6 13 18 23 21 18 20 18 18 17 16 15 14 14 12 10 11 12 13 16 15 16 17 18
13 12 12 11 11 12 12 14 10 8 6 6 5 3 6 7 6 4 6 13 16 15 17 16 18 18 18 15 15 15 15 16 14 12 13 13 14 15 15 16 16 17 17
13 11 10 11 11 11 10 11 12 10 7 5 6 6 8 7 7 10 15 18 17 19 23 19 19 17 16 16 16 14 15 13 10 12 13 14 14 15 16 17 18 17 17
8 8 8 8 7 7 5 6 7 7 8 10 9 10 10 10 12 11 12 15 17 16 17 18 18 16 14 13 15 14 12 10 11 13 13 13 13 13 15 17 17 16 15
5 4 4 3 4 3 4 7 7 8 8 10 12 11 12 14 15 12 7 13 16 17 14 15 13 13 13 12 13 11 10 11 11 12 13 13 12 12 14 14 14 14 14
7 8 8 6 3 3 8 9 7 6 7 9 12 14 15 18 16 12 7 7 10 13 13 12 13 12 11 10 11 10 9 10 10 11 11 10 11 11 11 11 11 13 13
8 9 8 7 7 7 9 13 14 13 11 11 12 12 12 14 15 16 16 13 11 11 13 11 10 9 8 8 8 7 6 7 8 8 8 8 8 9 10 10 10 11 9
14 10 9 9 7 7 9 10 7 10 17 13 13 13 13 14 14 14 13 11 10 9 8 9 10 9 7 6 5 3 3 4 4 4 5 6 7 8 8 9 8 8 8
16 14 12 11 10 8 8 6 7 9 13 17 16 16 16 16 17 19 15 13 12 10 10 9 9 10 9 9 7 5 4 3 3 4 3 3 4 6 6 6 6 6 7
18 16 15 13 12 12 11 12 9 8 12 17 18 20 22 19 18 23 21 18 16 13 12 11 9 7 6 6 4 2 2 2 4 5 5 4 4 5 5 5 5 4 7
21 18 15 15 10 10 9 10 10 9 6 8 9 12 19 20 19 22 26 23 20 18 15 14 12 9 7 6 7 6 3 3 1 4 4 4 5 6 6 6 5 5 7
22 19 14 11 10 8 10 10 17 12 9 7 8 8 10 17 19 17 24 26 25 23 20 20 18 13 12 11 12 12 9 6 5 5 6 6 7 9 9 8 7 7 9

GFSGL_925_spd_138.txt.gz
Wind_Speed
29 26 25 23 19 17 17 17 16 14 15 14 15 16 20 18 15 14 13 11 11 9 9 8 7 7 5 4 3 2 1 3 3 1 4 8 8 11 11 12 10 9 8
30 27 24 24 20 20 19 18 17 16 16 18 17 13 15 21 19 16 16 16 13 13 9 8 7 7 7 6 4 4 4 3 5 5 1 3 6 4 5 5 10 6 7
29 27 24 22 21 19 19 18 17 15 15 16 17 17 15 17 18 18 19 17 14 11 11 9 10 10 9 10 6 5 4 3 2 3 3 1 1 4 6 8 8 9 10
29 26 23 20 20 19 17 15 14 15 15 17 17 16 16 17 17 18 17 17 16 14 13 13 13 13 13 10 9 7 5 4 3 4 3 2 1 2 4 8 8 5 12
26 22 20 18 18 18 18 15 12 12 12 13 17 14 17 17 19 19 18 17 17 16 14 13 13 8 8 8 11 9 7 6 5 5 3 1 1 1 3 4 4 4 9
16 15 10 9 10 11 13 14 13 12 13 12 12 15 17 19 20 21 20 19 19 18 18 17 17 14 10 10 11 11 7 7 7 5 3 2 1 1 1 2 3 4 2
10 11 15 14 9 6 8 10 10 8 7 7 8 11 13 14 20 23 22 21 20 20 19 19 15 11 10 9 12 10 7 4 2 2 3 3 4 4 3 2 3 6 8
7 7 12 14 15 11 6 6 6 3 2 3 5 8 9 12 13 12 15 18 17 18 11 12 9 9 9 9 9 8 5 2 2 3 3 4 7 6 3 2 3 7 7
10 10 12 11 11 11 7 5 4 3 3 4 5 8 11 13 12 8 9 8 8 8 12 11 11 10 10 9 9 9 10 13 14 11 13 12 9 8 6 6 5 7 3
13 12 10 8 9 8 4 4 3 1 3 4 6 9 12 19 17 8 6 4 6 7 9 13 12 9 8 8 9 13 17 16 18 18 19 18 17 16 13 11 7 8 6
11 8 10 8 6 6 6 6 6 5 4 6 4 3 5 8 11 10 14 5 4 11 12 9 8 6 6 8 11 14 18 19 18 19 19 18 17 17 17 17 14 12 13
11 11 10 10 6 7 5 6 7 5 5 8 8 7 6 5 2 9 13 12 12 13 15 12 11 8 8 8 11 14 16 17 16 16 16 17 17 16 16 15 14 14 14
12 11 11 10 8 8 7 8 10 9 10 10 9 8 7 8 7 8 9 13 15 14 12 11 10 10 10 13 15 15 15 14 14 14 15 15 14 13 11 10 7 9 10
11 12 11 11 12 11 11 9 10 9 9 7 6 6 5 5 7 10 10 10 10 17 17 18 20 20 19 19 17 16 15 15 14 15 14 12 10 8 9 9 9 4 6
12 12 12 11 10 10 10 10 8 8 6 7 7 5 4 4 4 5 6 10 15 18 18 18 18 18 18 17 17 17 16 15 14 12 11 10 9 8 10 9 10 9 11
10 9 9 10 11 11 12 13 9 9 7 7 6 5 7 6 5 3 6 12 13 15 17 19 15 10 10 10 11 11 11 12 12 10 9 10 9 9 10 10 9 10 10
10 9 8 8 9 9 9 11 15 13 10 9 9 8 8 7 9 10 13 14 11 13 17 13 14 14 12 11 11 10 11 9 8 8 8 9 8 8 8 9 8 10 10
8 8 9 10 9 7 6 7 6 8 10 12 10 9 11 11 12 12 13 11 12 10 14 16 16 14 13 12 10 11 11 10 8 9 9 8 8 7 6 7 9 9 7
6 6 6 4 5 7 7 8 8 9 9 10 10 11 13 12 16 15 12 16 16 15 11 11 12 13 12 10 10 9 9 10 9 8 9 8 8 7 8 8 6 6 6
5 5 6 5 6 4 6 7 7 7 7 8 8 9 13 14 13 15 15 16 16 13 10 11 10 10 10 10 9 8 8 7 7 7 7 7 6 5 4 4 5 7 9
5 5 7 4 5 5 6 8 8 5 5 7 10 11 12 14 13 10 10 11 12 15 15 14 12 11 10 9 7 9 8 7 6 5 4 4 4 4 4 5 5 5 5
10 9 9 8 5 6 6 7 7 7 9 10 9 11 11 11 10 9 8 8 8 9 9 10 11 10 10 9 9 9 9 8 6 4 3 2 1 2 3 3 4 4 4
14 14 13 11 10 9 8 8 10 9 7 13 12 13 14 14 14 13 12 11 12 12 13 13 14 14 13 10 7 5 4 4 3 3 2 2 2 1 1 3 4 3 3
16 16 14 13 11 10 10 8 9 8 11 11 12 14 15 17 17 16 17 15 15 14 14 14 15 12 11 10 8 6 6 4 3 2 1 1 2 3 4 4 5 4 4
17 18 17 14 13 12 10 10 8 7 7 9 9 11 14 16 19 19 19 21 20 19 18 17 17 15 13 12 11 9 6 6 5 3 2 2 2 3 4 5 5 5 6
17 18 18 16 14 14 10 9 12 8 9 12 11 8 7 7 12 18 20 22 26 25 23 21 19 18 13 11 14 14 12 10 10 10 8 6 5 4 5 5 5 6 7